GFSSGP_sfc_temp_003.txt.gz
Temp
62 65 64 65 57 49 43 50 57 57 57 62 65 63 59 57 57 51 69 70 67 66 68 70 72 73 74 74 75 75 75 75 75 74 74 74 74 75 75 73 72 73 73 74 74 75 75 74 73
64 70 66 57 49 42 46 53 56 57 62 65 65 63 59 57 64 63 65 69 69 68 68 69 72 73 73 73 74 74 75 75 75 74 74 74 74 74 74 73 71 72 73 73 74 75 75 74 74
64 68 61 51 43 43 46 53 56 59 63 61 61 65 62 59 65 66 68 69 68 66 67 69 71 72 72 73 73 73 73 73 73 73 74 73 74 73 73 71 71 71 72 73 74 75 74 72 70
66 63 57 50 45 49 52 54 59 61 63 65 62 58 64 67 67 68 69 68 65 64 65 68 70 71 72 73 73 73 72 72 72 72 73 73 73 73 72 70 70 71 72 73 73 73 72 71 69
61 56 48 45 45 52 57 61 61 58 59 61 61 56 58 66 69 68 66 68 65 64 66 67 69 71 72 73 72 72 71 71 71 72 72 72 72 72 70 70 71 71 71 72 72 72 71 70 69
59 55 47 42 47 54 57 58 63 60 60 61 59 57 58 66 68 67 69 67 68 66 66 67 70 71 71 71 71 70 70 70 70 70 71 72 71 70 70 70 70 70 70 70 70 69 69 69 68
57 50 44 43 51 56 58 60 60 59 58 58 62 55 58 63 67 69 68 66 67 66 66 66 67 69 69 69 69 69 69 69 69 69 69 69 68 68 68 69 69 69 70 69 69 68 68 68 68
56 53 42 45 50 48 59 59 58 61 55 62 61 55 55 65 69 68 67 66 65 65 65 65 65 65 64 64 68 68 68 68 68 68 68 67 67 68 68 67 68 68 68 68 67 67 67 67 66
56 49 44 45 48 51 56 54 61 61 61 60 61 60 64 68 68 65 62 63 63 66 65 64 64 64 63 63 66 68 69 68 67 67 67 65 62 61 62 65 67 67 66 66 65 65 65 64 63
55 46 50 56 55 51 54 54 57 59 56 58 59 63 64 67 65 65 63 63 63 63 64 65 64 64 63 69 65 63 65 64 64 64 63 61 60 59 62 64 66 66 65 65 64 63 62 60 56
52 51 57 59 59 59 54 56 59 58 52 59 60 60 63 64 65 65 63 66 64 64 63 63 63 63 63 64 62 61 61 61 62 62 61 60 59 59 58 57 58 57 61 56 57 56 54 54 54
56 57 60 58 61 57 55 56 57 53 60 67 65 64 63 64 64 65 62 64 63 63 63 63 62 61 60 61 62 62 61 61 61 60 60 58 56 56 57 57 57 56 56 55 55 54 54 54 55
57 58 60 62 61 58 61 58 59 59 63 64 63 64 63 63 63 60 65 62 62 63 62 61 61 60 61 60 58 59 59 61 60 59 59 59 57 56 56 56 56 55 55 54 53 53 54 54 55
60 59 61 61 61 60 58 57 56 61 59 63 62 61 61 62 64 60 61 61 61 61 61 60 60 60 60 59 58 58 58 58 57 57 58 59 57 56 56 56 55 55 54 53 52 51 50 50 51
62 57 59 59 59 59 60 55 56 60 60 62 61 60 61 63 63 63 63 63 63 62 62 60 59 59 59 59 58 57 57 57 56 56 57 57 56 55 55 54 54 54 53 53 52 50 50 49 50
56 53 48 59 57 58 56 50 61 58 58 59 59 59 61 62 62 60 61 58 60 59 60 59 64 59 58 57 57 57 56 55 55 55 55 56 56 55 53 52 52 52 52 52 50 49 49 48 47
48 42 46 53 59 57 54 51 60 58 59 60 57 57 57 57 61 62 62 62 61 59 59 59 59 58 58 57 56 56 56 55 55 54 54 55 56 56 54 52 52 52 51 50 50 49 48 48 48
42 43 41 45 53 54 49 51 56 57 56 57 50 53 54 57 57 59 59 59 58 58 59 59 58 58 57 56 54 53 53 53 53 54 54 56 55 56 53 52 52 51 50 49 48 49 48 48 48
50 46 43 47 54 53 48 48 53 53 52 52 50 53 55 57 54 56 56 55 56 56 57 58 58 57 55 53 53 52 53 53 53 53 55 55 56 55 53 52 52 51 50 50 49 48 48 47 46
50 46 45 50 55 50 50 49 52 54 52 52 52 52 55 55 56 56 56 54 57 57 57 57 58 58 56 54 54 54 52 52 53 53 53 55 56 56 54 53 53 52 50 49 48 48 46 46 45
47 45 44 47 50 48 48 47 50 55 55 57 56 55 55 55 56 56 57 56 55 56 56 58 59 58 57 56 53 52 51 51 50 52 51 54 55 57 55 54 53 52 51 50 48 47 47 45 44
43 51 49 48 44 39 46 38 47 50 50 53 54 52 53 56 57 57 57 56 55 56 55 56 56 56 57 56 54 52 54 55 59 57 56 56 52 56 57 56 52 51 48 47 46 47 45 44 42
49 52 48 47 42 40 45 38 45 49 48 49 49 52 52 54 55 55 56 55 53 54 54 53 55 56 57 55 54 52 51 54 56 54 49 51 51 51 54 55 53 49 49 49 48 46 45 44 43
56 49 47 44 41 33 40 39 39 44 48 49 52 52 52 54 54 56 55 54 54 53 53 54 55 56 57 56 54 51 49 51 50 50 48 50 46 47 48 49 50 48 48 47 45 46 47 46 45
50 41 29 29 27 29 43 39 42 50 52 52 52 54 54 53 52 52 50 53 53 52 51 53 52 53 53 52 52 53 51 48 47 48 48 46 43 43 43 46 45 45 45 45 47 45 45 45 43
45 42 29 25 23 28 41 35 44 52 55 56 58 53 54 53 52 52 53 51 50 50 50 50 51 51 52 51 51 50 48 47 47 45 45 42 41 40 42 43 45 45 44 45 46 44 43 43 42
46 38 45 32 23 25 33 42 49 51 52 53 51 51 49 49 50 50 49 50 50 50 51 49 50 51 50 49 47 47 46 46 45 43 41 40 41 43 41 42 44 44 44 44 44 43 42 42 43
49 49 36 32 21 24 32 34 39 46 47 50 47 46 48 48 49 50 50 51 52 51 49 48 49 48 48 47 47 48 46 44 43 41 41 41 41 42 43 44 45 45 44 43 43 42 43 41 41
43 39 41 41 33 26 22 31 45 45 48 48 47 47 47 48 48 49 50 51 51 50 49 48 48 47 46 45 45 44 45 42 41 40 40 41 43 44 44 44 45 43 41 42 41 41 40 39 39
47 42 41 32 30 29 25 33 49 49 49 48 46 49 49 50 50 50 50 50 49 48 48 47 46 44 45 45 44 45 42 41 40 40 41 42 44 45 45 44 44 43 42 41 40 38 39 37 36

GFSSGP_sfc_temp_006.txt.gz
Temp
61 62 61 64 55 49 44 49 54 55 58 60 63 61 56 55 55 50 65 67 65 65 67 68 72 73 74 75 75 75 75 75 75 74 74 74 75 75 74 73 72 73 73 74 75 76 76 75 74
61 66 64 56 47 41 45 54 54 56 60 62 63 61 58 54 61 62 63 66 67 66 67 68 72 73 73 73 74 75 75 75 74 74 74 74 74 74 73 73 72 72 73 74 74 75 75 74 72
63 66 60 50 43 44 45 51 54 58 60 61 59 62 60 56 63 64 66 68 67 65 66 68 71 72 73 73 73 73 73 73 73 73 74 73 74 73 73 72 71 72 72 73 74 75 74 73 71
64 62 57 50 43 48 48 53 58 58 60 63 60 57 62 65 66 67 68 67 64 63 65 68 70 71 72 73 73 73 72 72 72 72 73 73 73 73 72 71 71 72 72 73 73 73 72 70 69
59 56 48 47 46 52 55 57 60 58 58 57 59 54 58 64 66 67 65 66 63 63 64 66 69 71 72 73 73 72 71 71 71 72 72 72 72 71 71 70 70 71 71 71 71 71 70 69 69
58 54 45 42 45 53 56 56 57 58 58 59 58 56 57 65 64 65 67 64 65 64 65 66 70 71 71 71 71 70 70 70 70 71 71 71 70 70 70 70 70 70 70 70 69 69 68 68 68
55 48 42 43 46 50 55 58 56 56 56 55 61 55 57 62 65 66 65 64 64 64 64 64 66 68 69 69 69 69 69 69 69 69 69 69 68 68 68 69 69 69 69 68 68 67 67 67 67
54 52 41 42 47 46 55 57 55 57 54 61 60 54 55 63 66 65 65 64 64 64 64 63 64 64 63 64 68 68 68 68 68 68 68 67 67 67 67 66 68 68 68 67 66 66 66 65 64
53 47 43 44 48 49 53 52 55 59 60 58 59 59 61 67 64 62 61 62 62 64 64 63 63 63 62 62 65 68 69 68 67 67 67 64 61 60 60 65 67 67 66 66 65 65 64 63 62
54 46 46 53 53 49 52 52 56 56 55 55 56 60 62 64 62 62 61 61 62 63 63 63 63 63 62 67 63 62 64 64 64 63 62 61 59 59 61 63 66 66 65 65 64 63 62 59 55
50 51 54 55 55 54 52 54 57 56 50 58 60 59 60 61 61 62 62 62 62 62 63 64 63 63 62 62 61 60 60 61 61 62 61 59 59 57 57 56 57 56 61 55 56 55 54 54 53
55 56 56 56 57 56 53 54 55 54 60 65 63 62 61 61 61 62 61 62 62 62 63 63 62 61 61 61 61 60 60 60 60 60 60 58 56 55 56 55 56 56 55 54 54 54 54 54 55
56 55 59 59 60 57 58 55 56 58 63 61 62 61 61 61 62 60 62 61 60 61 61 61 60 60 59 60 59 59 60 60 60 59 59 58 56 55 55 56 55 55 55 54 54 53 52 52 53
57 57 56 58 59 57 56 55 54 59 57 59 60 59 59 61 62 59 60 61 60 60 61 59 59 59 58 57 57 57 57 58 58 57 58 58 57 55 55 55 55 54 54 53 52 50 50 49 50
58 55 57 58 56 55 56 53 55 57 57 58 57 58 59 60 59 63 62 61 60 61 59 58 58 58 58 57 57 55 56 56 55 55 56 56 57 55 55 54 54 54 53 52 51 50 49 48 50
53 51 47 57 55 56 55 48 60 56 55 59 57 56 58 58 59 60 60 58 57 58 59 58 62 57 57 56 56 55 55 54 54 54 54 55 56 55 53 52 52 53 51 51 50 48 48 48 47
46 41 43 50 55 54 51 49 58 56 56 57 54 54 54 54 56 59 61 60 60 59 58 58 58 57 56 55 55 54 55 53 54 53 53 54 54 54 52 51 51 51 50 49 49 47 48 47 47
40 41 37 41 51 52 47 48 53 55 54 54 49 50 54 54 54 55 55 55 55 55 57 58 57 56 55 54 52 52 51 52 52 52 52 54 54 54 52 51 51 50 49 48 47 47 46 47 47
47 43 41 43 50 50 45 46 50 50 50 50 49 50 52 53 52 52 53 53 54 54 56 57 56 56 54 52 52 51 52 52 52 52 53 53 54 54 53 52 51 50 50 51 48 47 47 46 45
48 43 42 48 50 47 46 47 50 52 50 48 49 50 52 52 53 56 55 53 55 56 56 56 57 56 54 52 52 51 50 51 51 51 52 53 53 54 54 53 53 51 51 48 48 46 45 45 44
45 43 42 45 48 45 45 44 47 52 53 53 53 50 52 53 55 53 54 53 54 55 54 55 55 55 54 54 52 52 50 51 51 54 52 54 53 54 54 55 54 52 51 51 50 48 46 45 43
41 49 47 45 41 38 43 36 45 47 49 50 51 51 50 51 53 55 54 52 52 53 53 54 54 54 56 54 52 50 49 49 52 52 53 55 52 51 53 54 52 52 52 51 48 48 46 44 42
48 49 45 44 40 38 42 37 44 47 46 46 48 51 50 53 52 51 52 54 49 50 50 50 53 54 53 52 51 50 50 49 50 50 48 50 50 48 50 51 51 49 46 46 48 46 44 46 43
53 46 45 42 39 32 37 37 38 42 46 47 49 50 53 51 54 53 51 52 50 50 50 50 52 53 53 51 50 48 46 46 47 49 46 47 46 44 44 45 45 44 43 43 43 45 45 42 44
48 39 29 29 27 28 40 36 41 48 49 50 51 51 51 51 49 50 49 49 50 50 50 51 50 51 51 49 48 47 46 46 45 47 47 45 43 40 39 41 42 42 41 43 44 43 43 43 42
43 40 28 25 21 27 38 34 42 51 51 53 53 50 49 48 49 49 50 48 49 50 49 48 48 49 48 48 48 47 47 46 47 47 45 41 40 39 40 41 42 41 42 42 43 42 42 42 41
43 36 42 31 22 23 32 39 47 48 50 52 48 48 47 48 49 49 51 51 51 52 51 48 47 48 48 46 45 45 45 46 47 46 41 39 39 41 41 41 41 42 43 44 43 41 40 39 39
47 48 35 31 21 22 30 32 36 43 45 46 45 46 47 48 49 51 51 51 52 50 48 48 47 47 47 45 45 46 45 46 46 42 39 39 39 41 41 42 42 43 43 42 42 41 41 40 40
42 37 38 38 32 23 21 30 42 42 44 44 44 46 46 47 48 49 49 49 49 48 48 47 46 46 45 43 43 43 45 45 43 38 38 39 40 41 42 43 43 42 43 42 40 40 40 39 39
43 40 39 27 29 28 25 29 45 46 45 46 44 46 47 48 48 49 48 48 47 47 47 46 45 44 43 43 43 43 41 40 37 38 39 40 42 43 42 44 43 43 41 40 39 38 38 37 36

GFSSGP_sfc_temp_009.txt.gz
Temp
70 71 75 76 69 65 57 61 65 65 64 69 70 69 65 63 62 60 72 74 75 75 76 76 73 74 74 75 75 75 75 75 75 75 74 75 75 74 74 73 73 73 74 75 75 75 76 75 73
72 73 74 69 62 58 58 63 62 64 67 69 69 67 65 61 67 68 72 73 75 75 76 76 72 73 74 74 74 75 75 75 75 74 74 74 74 74 74 73 72 73 74 74 75 75 75 73 72
74 73 73 62 57 56 58 63 64 65 67 69 67 69 67 65 69 72 74 74 74 74 75 76 71 72 73 73 74 74 74 74 74 74 74 74 74 73 73 72 72 72 73 74 74 74 73 71 70
75 74 68 63 56 59 62 65 67 66 68 70 69 64 69 72 72 75 75 75 74 75 75 72 70 71 73 73 73 73 72 72 72 72 73 73 73 73 72 71 71 72 72 73 72 72 71 69 69
71 70 62 58 59 63 65 66 66 66 66 67 68 62 64 71 74 74 74 74 74 74 74 76 69 71 72 73 73 72 71 71 71 72 72 72 72 71 71 71 71 71 71 71 71 70 69 69 69
69 67 59 56 59 64 67 68 68 65 66 65 66 64 65 70 72 73 74 73 75 74 74 75 71 71 71 72 71 71 70 71 71 71 71 71 70 70 70 70 70 70 69 69 69 69 69 68 68
66 61 55 56 58 62 66 68 68 67 66 66 70 63 64 68 73 73 74 75 74 74 75 75 76 74 69 69 70 69 69 70 70 69 69 69 69 68 69 69 69 69 69 68 68 67 67 66 66
66 65 56 57 58 60 67 69 69 69 66 68 70 65 63 72 73 72 73 73 74 74 75 73 74 76 74 75 68 68 68 68 69 69 68 68 67 67 68 67 68 68 67 67 67 66 65 65 64
66 61 56 58 60 63 66 67 69 71 69 69 70 70 72 76 72 71 70 71 71 72 74 74 73 73 73 74 73 70 69 68 68 69 67 68 74 73 71 67 67 67 67 66 66 65 64 63 63
65 60 59 63 64 65 66 68 69 69 67 67 68 69 70 72 71 70 71 71 71 72 73 74 73 73 72 74 74 73 73 75 74 74 72 74 71 71 70 68 66 66 65 64 64 63 62 65 71
64 62 63 64 67 68 66 67 69 68 65 69 71 69 69 70 71 71 73 75 75 76 75 74 73 72 72 73 75 75 75 74 74 71 71 71 71 70 71 70 71 70 66 69 67 68 68 67 67
64 64 66 67 66 67 67 68 67 67 72 73 73 73 71 70 70 71 72 74 74 73 75 74 73 71 71 74 74 74 73 73 73 73 70 70 70 69 68 69 69 68 70 67 67 67 66 66 66
65 66 66 68 66 68 67 67 67 67 73 72 71 69 70 71 72 73 75 75 74 73 74 74 72 71 71 70 72 71 71 72 72 72 71 70 70 69 69 68 68 68 69 68 67 67 66 65 65
67 67 65 67 67 67 66 66 67 70 70 69 68 71 71 71 72 72 71 73 72 73 73 72 71 70 70 70 69 71 70 71 71 71 71 69 69 68 69 68 69 69 68 68 66 65 66 65 64
65 63 64 64 64 66 65 64 65 70 70 68 67 69 70 70 71 72 73 72 73 73 73 70 70 70 69 69 69 70 71 69 70 70 69 68 68 68 67 68 68 69 68 66 65 64 64 64 64
61 60 58 63 64 65 67 60 69 68 68 69 67 66 66 68 69 71 72 71 72 71 71 70 71 70 69 68 70 70 71 69 69 69 69 67 67 67 67 67 67 68 66 66 65 65 64 64 64
56 55 54 58 61 62 64 60 67 67 64 65 65 65 66 67 69 72 70 71 70 71 71 71 70 70 69 68 69 68 67 68 69 68 69 67 67 66 66 67 67 65 66 64 64 64 62 64 64
52 53 54 53 60 61 57 59 62 61 58 60 62 62 64 67 68 66 67 68 69 69 69 71 70 69 67 68 67 68 67 68 67 68 68 66 67 65 65 66 64 65 65 64 63 61 63 63 64
56 53 52 56 58 58 54 56 60 60 60 59 60 62 64 66 64 65 64 64 65 66 68 70 69 67 67 67 67 68 67 67 68 69 67 65 66 65 64 65 65 64 62 63 63 62 59 61 61
56 53 52 55 56 56 56 57 58 60 57 58 60 61 63 64 65 64 65 65 66 67 67 66 65 65 65 67 66 65 64 66 65 65 65 66 64 65 64 63 64 64 63 62 62 60 61 60 61
53 53 51 51 55 55 54 55 56 60 60 61 62 62 64 66 66 66 66 66 64 64 62 64 64 65 64 64 66 66 65 65 66 67 67 66 64 64 63 62 62 62 62 60 62 61 59 60 60
49 55 53 51 50 49 52 48 54 55 58 59 61 62 64 65 66 66 65 63 62 61 62 64 64 65 64 63 62 60 60 60 62 62 63 63 62 62 62 60 60 60 60 59 60 62 60 59 59
53 53 51 51 49 49 50 50 53 55 55 57 60 61 63 62 62 60 60 60 60 60 60 61 63 63 62 61 60 60 59 60 60 60 59 59 60 60 59 58 57 57 58 58 57 57 55 57 57
55 52 50 49 48 42 45 46 49 53 54 56 60 61 60 60 60 60 60 61 61 61 60 61 62 62 62 61 59 58 56 56 57 58 58 59 59 58 55 55 54 53 53 52 53 53 52 52 53
54 48 42 40 39 40 46 45 49 54 55 57 58 58 57 57 58 59 59 60 60 60 60 61 61 61 60 59 58 57 56 56 56 56 56 56 56 55 53 52 52 51 51 51 51 50 48 47 46
49 47 39 32 34 38 44 42 48 54 57 58 56 56 57 57 57 58 58 58 60 60 60 59 60 60 60 58 57 56 56 56 55 55 55 54 52 52 51 51 52 52 51 51 51 49 43 42 41
50 44 48 37 28 34 42 47 52 55 56 55 54 55 55 57 58 58 59 60 59 59 59 57 57 59 59 57 55 55 54 53 53 53 52 51 49 51 51 52 51 51 51 50 48 46 42 41 38
53 52 43 41 31 30 40 40 46 48 51 51 52 53 55 57 59 60 61 60 59 59 58 57 58 57 56 55 54 53 53 52 51 49 48 48 49 50 50 50 51 50 50 50 47 47 46 45 45
49 46 44 44 39 33 29 40 50 50 52 52 52 52 54 56 58 59 59 59 58 57 58 57 57 56 55 53 51 51 50 49 48 47 47 48 49 50 49 50 49 47 45 46 47 47 47 46 46
50 46 45 38 35 36 33 37 53 53 54 53 53 53 55 56 57 58 57 57 57 57 58 56 55 53 51 51 51 49 48 47 46 46 47 48 48 49 49 49 46 44 45 48 46 45 45 45 44

GFSSGP_sfc_temp_012.txt.gz
Temp
78 88 93 89 77 79 69 69 78 73 74 78 79 79 77 76 73 69 86 86 86 86 87 85 73 75 76 75 75 75 76 76 75 75 75 75 75 74 74 74 73 73 75 75 76 76 75 74 73
90 86 88 88 74 68 67 75 73 76 77 80 79 78 77 72 79 79 82 85 86 85 86 85 72 74 75 75 75 75 76 75 75 75 75 75 75 75 74 73 73 73 74 75 75 75 74 72 71
86 87 86 82 78 68 67 75 75 77 78 78 77 80 77 74 80 83 87 85 85 85 86 82 72 73 73 74 74 74 74 74 74 74 75 74 74 74 73 72 72 73 73 74 74 74 72 71 70
88 88 86 75 69 70 74 77 79 76 77 80 81 74 79 82 81 85 85 85 86 86 86 75 72 72 73 73 73 73 73 73 73 73 74 74 73 73 72 72 72 72 72 72 72 72 71 70 70
92 86 76 72 70 73 78 79 79 77 78 78 79 73 74 79 84 85 84 85 85 86 86 85 70 72 73 74 73 73 72 72 72 73 73 73 72 72 71 71 71 71 71 71 71 70 70 69 69
84 86 72 67 67 72 76 79 78 77 79 77 77 76 75 81 82 83 84 85 87 85 84 84 72 72 72 73 72 72 71 71 72 72 72 71 71 71 71 70 70 70 70 70 69 69 68 68 67
81 79 72 70 68 70 74 80 78 78 77 76 80 73 74 79 84 84 86 86 86 86 86 86 86 78 70 70 70 70 70 70 71 70 70 70 69 69 69 69 70 69 69 68 68 68 67 67 66
85 81 70 71 68 69 76 78 80 79 75 80 82 74 72 81 84 85 85 85 85 85 86 85 84 85 84 84 70 70 70 70 70 70 69 68 69 69 68 69 69 68 68 68 67 66 66 65 65
82 73 68 68 70 71 78 77 80 81 79 78 81 81 84 85 82 81 81 82 83 84 84 84 85 84 84 85 80 71 70 70 69 71 69 71 84 81 78 68 67 67 67 66 66 65 64 64 64
82 75 70 74 76 76 77 78 78 77 77 76 78 80 84 82 81 80 80 81 82 82 84 85 83 82 82 85 83 84 83 86 84 82 80 83 79 80 75 71 66 66 66 65 64 64 64 66 81
79 73 75 75 78 81 78 76 80 77 74 79 79 80 81 81 80 81 83 85 85 86 86 85 82 81 81 85 87 88 87 86 85 80 80 81 79 80 80 80 80 79 70 79 76 77 79 75 76
72 76 77 77 77 77 76 79 76 79 80 82 83 85 83 81 81 82 83 86 86 86 86 85 83 81 80 85 86 87 85 85 83 83 78 79 80 79 78 79 79 78 79 76 77 77 74 74 74
75 76 77 77 77 77 76 75 75 77 83 83 83 83 83 83 84 84 86 87 87 85 85 85 83 81 81 79 84 82 81 83 82 81 81 79 79 77 78 78 78 78 78 77 76 77 76 74 74
75 76 75 76 75 75 73 74 76 79 82 81 81 82 84 84 84 85 84 84 84 85 86 85 83 81 82 81 80 81 82 82 82 82 81 78 77 77 78 77 78 78 79 78 77 76 75 75 74
75 71 75 73 74 73 75 72 74 79 80 79 80 83 84 84 86 85 85 84 85 86 86 84 82 82 81 80 80 82 84 81 82 82 79 77 77 77 76 77 77 78 78 75 75 74 74 73 75
73 73 67 71 74 73 76 69 76 78 77 79 78 81 81 83 84 84 83 83 86 86 84 84 82 81 80 81 82 83 84 81 82 81 79 77 76 75 75 76 76 77 76 76 75 75 74 73 73
71 66 64 67 72 72 72 68 77 77 75 77 80 80 80 82 82 81 82 84 85 85 83 82 81 82 81 80 81 80 78 80 82 81 81 78 76 75 74 75 76 75 75 74 74 73 73 72 73
62 63 66 64 70 71 69 69 73 74 71 74 77 78 79 80 80 80 81 81 82 81 80 82 82 79 78 81 79 81 80 80 80 81 80 77 77 74 73 74 73 73 73 73 73 71 73 72 71
66 63 62 67 68 66 65 67 70 72 74 73 74 75 76 77 79 79 77 77 78 77 77 79 77 73 79 80 77 79 77 78 79 79 75 74 75 73 72 73 72 72 71 71 70 70 68 68 71
64 62 62 64 65 64 66 66 69 71 69 72 73 75 75 76 78 76 77 76 75 74 75 75 75 75 76 79 77 75 73 76 75 76 75 75 72 72 72 70 70 70 70 69 68 67 67 68 69
62 60 59 58 64 66 64 64 66 68 70 72 74 75 77 76 75 75 75 74 73 72 73 74 74 74 73 73 77 77 77 76 75 72 73 72 71 71 70 69 69 68 68 68 68 67 66 64 68
58 62 61 59 59 59 64 57 61 65 66 69 71 73 73 74 74 73 72 71 71 70 72 73 73 73 72 71 72 68 70 67 69 69 70 70 70 69 69 68 67 66 67 65 66 68 66 65 63
59 61 60 59 59 59 60 59 60 66 63 66 69 69 71 71 71 70 70 71 71 71 70 72 72 72 71 70 68 69 67 68 69 68 66 67 68 68 68 67 64 64 65 64 63 62 62 63 62
64 60 59 60 60 51 55 56 57 63 60 64 68 68 68 69 70 69 70 71 72 72 70 70 71 70 70 69 67 64 64 64 64 65 64 65 65 66 66 65 62 61 61 60 60 59 56 56 55
65 59 51 46 47 47 55 54 55 60 63 64 64 66 67 68 68 69 69 71 70 69 69 69 70 69 69 67 66 66 65 64 63 62 62 60 62 62 61 61 60 60 59 59 56 50 48 46 43
58 57 48 38 43 48 55 51 56 63 65 65 66 66 67 67 68 68 69 70 69 68 68 68 69 69 69 67 66 66 64 64 62 61 60 59 59 59 59 59 59 58 58 57 55 50 48 43 41
57 53 56 45 36 42 55 55 60 63 63 64 64 64 65 66 66 67 69 69 68 67 67 66 67 68 68 65 64 62 62 60 58 58 58 58 58 59 57 57 56 56 55 54 52 48 46 47 46
60 60 51 52 36 36 51 52 56 57 59 60 61 63 65 66 67 68 69 68 68 68 67 66 66 66 65 64 62 61 59 59 57 56 55 55 56 56 54 54 55 54 51 48 46 47 49 47 46
57 55 53 54 49 40 38 49 61 59 60 60 61 63 63 64 66 66 67 67 67 66 67 66 65 64 63 62 60 59 57 56 56 55 55 55 55 55 55 54 52 48 44 43 44 47 49 49 49
58 54 54 46 40 45 41 45 62 62 62 61 62 61 63 64 66 66 66 65 65 65 64 64 62 61 61 60 59 57 55 56 55 54 53 53 52 54 53 49 46 43 43 47 45 46 48 48 47

GFSSGP_sfc_temp_015.txt.gz
Temp
80 90 97 93 78 80 73 75 84 78 79 85 86 85 82 82 77 67 91 92 92 91 89 85 74 75 76 76 76 76 76 76 76 75 75 75 75 75 74 74 73 74 75 76 76 76 75 74 73
96 95 93 88 75 72 73 80 78 82 84 87 86 86 83 77 85 85 87 91 92 92 92 84 73 74 75 75 75 76 76 76 75 75 75 75 75 74 74 73 73 74 75 75 75 75 74 72 71
88 93 82 81 78 74 71 80 80 83 85 85 82 88 84 79 87 88 91 91 91 91 89 80 72 73 74 74 74 75 75 75 75 75 75 75 75 74 73 73 73 73 74 74 74 73 72 71 70
90 89 87 76 73 78 78 80 83 81 84 86 87 78 83 91 87 90 91 92 91 91 88 75 72 73 74 74 74 74 73 73 73 74 74 74 74 73 73 72 72 73 73 73 73 72 71 70 70
92 90 79 76 74 78 83 84 85 82 83 83 85 78 78 86 91 91 91 92 90 91 89 84 72 73 74 74 74 73 73 73 73 73 73 73 73 72 72 71 71 71 71 71 71 70 70 69 69
86 89 76 70 72 77 81 84 83 83 83 83 82 81 80 88 88 89 91 91 92 89 88 85 73 73 73 73 73 72 72 72 72 72 72 72 71 71 71 71 71 71 70 70 69 69 68 68 68
81 82 76 73 71 74 78 85 82 82 82 80 86 77 81 85 88 89 90 91 91 90 90 89 87 78 71 71 71 71 71 71 71 71 71 70 70 70 70 70 70 70 69 69 68 68 67 67 67
88 87 74 75 71 71 80 82 85 83 80 88 89 77 75 84 87 89 89 89 90 90 90 89 89 90 87 81 70 71 71 71 70 70 70 69 70 70 70 71 69 69 68 68 67 67 66 66 66
91 78 72 73 73 75 82 80 84 87 82 83 85 86 87 87 87 87 86 87 88 89 88 89 89 88 87 88 79 71 70 71 70 71 70 72 82 83 80 68 68 68 68 67 66 66 66 67 66
83 78 75 80 81 79 81 82 81 80 80 80 82 86 88 86 85 83 84 84 85 86 88 89 87 86 86 89 86 86 86 87 85 85 83 85 82 82 79 72 69 69 68 68 67 67 67 66 80
83 76 79 79 82 84 82 80 84 81 77 81 81 83 85 84 84 84 86 87 87 88 89 89 85 85 85 86 88 90 90 87 87 84 82 82 82 82 82 82 82 80 72 80 75 77 79 78 77
76 81 82 82 82 82 80 84 80 82 83 87 88 87 86 84 84 85 86 88 88 89 89 89 87 84 84 88 89 88 88 87 86 84 82 81 81 80 80 81 81 80 81 78 79 79 78 76 76
78 79 82 82 81 82 82 79 79 80 86 87 88 87 85 86 86 88 89 90 90 89 89 89 87 84 85 84 86 85 84 86 83 84 83 82 80 78 80 79 80 80 80 80 78 78 78 77 76
82 81 80 81 80 80 77 78 80 82 87 86 86 86 87 87 88 88 88 88 89 89 89 89 88 85 86 84 83 83 84 84 84 85 82 80 79 78 78 78 79 79 80 80 78 77 76 76 77
81 75 78 79 80 78 81 75 77 84 86 84 85 87 88 88 90 88 88 87 89 90 91 89 87 87 84 84 84 85 86 84 85 84 82 80 79 78 77 78 78 79 79 78 78 77 77 76 77
77 77 70 77 79 79 79 71 80 84 83 83 85 86 86 88 88 90 90 90 90 90 89 90 88 86 84 85 85 86 87 84 84 84 83 80 79 78 76 77 77 78 77 77 77 76 75 75 75
75 69 69 70 79 77 77 74 81 84 82 82 84 85 86 87 88 89 88 88 89 90 88 87 86 84 84 84 85 83 82 82 84 83 83 81 79 78 76 76 76 76 75 75 75 75 74 73 73
68 68 71 69 75 76 75 75 79 81 79 80 84 85 85 85 86 86 86 87 87 86 85 86 85 84 82 84 82 83 82 82 83 82 82 79 78 76 75 75 74 74 74 74 74 72 73 73 72
71 69 68 73 74 70 71 73 75 78 80 78 80 81 82 83 85 84 82 83 83 82 83 84 81 78 82 83 79 80 78 80 81 82 79 77 77 75 73 74 73 73 72 71 71 71 69 69 72
69 67 67 70 71 70 72 72 74 76 75 79 79 79 80 79 80 80 79 79 78 79 80 80 79 78 79 81 79 77 75 78 78 79 77 77 75 73 72 71 71 71 70 69 69 68 67 69 70
68 66 64 64 70 73 70 69 70 73 76 78 79 80 80 78 77 78 77 77 77 76 77 78 78 77 76 76 80 78 78 78 77 77 75 75 73 72 71 70 69 68 68 68 68 67 66 65 68
63 68 65 65 64 62 72 61 68 71 71 73 75 76 77 77 78 77 77 75 74 74 76 77 76 77 76 74 74 71 72 70 72 72 73 72 71 71 71 70 68 67 65 64 65 68 65 64 62
64 67 66 66 64 65 66 63 63 71 67 69 72 73 74 75 75 74 75 75 75 75 74 75 76 75 75 74 71 69 68 69 71 70 69 68 69 69 69 68 66 64 64 63 62 61 61 61 59
70 66 66 66 65 53 62 62 62 66 67 68 71 71 72 74 74 74 75 76 75 75 74 74 74 75 74 72 71 68 66 67 66 66 65 66 65 66 66 65 63 62 62 61 61 56 55 53 52
70 64 53 49 50 50 62 59 60 66 69 70 69 71 71 73 73 73 74 75 73 73 73 73 74 73 74 72 70 69 68 66 65 64 63 60 61 61 62 61 61 61 61 57 54 51 50 48 46
63 62 50 41 45 52 61 55 61 69 70 71 71 71 71 71 71 72 72 73 73 73 73 71 71 72 73 71 69 69 67 65 64 62 59 59 59 59 60 60 60 56 55 52 49 46 44 44 46
62 57 62 50 46 46 58 62 66 69 67 69 68 69 69 71 71 71 73 73 72 72 72 70 69 70 71 69 68 65 64 62 60 59 58 58 58 59 59 56 53 53 50 50 51 49 47 48 47
64 66 54 56 39 39 54 57 57 60 64 65 67 68 69 71 71 71 72 71 71 71 70 70 69 69 67 65 66 64 62 61 59 58 57 57 57 58 57 55 53 50 50 49 48 47 48 47 47
62 60 58 59 52 42 41 51 65 64 65 64 66 68 69 69 70 71 71 70 71 71 70 69 68 67 66 65 64 62 61 59 59 58 57 54 54 54 53 53 51 48 47 47 46 44 45 44 46
63 60 59 48 45 49 45 47 67 66 67 66 67 69 68 69 69 68 67 66 67 67 68 67 66 65 64 63 62 61 60 60 58 56 52 53 51 53 53 50 46 48 48 47 44 45 46 46 45

GFSSGP_sfc_temp_018.txt.gz
Temp
74 86 88 86 70 72 68 75 82 77 77 85 86 83 76 77 72 62 87 89 86 82 82 79 74 75 76 76 76 76 76 76 76 75 75 75 75 74 74 74 74 75 76 76 76 76 74 74 73
84 86 88 80 66 64 70 79 76 79 82 86 86 85 78 72 81 81 83 89 90 85 82 78 73 74 74 75 75 75 76 75 75 75 75 75 75 74 74 74 74 74 75 75 75 74 74 72 71
79 87 76 72 69 65 68 78 77 81 86 85 81 84 81 77 84 83 87 89 89 82 79 75 72 73 74 74 74 74 74 74 74 75 75 75 74 74 73 73 73 73 74 74 74 73 72 71 70
82 82 79 68 67 75 76 78 81 80 83 87 84 74 83 88 83 86 89 90 87 81 77 72 71 72 73 74 74 74 73 73 73 74 74 74 74 73 72 72 72 72 73 72 72 71 70 69 69
84 80 68 69 72 77 81 83 83 80 81 83 85 74 75 84 88 89 89 89 85 81 78 75 71 72 73 74 73 73 72 72 73 73 73 73 73 72 72 71 71 71 71 71 70 70 69 69 68
74 77 66 66 70 76 80 84 84 80 83 82 81 76 76 86 86 87 89 88 88 83 78 77 72 72 72 72 72 72 72 72 72 72 72 72 72 71 71 71 71 70 70 70 69 69 68 68 68
71 69 65 71 70 72 77 85 81 81 81 81 85 73 78 83 86 88 88 87 86 85 83 79 75 73 71 71 71 70 71 71 71 71 70 70 70 70 71 70 70 70 69 69 68 68 68 68 67
79 75 68 73 69 69 79 82 85 83 78 88 87 73 72 81 86 87 86 86 86 85 85 81 78 77 74 70 70 70 70 70 70 70 70 70 70 70 70 70 70 69 69 68 68 68 68 68 68
88 73 70 71 72 73 81 78 84 87 81 84 85 83 83 85 86 83 82 83 83 85 82 81 83 80 79 75 73 70 71 70 70 70 70 69 72 71 70 69 69 69 69 68 68 68 67 66 66
80 72 73 80 80 77 80 81 80 79 78 78 80 84 84 84 82 80 80 79 80 80 82 82 79 78 79 86 74 74 77 74 74 76 74 75 74 74 76 71 68 68 68 68 67 67 66 66 66
81 72 78 79 80 83 80 79 83 79 74 79 77 79 81 81 81 80 81 82 82 83 83 82 79 79 79 78 77 78 78 76 76 76 74 74 74 72 71 69 68 65 66 67 66 66 64 69 67
76 80 81 80 82 82 79 82 79 81 80 86 85 84 82 80 80 81 82 84 83 83 83 82 80 78 78 78 77 76 77 75 75 74 74 72 70 70 69 69 69 68 68 68 68 67 68 68 69
77 79 81 82 81 81 82 78 79 79 84 87 87 85 82 82 82 83 85 86 84 82 82 82 80 78 77 76 75 75 74 74 74 74 73 72 70 68 69 68 68 68 68 67 67 67 67 67 68
81 80 79 81 80 80 77 78 79 82 85 84 84 83 83 83 84 84 84 84 83 84 83 81 81 79 79 77 75 74 74 74 74 73 72 73 70 68 68 67 68 67 68 67 66 66 65 65 66
82 74 77 78 79 77 80 73 74 83 85 82 82 83 84 85 86 84 84 84 85 84 85 74 68 79 77 77 76 75 75 75 73 73 73 73 72 69 68 66 66 67 67 67 66 66 65 64 67
75 76 67 76 79 79 77 67 79 83 82 80 82 83 84 85 86 86 86 85 86 86 79 82 84 79 76 76 75 76 75 73 73 73 72 72 72 71 67 66 65 66 66 65 64 63 63 63 63
72 64 68 70 80 78 76 70 79 83 82 80 82 83 83 84 85 86 86 85 85 85 83 83 80 79 77 76 76 74 74 72 73 71 71 70 71 70 66 65 64 65 64 63 63 63 62 61 61
62 67 70 69 74 75 73 73 79 81 80 79 80 82 82 82 84 85 82 81 82 80 81 81 77 74 73 75 74 73 72 72 72 71 70 70 69 68 65 64 63 64 62 61 61 60 61 60 60
72 69 68 72 74 70 70 72 76 78 79 78 79 80 81 76 78 79 78 77 78 78 77 77 72 72 73 72 69 68 67 68 70 70 70 69 69 67 64 62 62 61 60 59 60 59 58 59 59
71 67 67 72 73 69 70 70 74 75 76 78 78 78 76 75 75 75 74 73 72 73 74 74 74 72 72 72 70 69 67 69 69 69 69 69 66 65 66 62 61 60 58 57 57 56 57 57 57
70 65 64 63 70 72 69 66 68 73 76 77 78 78 77 74 73 74 73 71 70 70 70 73 72 71 69 68 71 69 68 68 67 66 66 67 65 65 63 61 59 58 58 55 54 56 55 54 55
62 68 66 65 63 57 70 54 65 68 69 72 73 73 73 74 75 74 72 70 69 68 70 72 72 72 71 68 66 63 63 62 63 63 64 64 63 62 62 61 58 56 56 54 54 58 53 52 50
64 68 66 65 62 62 64 59 63 69 65 67 70 71 72 72 72 72 71 72 71 69 68 69 71 72 70 68 66 62 61 61 62 61 60 59 59 59 60 59 56 55 55 54 53 51 50 49 47
71 67 67 66 62 50 61 60 55 63 65 68 70 71 72 72 72 72 73 73 71 70 69 69 70 71 71 68 66 63 61 59 58 58 57 56 56 56 56 57 55 54 53 51 50 48 48 46 46
69 63 49 44 47 45 62 58 58 66 69 70 68 69 70 71 70 71 72 72 71 69 69 69 69 68 69 67 65 63 60 59 57 56 54 53 53 53 53 54 53 52 50 49 48 45 43 43 43
64 61 47 39 39 46 62 54 56 68 70 71 71 70 70 70 70 70 70 70 70 69 68 68 67 67 67 64 63 62 61 58 56 54 53 51 51 52 53 52 52 48 48 49 48 46 44 42 42
61 55 63 51 44 42 54 59 64 67 66 68 68 69 69 70 71 70 71 69 68 67 66 65 65 66 65 63 61 59 57 56 54 53 52 51 51 54 52 52 49 48 47 48 47 45 44 45 43
65 67 52 52 38 38 50 54 51 59 62 65 67 67 68 70 70 69 70 68 68 67 65 64 64 64 63 61 59 58 57 56 54 53 51 50 50 51 50 50 48 47 47 46 44 43 43 43 43
61 59 59 58 51 40 38 48 63 62 65 63 65 68 67 67 68 68 67 67 66 65 63 63 63 63 61 60 58 56 55 55 54 52 50 49 49 49 49 50 47 46 44 45 44 43 42 43 42
64 60 59 44 44 46 43 45 67 66 67 66 65 66 67 67 65 65 65 65 64 63 63 63 62 60 59 59 57 56 56 55 53 50 49 49 48 49 49 49 49 47 45 44 43 42 42 41 41

GFSSGP_sfc_temp_021.txt.gz
Temp
70 75 73 72 60 58 55 65 71 69 70 77 76 71 67 69 64 54 75 76 74 73 75 75 73 74 75 75 75 75 75 75 75 75 74 74 74 74 74 74 74 75 75 76 76 75 74 73 72
72 79 74 68 56 50 56 70 66 71 75 78 76 73 68 64 74 73 72 77 77 75 74 74 73 74 74 74 74 74 75 75 75 75 75 74 74 74 74 73 73 74 74 74 74 74 73 72 71
75 78 66 60 56 52 56 68 70 73 79 77 72 75 72 67 75 74 78 76 74 71 72 73 72 72 73 73 73 73 74 74 74 74 74 74 74 74 73 72 72 73 74 74 73 72 71 70 69
74 72 68 57 55 64 67 70 74 75 78 77 75 66 74 79 75 78 77 75 70 67 68 70 70 72 73 73 73 73 72 72 72 73 74 74 73 73 72 72 72 72 72 72 72 71 70 69 68
71 66 57 54 61 66 72 74 75 71 73 72 73 66 67 76 80 78 75 75 69 66 68 70 70 71 72 73 73 72 72 72 72 72 72 73 72 72 71 71 71 71 71 71 70 70 69 68 68
64 65 54 50 62 69 72 75 75 72 76 73 70 68 67 75 76 77 77 74 73 68 68 70 71 71 71 72 71 71 71 71 71 71 71 72 71 71 71 70 70 70 70 69 69 69 68 68 68
61 58 54 55 62 66 72 77 73 72 72 71 74 64 68 72 75 75 75 75 73 71 67 67 69 71 70 69 69 69 70 70 70 70 70 70 70 70 70 70 70 70 69 69 68 68 68 68 68
67 63 56 58 62 60 73 74 72 73 68 77 75 63 62 71 75 75 75 74 73 72 71 67 67 68 66 66 68 69 69 69 69 70 69 69 69 69 70 69 70 70 69 69 69 68 68 67 67
72 57 57 62 62 62 68 68 72 75 74 74 74 73 73 75 75 73 71 70 72 75 73 70 69 68 67 66 69 69 69 69 69 69 69 67 66 67 68 67 68 69 69 68 68 68 67 66 66
66 57 60 67 68 65 66 68 70 70 69 68 70 75 76 75 72 71 70 70 71 72 72 73 72 69 69 76 68 66 69 67 67 68 67 66 65 65 69 67 68 69 68 68 67 67 67 66 62
64 60 66 69 70 71 66 69 71 67 62 69 66 70 72 72 71 71 72 73 72 74 74 72 72 72 72 71 66 66 66 66 66 68 68 68 67 65 64 62 63 61 65 62 65 63 62 62 61
64 70 72 70 72 70 69 71 69 65 68 75 74 74 72 71 71 72 72 73 72 72 74 73 72 72 70 69 68 68 68 67 67 67 68 65 63 63 63 63 63 62 61 60 61 60 63 62 64
67 68 72 72 72 70 74 69 70 68 74 76 76 76 73 73 72 74 74 79 73 74 74 74 72 70 72 70 67 68 66 67 67 66 67 65 64 63 63 62 63 62 62 62 61 61 63 63 64
70 71 69 69 69 70 68 68 66 67 75 74 75 72 73 74 74 73 74 74 77 75 74 72 67 69 71 69 69 67 66 67 66 65 66 67 64 62 62 61 62 62 62 61 61 61 60 60 61
72 65 67 67 69 66 68 60 65 70 74 73 72 73 73 75 75 74 75 76 77 72 72 66 65 63 68 67 69 67 66 68 65 65 66 66 66 64 63 61 60 61 61 61 61 60 60 59 62
65 62 55 65 69 69 66 54 66 72 71 68 71 72 73 73 75 75 75 74 75 72 73 71 71 63 64 64 67 67 66 65 65 64 64 65 66 64 61 60 59 60 60 60 59 58 58 57 57
57 50 56 61 70 67 62 58 66 70 71 68 66 68 70 71 72 72 72 71 71 71 70 68 67 65 64 64 66 64 66 66 65 64 63 65 64 63 60 59 58 58 58 57 57 57 55 55 57
52 55 54 56 59 63 58 57 63 66 69 67 64 66 65 67 67 70 69 70 70 68 68 68 66 63 64 64 65 63 63 63 63 62 63 64 62 62 59 59 57 57 56 55 54 53 55 53 54
62 59 56 56 65 61 59 59 61 64 64 62 63 64 64 65 66 68 67 66 65 67 68 65 63 62 63 62 60 60 59 61 62 63 64 63 62 61 59 57 56 55 54 53 53 52 51 54 53
63 59 55 60 66 60 55 57 59 65 63 65 64 63 63 63 65 66 64 61 61 62 63 64 64 63 63 61 60 60 58 60 60 60 61 61 59 59 60 55 54 54 52 52 51 50 50 49 50
59 55 55 55 61 58 56 52 57 64 66 68 66 66 65 63 62 64 64 59 59 60 61 64 63 63 61 61 60 59 59 58 58 58 59 58 57 58 56 54 52 51 51 50 49 49 48 45 47
54 62 60 59 53 45 55 41 51 59 60 63 63 60 61 62 64 64 61 59 59 58 60 62 63 63 62 61 58 57 54 54 55 54 54 55 55 55 56 54 52 50 50 48 48 50 46 45 42
57 61 58 57 51 48 52 45 49 58 56 58 59 61 60 60 61 60 60 61 60 60 60 61 63 62 61 60 59 55 54 54 54 52 52 51 52 53 54 54 50 48 48 46 45 45 47 47 45
65 59 58 56 51 36 50 48 48 52 58 58 60 61 62 60 60 62 62 62 60 60 59 59 61 61 60 61 58 54 53 53 50 49 48 48 49 49 50 50 48 47 45 45 45 46 45 44 44
59 51 35 34 32 33 52 50 47 56 61 61 59 57 58 59 58 59 60 63 62 58 58 60 59 60 59 58 56 54 52 50 48 47 46 46 46 46 46 47 45 44 45 44 43 43 44 43 41
55 52 33 31 29 34 52 44 47 59 62 63 63 60 61 60 61 60 61 60 59 59 58 58 59 60 58 57 54 53 52 49 48 48 47 46 45 45 46 45 45 46 46 44 43 42 42 41 39
55 45 54 41 35 30 43 50 57 60 62 63 61 61 58 60 61 62 59 58 57 57 57 56 57 57 58 54 53 52 52 50 49 48 46 44 44 49 45 44 44 47 46 44 43 41 39 39 38
57 59 42 38 30 30 40 43 42 52 55 58 60 59 60 60 59 57 57 57 57 56 56 56 57 56 54 53 53 51 50 50 48 45 44 44 44 45 44 44 44 43 43 42 41 39 40 39 38
52 49 50 49 38 29 26 36 52 52 55 55 57 58 56 55 54 55 56 56 56 56 56 55 54 53 52 52 51 50 49 49 46 45 45 45 44 44 45 44 43 43 41 41 40 39 40 39 38
56 52 51 32 36 32 30 35 55 53 57 56 56 56 55 56 55 54 55 55 54 54 54 54 52 52 51 52 51 50 49 48 46 45 45 45 43 44 44 44 42 42 41 40 39 38 37 36 35

GFSSGP_sfc_temp_024.txt.gz
Temp
69 73 72 71 60 57 52 59 70 64 63 70 73 67 63 63 62 53 69 72 72 71 73 74 73 74 74 74 74 74 75 75 75 74 74 74 74 74 74 74 74 74 75 75 75 74 74 73 72
72 78 72 65 54 50 52 64 65 68 70 73 72 71 67 60 67 65 67 73 73 73 73 73 72 73 74 74 74 74 75 75 74 74 74 74 74 73 73 73 73 74 74 74 74 74 72 71 70
74 76 65 58 52 47 52 63 69 71 75 74 68 71 70 64 68 68 72 73 72 70 72 72 71 72 73 73 73 73 74 73 73 74 74 74 74 73 72 72 72 73 73 73 73 72 71 69 69
73 69 66 56 51 58 63 66 71 71 72 73 70 64 71 74 72 72 73 71 69 68 69 70 70 71 72 73 73 73 72 72 72 73 74 74 73 72 72 71 71 72 72 72 71 70 70 68 68
70 64 56 53 57 66 70 71 74 68 68 68 70 64 65 70 74 72 70 70 67 65 67 69 69 71 72 73 73 72 72 71 72 72 72 73 72 72 71 71 71 71 71 70 70 70 69 68 68
64 63 52 49 58 68 72 71 72 67 67 69 67 66 64 72 70 70 70 67 68 65 66 69 71 71 71 71 71 70 70 71 71 71 71 72 71 71 71 70 70 70 70 70 70 69 69 68 68
61 57 53 53 59 65 70 72 68 67 67 66 70 63 65 68 71 71 68 66 66 66 65 65 67 70 69 69 69 69 70 70 70 70 70 70 70 70 70 70 70 70 70 70 69 69 68 68 68
65 60 52 56 59 61 72 70 70 70 64 75 75 61 62 68 72 71 69 67 65 65 66 63 65 66 65 65 68 68 69 69 69 70 69 69 69 69 69 69 70 70 70 69 69 68 68 68 67
70 56 51 56 60 65 69 68 71 69 69 68 69 69 73 71 71 68 65 64 65 67 66 64 65 65 65 65 68 68 69 69 68 69 69 66 65 65 67 67 68 69 69 69 69 68 67 66 66
63 53 56 65 68 63 67 69 69 65 63 62 65 70 72 72 71 68 67 66 67 66 66 67 65 65 65 73 66 65 68 66 66 66 65 64 63 63 67 66 68 68 68 68 68 67 66 65 60
61 59 64 68 67 69 66 67 68 63 58 65 65 66 69 70 69 69 69 70 70 70 70 68 67 66 66 68 64 63 64 63 64 65 64 63 64 63 63 61 62 60 64 61 62 62 61 60 59
60 65 68 65 66 66 66 68 67 62 65 71 72 72 68 67 68 69 69 69 68 70 71 70 68 67 66 66 64 64 65 64 64 65 65 62 61 60 60 59 59 59 59 59 58 58 60 60 61
64 64 68 67 69 64 68 66 66 62 68 72 72 72 70 71 70 72 72 72 69 72 71 67 67 66 67 66 65 65 65 64 64 64 65 63 61 60 60 60 60 59 59 58 58 59 60 59 60
67 67 66 67 65 66 65 63 66 63 69 70 71 70 70 71 72 72 69 71 70 73 67 65 67 67 68 67 67 65 64 64 63 63 63 64 62 60 60 59 59 59 58 58 58 57 57 57 58
67 62 64 62 63 62 66 58 59 67 70 68 69 70 70 72 72 72 72 70 74 72 69 68 66 66 66 66 66 65 65 64 63 62 62 63 62 60 59 58 58 57 57 57 57 56 56 56 59
63 59 53 61 64 64 63 53 63 66 67 66 67 68 70 70 71 71 69 68 70 70 69 69 70 64 63 64 63 64 64 61 62 62 61 63 62 61 58 57 56 56 56 56 55 54 54 53 53
55 48 51 56 65 63 59 55 62 66 67 65 64 62 62 63 64 65 65 64 64 67 66 62 63 61 62 62 62 61 61 61 60 60 60 61 62 60 57 56 55 55 54 53 53 53 51 50 52
49 50 45 54 57 57 55 56 60 61 63 61 58 59 60 60 60 65 64 66 65 64 63 62 61 61 62 60 60 59 59 59 59 59 59 59 58 58 55 56 53 54 53 52 51 50 50 49 49
61 54 52 51 59 59 56 53 56 59 59 57 58 57 58 59 61 62 61 61 62 64 62 59 59 58 59 57 56 57 56 57 58 59 59 59 59 58 56 53 52 51 50 49 50 49 48 50 48
58 54 52 57 63 57 54 52 57 58 56 58 58 57 58 59 60 61 58 56 56 58 58 59 59 59 59 58 56 57 56 56 56 57 57 57 57 56 57 51 50 49 49 48 47 47 45 46 45
54 52 50 52 55 54 54 50 52 58 60 61 59 59 60 58 58 59 59 55 54 55 56 59 59 59 58 58 57 56 55 54 54 52 52 55 55 54 52 50 48 47 47 45 44 45 44 43 44
49 58 57 54 49 44 52 38 50 53 54 56 57 55 56 60 59 59 58 56 57 56 57 59 59 59 59 58 57 55 52 51 50 49 49 50 51 51 52 49 47 46 45 44 44 47 46 47 43
54 58 55 53 47 45 48 41 46 54 51 53 53 55 56 56 58 57 58 58 57 58 57 57 59 59 58 56 54 52 51 50 49 48 48 49 49 50 50 49 46 45 44 43 42 41 41 41 40
60 56 53 51 47 35 47 43 43 46 51 55 57 56 56 55 55 57 57 58 57 55 55 55 56 56 56 55 53 51 50 48 47 47 46 46 46 45 46 47 44 43 42 41 41 40 40 39 39
56 47 34 33 31 32 49 44 43 52 57 57 54 53 54 55 55 55 56 56 56 54 54 56 56 55 55 53 52 50 49 48 47 46 45 44 43 43 43 43 43 42 43 43 45 42 41 39 38
51 48 32 31 29 33 48 39 44 55 59 58 58 57 58 57 56 55 55 54 54 55 54 54 55 54 53 52 51 50 49 47 47 47 45 43 42 43 44 43 43 43 44 44 42 39 38 38 36
51 44 51 38 33 29 39 45 53 57 57 59 60 62 55 54 53 53 54 53 53 53 54 54 56 53 53 54 50 49 48 48 46 45 43 42 43 46 44 42 42 42 43 41 40 38 37 37 37
54 55 41 36 29 29 37 39 40 48 51 55 54 52 52 54 55 53 53 54 54 55 52 52 53 52 51 50 49 50 48 47 45 43 43 43 43 43 42 43 42 41 41 40 39 37 38 37 36
49 46 46 44 35 29 25 34 48 50 52 51 50 51 52 52 52 53 53 54 54 52 52 50 50 50 50 50 49 48 47 47 44 43 43 43 43 43 43 43 41 40 39 39 37 36 36 35 34
52 49 46 31 36 30 28 33 52 51 52 53 52 53 53 54 54 51 52 51 50 50 50 50 50 50 50 49 49 48 47 46 43 43 43 42 42 43 45 43 41 41 39 38 36 35 35 34 33

GFSSGP_sfc_temp_027.txt.gz
Temp
69 71 71 71 60 54 48 56 66 62 60 66 68 65 61 60 59 53 67 70 71 70 72 73 72 73 74 74 74 74 75 75 74 74 74 73 73 73 73 73 73 74 75 75 74 74 73 72 71
71 75 71 64 54 48 52 62 62 64 68 71 70 66 64 59 66 65 67 72 72 71 71 72 72 73 73 73 74 74 75 74 74 74 73 73 73 73 73 72 73 73 74 74 74 73 72 71 70
70 74 66 57 48 48 52 62 62 68 71 71 68 70 68 61 66 67 70 72 72 69 71 71 71 72 73 73 73 73 73 73 73 73 73 73 73 73 72 72 72 73 73 73 73 72 71 70 69
69 67 64 55 47 56 60 62 67 67 70 72 69 64 70 69 68 69 71 73 72 70 70 69 70 71 72 73 73 73 72 72 72 73 73 73 73 72 72 71 71 72 72 72 72 71 70 69 68
66 62 55 51 54 60 65 68 69 65 66 68 69 63 63 67 70 69 70 71 69 69 68 69 69 71 72 73 73 72 71 71 71 72 72 72 72 72 71 71 71 71 71 71 71 70 70 69 68
60 58 50 49 57 62 66 69 68 66 67 68 66 63 60 67 66 67 69 68 68 67 66 68 70 70 71 72 71 70 70 70 71 71 71 72 72 71 71 71 70 70 70 70 70 70 69 68 68
59 56 52 53 53 60 65 70 66 66 65 65 69 57 60 63 66 67 66 65 66 65 64 65 66 69 69 69 69 69 69 70 70 70 70 70 70 70 70 70 70 70 70 70 70 69 68 68 68
62 60 53 55 55 56 69 69 69 67 63 72 70 58 55 63 66 65 65 63 62 63 63 63 64 64 64 64 68 68 69 69 69 69 69 69 69 69 69 69 69 70 70 70 69 69 68 67 67
60 54 51 55 59 61 70 66 67 68 66 66 66 64 69 67 66 63 60 60 61 64 62 62 62 63 63 63 67 68 69 68 68 68 69 66 64 64 65 67 68 69 69 69 69 68 67 66 65
60 51 56 64 66 63 64 66 66 64 61 60 61 66 68 66 65 63 62 61 62 63 63 62 62 63 63 70 65 64 66 65 65 65 64 63 62 62 65 65 67 68 67 67 67 67 66 64 59
61 57 62 64 67 68 65 63 64 62 56 62 62 63 65 65 65 65 65 66 65 66 66 65 64 63 63 66 63 62 63 63 63 64 63 62 63 61 61 60 59 59 63 59 61 60 59 59 58
59 63 66 65 66 65 63 66 63 58 64 68 68 67 66 65 66 66 66 66 65 65 67 66 64 64 63 63 63 62 62 64 63 63 63 60 59 58 58 58 58 57 57 57 57 56 58 58 58
61 62 64 65 67 63 67 63 64 61 64 69 69 68 67 67 66 68 70 69 67 66 68 66 64 64 64 63 62 63 63 64 64 63 63 61 59 58 58 58 57 57 57 56 56 56 56 56 57
66 62 62 64 64 63 64 61 61 59 64 66 68 67 67 68 68 68 66 68 67 69 68 65 64 63 64 63 63 63 62 63 62 62 62 62 60 58 58 57 57 56 56 55 55 54 54 54 55
64 59 61 60 59 60 64 57 56 61 65 65 67 68 67 69 68 67 67 67 70 70 71 64 64 63 63 63 62 61 62 62 61 61 61 61 60 58 56 55 55 54 54 54 54 54 53 52 54
57 56 50 57 61 60 60 52 58 61 63 63 64 64 64 64 63 63 65 66 70 69 65 63 66 63 61 61 60 60 60 59 59 59 58 58 58 57 54 53 52 53 53 52 52 51 50 50 49
52 45 48 54 60 59 57 53 58 60 64 61 58 58 58 58 59 59 60 60 64 65 62 61 60 61 60 59 58 58 57 58 57 57 57 56 56 55 53 51 51 51 51 50 50 50 48 48 50
47 47 41 50 55 56 51 56 56 58 59 55 51 54 55 55 56 59 60 60 60 59 60 59 61 61 59 56 57 58 59 58 57 55 56 55 55 54 53 53 53 52 51 50 49 47 48 47 46
54 49 48 49 55 55 52 52 51 51 52 50 51 53 54 55 56 57 59 60 59 57 58 58 58 57 57 55 55 55 52 53 53 55 54 53 56 55 51 50 49 48 47 46 46 45 45 45 45
55 51 48 52 58 55 50 47 51 52 50 51 53 53 54 54 56 57 56 55 55 56 57 58 58 59 57 57 55 55 53 52 52 51 52 54 53 52 51 47 47 46 46 45 44 43 43 43 43
51 49 48 50 53 54 50 46 47 53 55 56 54 55 56 55 54 55 55 54 53 55 56 58 57 58 57 57 55 54 54 52 50 49 48 50 50 50 49 47 46 45 44 43 42 42 41 40 42
47 54 54 52 48 42 49 35 45 49 50 52 52 51 53 55 55 56 54 53 53 54 55 56 57 57 57 56 55 54 52 49 48 47 47 48 49 48 48 47 46 44 43 42 42 43 40 40 37
52 55 52 51 44 42 45 38 41 49 45 48 49 52 53 56 57 54 55 56 56 55 53 54 55 55 55 54 53 51 50 49 48 47 47 48 47 47 47 46 44 43 42 41 41 40 39 39 39
57 53 50 46 44 34 43 40 39 43 47 49 51 54 56 55 56 55 55 56 55 54 52 52 53 53 53 53 52 51 48 47 46 45 45 44 44 44 44 45 43 42 41 41 40 39 39 38 37
53 45 33 32 30 31 45 41 41 49 52 53 51 51 52 52 52 53 56 56 56 53 51 52 53 53 52 51 50 49 48 47 46 46 44 43 42 42 42 43 41 41 41 41 40 39 38 37 36
48 46 32 33 28 32 45 36 42 50 54 55 55 54 53 52 54 54 52 52 52 53 52 52 52 52 51 50 49 48 48 47 46 46 43 42 42 42 43 42 42 42 42 41 40 38 37 36 35
48 41 48 35 31 29 36 42 50 50 52 53 53 55 52 50 49 50 51 51 51 52 52 51 51 50 50 49 48 47 47 46 45 44 43 41 41 44 42 41 41 41 42 40 39 37 36 36 35
52 53 39 34 28 29 34 36 37 46 48 52 49 48 48 49 50 50 50 51 52 53 51 50 50 50 50 49 48 48 46 46 45 43 42 41 41 41 42 41 41 42 42 40 38 36 36 35 34
48 44 43 41 33 27 24 32 45 48 49 48 46 48 49 49 49 49 51 52 52 51 49 48 48 49 48 47 47 46 45 45 44 42 41 41 41 41 43 43 42 41 40 39 37 36 35 34 33
49 45 43 30 34 28 27 32 48 48 50 50 49 50 48 48 49 49 52 52 51 49 48 48 47 47 47 46 45 45 44 44 43 41 41 40 40 43 41 41 41 41 39 39 38 36 35 33 31

GFSSGP_sfc_temp_033.txt.gz
Temp
72 74 77 76 68 67 59 62 68 64 63 68 71 70 64 65 62 58 71 74 75 75 78 78 72 73 74 74 74 74 75 75 74 74 74 74 74 74 74 74 74 75 75 75 75 74 73 73 72
75 76 76 72 64 58 60 66 62 64 67 69 70 67 66 62 68 66 69 73 75 76 78 79 72 73 74 74 74 74 75 74 74 74 74 74 74 74 73 73 73 74 75 75 75 74 73 72 71
76 76 73 67 61 59 60 65 64 64 68 69 67 70 65 63 67 68 72 74 76 76 78 77 72 72 73 73 73 73 73 73 73 73 74 74 74 73 73 73 73 74 74 74 74 73 72 71 70
75 76 71 65 58 62 64 67 68 64 69 70 70 63 67 71 69 71 73 76 77 75 77 73 71 72 73 73 73 73 72 72 72 73 73 74 74 73 72 72 72 73 74 74 73 72 71 70 69
73 70 63 60 59 63 67 71 70 64 60 66 69 65 63 68 73 73 73 75 74 74 76 76 70 71 72 73 73 72 72 71 72 72 73 73 73 72 72 71 72 72 72 72 72 71 70 69 68
71 67 60 57 59 64 67 71 70 68 68 68 66 64 62 70 70 72 74 74 75 73 74 75 71 71 71 72 71 71 70 71 71 71 72 72 72 71 71 71 71 71 71 71 70 69 69 69 68
67 64 58 58 59 63 65 71 65 67 67 68 71 60 61 66 70 71 71 72 72 73 72 75 76 74 70 69 69 69 70 70 70 70 70 70 70 70 70 70 71 71 70 70 70 69 68 68 67
69 66 57 60 59 58 67 68 69 70 68 73 71 61 58 65 70 70 71 70 69 69 73 73 74 75 75 74 68 68 69 69 69 70 69 69 69 69 69 69 69 70 69 69 69 68 67 67 66
70 63 58 59 61 59 69 66 71 72 69 69 67 68 69 68 67 65 64 65 66 68 70 70 72 72 72 73 72 69 69 69 69 70 69 68 75 74 74 68 68 68 68 68 67 67 65 65 66
67 62 62 67 68 69 71 71 69 68 66 65 64 65 67 65 65 64 64 64 67 68 69 70 70 71 71 73 73 73 74 75 74 74 73 74 72 73 73 69 66 66 66 66 66 65 66 69 73
65 63 65 69 71 70 72 68 70 67 64 68 65 62 64 64 64 64 67 70 70 70 71 71 70 70 71 72 72 73 74 73 73 72 72 72 72 72 73 72 71 70 67 71 70 71 71 69 70
64 68 68 69 70 69 68 70 67 71 70 72 69 66 65 64 64 66 68 69 69 70 72 71 70 69 68 73 73 72 73 72 73 73 71 71 71 68 68 68 69 68 69 68 69 69 67 67 67
65 67 67 68 69 70 68 67 67 69 67 70 68 67 66 66 67 69 71 72 72 70 71 71 70 69 69 69 70 70 70 72 71 71 69 70 69 66 68 66 67 67 68 67 67 67 67 66 67
66 67 66 68 67 68 68 65 69 66 68 67 66 67 68 68 68 70 70 70 70 72 71 70 69 69 70 70 69 69 68 68 68 66 66 67 68 66 66 65 65 65 66 66 66 65 66 65 65
67 64 66 66 68 65 68 64 64 65 68 65 66 66 67 68 70 70 72 71 73 73 69 68 67 67 66 66 64 63 62 64 62 63 63 64 65 64 64 64 64 64 64 64 64 64 65 64 64
64 62 59 66 67 65 68 59 61 64 66 64 64 65 66 69 70 70 71 74 74 71 69 68 66 64 63 62 60 58 57 58 59 61 62 63 62 63 63 63 62 62 63 63 62 61 62 61 61
58 55 57 61 66 66 66 58 60 63 65 62 64 65 65 65 65 65 66 68 71 70 67 64 64 63 61 57 55 54 58 59 61 62 63 62 61 60 62 61 61 61 61 60 60 60 59 58 58
54 55 57 59 63 62 59 55 57 59 64 60 61 62 63 62 60 61 62 62 65 66 66 64 61 59 56 55 56 57 59 59 62 63 63 63 63 61 61 61 59 60 60 58 58 57 58 56 55
59 57 56 58 61 57 52 52 54 56 59 58 59 60 60 59 59 61 61 62 63 63 63 63 57 56 57 57 57 60 59 61 61 63 62 61 61 61 61 60 59 59 57 55 55 56 54 56 54
57 56 55 57 58 57 53 52 53 55 54 57 59 58 59 58 60 60 61 62 64 61 58 60 63 61 64 66 65 65 63 62 61 61 60 61 60 60 60 59 58 57 58 55 54 53 53 54 53
55 55 54 55 57 57 55 53 52 54 55 55 56 57 59 60 59 59 60 61 62 61 63 65 65 65 66 65 63 61 60 60 60 60 61 60 59 59 59 58 59 58 58 57 55 54 51 51 53
53 58 57 55 55 52 55 50 51 51 51 52 55 57 59 59 60 60 60 60 61 61 63 65 65 65 64 63 63 62 64 62 61 60 61 61 58 58 59 57 57 56 57 55 55 56 53 51 49
55 58 56 54 52 52 51 52 51 50 49 51 54 57 58 59 61 60 61 62 63 62 63 64 64 63 63 64 63 63 60 59 59 59 57 57 57 56 56 56 56 55 55 54 53 52 50 51 49
57 56 54 51 51 44 47 49 50 49 52 53 55 57 58 58 60 61 62 62 62 62 61 61 64 61 62 62 61 60 59 58 60 59 59 58 58 57 56 55 55 54 54 52 52 51 50 49 49
57 53 43 41 41 40 47 45 52 54 55 57 56 58 58 59 60 61 60 60 61 61 62 62 63 61 60 60 60 60 60 59 59 59 58 57 57 57 57 54 53 53 52 51 51 50 49 49 47
52 53 43 36 36 41 47 43 52 55 58 61 60 61 59 59 60 60 60 61 62 61 61 62 62 60 59 59 60 60 59 59 57 55 55 55 55 54 53 52 52 51 51 51 50 50 49 48 47
52 48 52 40 36 38 45 49 55 53 55 57 58 58 58 59 59 60 60 60 59 59 59 59 60 58 57 59 59 56 56 55 55 55 54 53 53 54 53 52 51 51 51 51 50 49 48 48 47
56 55 46 44 34 34 41 42 48 49 51 55 56 57 59 58 58 58 58 57 58 59 58 58 58 55 57 57 56 55 55 54 54 53 52 52 53 53 52 52 52 51 50 49 47 45 47 46 46
52 48 45 46 41 37 34 44 52 53 54 54 57 59 57 57 56 56 56 57 58 57 57 56 54 57 56 54 54 54 53 53 52 52 52 52 51 52 50 50 49 48 46 45 46 46 45 44 44
55 51 49 41 39 36 37 44 53 53 56 56 57 55 55 55 55 55 56 57 57 57 54 52 55 54 53 55 54 53 52 52 52 51 51 50 49 49 48 48 47 46 44 43 44 44 44 43 41

GFSSGP_sfc_temp_036.txt.gz
Temp
81 90 94 88 74 76 71 72 78 72 70 76 78 75 73 75 71 63 80 83 85 83 82 81 73 74 74 74 74 74 75 75 75 74 74 74 74 74 74 74 75 75 76 75 75 74 74 73 72
91 87 89 87 71 67 72 76 72 74 74 76 74 74 74 68 75 73 74 80 83 82 84 84 72 73 74 74 74 74 75 75 74 74 74 74 74 74 74 74 74 75 75 75 75 74 73 72 71
87 87 83 79 73 68 70 74 74 73 77 74 67 73 68 65 73 71 79 79 81 82 85 82 72 72 73 74 74 74 74 74 74 74 74 74 74 74 74 73 73 74 75 75 74 73 72 70 70
88 87 85 72 69 71 72 75 76 74 76 76 69 60 68 74 68 74 77 79 80 82 85 74 71 72 73 74 74 73 73 72 73 73 74 74 74 74 73 73 73 74 74 74 73 72 71 70 69
90 86 74 70 69 72 78 78 78 74 66 73 75 69 68 72 78 77 76 75 80 82 83 80 69 72 73 74 73 72 72 72 72 73 73 74 73 73 72 72 72 72 72 72 72 71 70 69 69
81 83 70 67 68 71 78 79 78 74 75 74 72 71 68 75 74 75 73 76 81 80 80 78 71 71 72 72 72 71 71 71 71 72 72 72 72 72 72 71 71 71 71 71 70 70 69 69 68
78 76 70 69 68 69 73 79 76 76 75 70 75 71 65 71 76 76 77 79 78 79 80 81 81 76 70 70 70 70 70 70 70 71 71 70 70 70 70 71 71 71 71 70 69 69 68 68 67
83 79 69 71 67 66 75 76 78 74 73 78 79 69 60 71 73 76 78 77 74 78 84 84 83 83 81 79 69 69 69 70 70 70 69 69 69 70 70 70 70 69 69 69 68 67 67 67 66
82 72 69 69 68 68 77 74 77 78 73 75 75 75 77 71 73 72 70 69 70 77 82 83 83 82 82 82 76 70 69 69 69 71 69 70 82 80 79 67 68 68 68 67 67 67 67 68 67
76 72 71 77 78 74 76 76 74 73 74 72 72 76 73 69 70 68 68 66 71 76 77 78 78 78 78 81 79 79 79 81 81 81 79 83 80 81 79 71 67 67 67 67 67 68 69 74 81
78 72 77 77 80 80 77 76 80 76 73 77 74 72 67 68 68 69 75 77 78 79 79 80 77 77 78 79 81 82 82 81 81 78 80 79 80 80 82 80 81 79 72 80 78 79 79 75 76
71 77 77 76 79 79 76 79 74 78 78 81 82 78 72 69 72 76 79 81 81 80 80 79 78 76 77 81 81 80 82 81 82 81 78 79 80 77 79 80 79 77 78 76 77 77 74 74 74
73 76 75 76 78 79 80 76 75 76 79 80 79 75 75 76 78 82 83 83 81 79 80 79 78 77 77 77 79 80 80 81 78 78 75 78 79 75 76 75 78 76 78 76 75 75 75 74 74
76 74 72 74 77 76 75 74 77 74 79 76 74 76 79 79 80 81 81 80 80 81 79 79 78 78 79 77 76 76 76 76 74 69 68 69 76 74 75 74 74 74 75 74 74 72 72 73 72
74 70 72 72 75 73 78 70 69 74 78 74 76 78 79 81 82 80 81 80 81 81 79 77 76 77 74 73 73 71 70 69 67 67 67 70 72 72 72 72 71 71 72 72 72 71 72 72 72
71 72 64 71 74 72 75 66 70 74 76 76 77 77 77 78 80 81 81 81 83 82 78 74 70 70 69 67 66 67 62 63 65 66 67 67 68 69 69 70 69 69 70 70 70 69 68 69 69
69 63 65 66 74 73 73 67 69 74 76 74 76 76 76 77 78 78 78 81 83 81 76 71 70 69 68 67 58 57 58 62 67 68 69 67 67 68 69 69 68 68 69 68 67 67 66 65 65
62 63 67 66 71 74 71 67 69 72 75 73 75 76 76 76 76 74 76 79 82 80 75 71 71 67 60 57 60 61 63 64 66 67 67 68 69 69 70 69 67 69 68 67 65 63 65 64 63
70 67 66 69 70 71 68 68 68 70 73 73 73 74 74 74 73 74 73 74 76 72 70 71 67 59 59 59 60 62 62 64 68 71 69 69 70 69 69 70 68 67 65 63 63 63 62 62 63
67 66 64 65 68 69 67 66 66 68 72 73 74 73 73 72 72 71 72 72 70 72 72 68 68 65 67 69 71 74 72 72 72 71 69 69 68 69 68 67 67 66 65 63 62 61 60 62 62
65 64 63 64 66 69 67 64 63 64 66 67 69 73 73 73 72 70 71 72 69 69 70 71 73 73 74 74 73 72 70 69 70 69 70 69 68 69 68 67 66 64 64 63 61 61 58 56 60
62 66 66 65 64 60 67 58 64 64 64 64 66 68 71 72 71 72 72 71 72 72 74 77 76 76 74 73 73 71 74 71 72 70 70 71 67 68 67 66 64 63 63 62 62 62 58 57 54
62 67 66 65 65 62 62 60 65 64 62 64 66 68 69 70 71 71 73 74 75 73 74 75 74 74 73 72 73 72 70 70 70 69 67 68 69 66 66 65 64 63 63 62 60 58 57 57 53
67 65 65 65 63 52 61 59 63 67 66 65 65 67 68 69 70 72 74 74 73 73 72 71 72 72 72 72 70 69 67 67 68 69 67 68 67 67 66 65 63 62 61 60 59 58 54 54 53
67 63 54 48 49 48 57 56 63 65 66 68 65 67 68 69 70 71 71 71 70 70 70 71 72 70 70 70 70 69 67 67 66 65 65 63 64 64 63 62 61 61 60 59 58 56 54 53 52
63 62 52 41 44 51 56 52 63 65 67 69 70 70 69 69 71 71 71 71 71 70 71 71 72 70 69 68 67 67 66 69 68 65 64 63 62 62 61 60 60 60 59 59 57 56 55 54 52
60 58 61 51 44 46 57 60 65 64 64 67 68 69 69 70 71 71 71 71 71 70 69 69 70 69 65 62 63 62 66 64 63 62 62 62 61 61 60 59 59 59 58 58 57 54 53 54 53
64 65 53 55 40 41 53 54 61 59 62 65 66 67 69 72 71 70 70 69 69 70 67 67 67 65 59 60 63 65 64 63 62 62 60 59 59 59 58 57 57 56 56 56 55 53 51 52 51
59 58 57 58 52 46 45 57 65 63 65 65 67 69 70 71 70 69 69 68 68 68 68 66 63 60 59 61 61 62 62 62 62 61 59 58 58 57 56 55 54 54 54 53 48 45 46 49 48
63 61 61 51 47 49 48 54 65 65 67 68 69 70 72 71 70 69 67 66 66 66 66 63 60 59 59 61 61 61 62 61 60 59 58 57 55 55 54 53 53 53 49 49 50 48 47 46 45

GFSSGP_sfc_temp_039.txt.gz
Temp
81 91 98 92 76 77 73 78 85 76 75 81 84 80 78 77 70 64 84 83 87 85 86 82 73 74 74 75 75 75 75 75 75 75 75 75 75 75 75 75 75 75 76 76 75 75 74 73 72
96 95 93 87 72 69 75 81 77 71 71 78 79 80 75 70 78 75 78 84 85 84 85 83 72 73 74 74 74 74 75 75 75 75 75 75 75 75 75 74 74 75 75 75 75 74 73 72 71
90 94 85 79 75 70 71 79 75 76 82 79 76 81 74 70 77 76 80 83 83 84 85 79 72 73 73 74 74 74 74 74 74 74 75 75 75 74 74 74 74 74 75 75 74 73 72 71 70
91 90 86 74 71 78 78 69 72 78 80 81 78 69 76 77 73 80 83 84 82 80 79 72 71 72 73 74 74 73 73 73 73 74 74 75 74 74 73 73 73 74 74 74 73 72 71 70 69
92 88 75 73 74 78 82 81 80 73 77 77 79 71 70 74 77 76 82 83 80 77 75 78 70 72 73 74 73 73 72 72 73 73 73 74 73 73 72 72 72 72 72 72 72 71 70 69 69
83 86 72 70 75 77 81 82 81 73 80 79 76 75 73 80 77 78 77 74 73 71 76 78 72 71 72 72 72 71 71 72 72 72 73 73 72 72 72 72 71 71 71 71 70 70 69 69 69
79 79 72 75 72 73 74 84 74 75 78 76 81 68 74 76 80 76 70 67 70 75 77 79 79 75 71 70 70 70 70 71 71 71 71 71 70 70 71 71 71 71 71 70 69 69 68 68 68
86 82 74 75 68 69 78 81 81 80 77 85 84 71 69 77 79 71 73 69 73 77 80 80 80 79 77 76 69 70 70 70 70 70 70 69 70 70 70 70 70 70 69 69 69 68 68 68 68
89 75 72 68 69 69 76 76 82 84 79 79 80 80 80 79 77 74 70 71 75 77 83 84 85 84 83 81 75 70 70 70 70 70 70 69 81 79 78 68 68 68 68 68 68 68 69 69 68
79 73 75 79 70 55 75 76 79 78 77 76 75 80 80 77 75 71 73 74 76 79 81 82 81 80 81 83 78 79 77 79 80 80 78 81 81 80 79 72 68 68 68 68 69 70 71 74 81
80 73 79 81 81 68 77 78 82 79 74 77 76 77 71 74 77 78 78 79 81 82 81 82 79 78 80 80 82 83 82 81 80 80 81 80 81 80 80 80 79 80 72 81 78 80 80 77 77
75 81 81 83 83 80 75 82 79 77 68 86 86 79 72 75 77 80 81 83 83 82 82 82 81 79 81 82 83 83 83 82 82 81 79 80 79 78 79 82 81 79 80 77 78 78 76 76 76
76 79 80 81 82 79 80 77 79 77 84 86 85 79 77 79 81 84 86 86 85 82 82 81 79 78 79 80 81 82 81 78 76 75 76 77 77 77 79 78 79 77 78 77 76 76 75 74 75
80 80 78 79 79 81 78 78 80 80 83 82 80 78 79 80 82 84 84 83 82 83 81 80 80 80 80 79 78 75 75 74 74 73 70 72 73 74 78 77 77 75 74 73 73 71 72 73 74
79 72 76 75 79 77 80 71 69 80 83 79 78 79 81 83 85 84 84 82 84 84 82 80 79 80 77 76 75 72 72 75 71 69 68 70 71 70 73 70 69 69 71 71 72 71 72 72 73
73 72 64 75 78 79 79 66 74 80 79 78 80 80 82 83 85 85 85 85 85 85 80 79 77 75 72 70 68 67 69 68 66 68 68 68 70 70 69 68 68 69 70 71 70 70 69 69 69
71 64 66 70 80 78 76 69 76 81 80 79 80 81 82 82 84 85 86 86 86 84 78 74 73 71 68 64 59 58 58 60 68 68 68 67 68 69 69 69 68 69 70 69 68 68 67 66 66
62 64 69 68 75 76 72 71 77 80 80 79 79 79 79 80 81 83 83 85 87 84 76 75 73 70 68 65 64 57 56 62 67 67 67 69 70 70 71 70 68 69 69 67 66 64 66 65 65
71 69 68 73 76 72 72 72 73 77 78 77 78 79 79 80 83 81 82 83 84 81 75 73 69 69 67 65 65 61 62 65 67 69 71 71 72 71 70 71 69 68 68 65 65 64 62 62 64
71 68 66 72 75 73 73 71 75 77 78 80 79 79 80 81 79 78 78 80 81 77 73 71 71 70 73 73 73 72 71 71 74 73 72 73 71 71 71 68 68 67 66 65 64 62 60 61 62
69 66 64 67 71 74 73 69 71 75 79 80 81 82 82 80 77 77 77 76 75 73 72 75 73 75 76 76 77 76 76 74 72 72 71 71 71 71 70 68 67 66 66 64 63 62 60 57 59
63 72 70 68 66 60 73 58 68 72 71 72 75 77 80 79 80 78 77 73 74 74 77 77 78 78 77 77 76 73 73 72 73 73 74 72 70 70 70 69 67 65 65 63 63 64 60 58 55
64 71 71 70 68 66 67 63 62 73 69 70 74 75 77 79 78 77 77 76 76 77 77 78 79 79 77 77 76 74 73 74 74 73 70 69 70 70 69 68 66 64 64 63 61 60 57 58 56
73 69 69 70 67 54 64 63 64 68 72 74 74 74 76 76 77 78 78 78 78 78 77 77 78 77 76 75 75 73 71 70 68 69 68 69 70 69 69 68 66 64 62 62 61 61 59 57 55
71 66 53 50 52 50 64 61 66 73 73 75 72 74 75 75 75 76 76 76 75 74 74 74 76 74 74 73 73 72 70 68 67 68 68 66 66 66 65 64 62 62 61 60 60 59 58 56 52
68 66 54 43 46 53 64 56 66 73 74 75 76 75 75 74 75 75 76 76 74 73 73 74 74 72 73 72 71 70 69 68 68 68 66 65 64 64 63 62 61 60 60 60 59 59 58 56 52
66 61 68 57 52 49 59 67 71 71 71 73 73 73 72 73 74 75 76 76 75 74 73 73 73 72 72 70 68 66 64 67 67 65 65 64 63 63 62 60 59 59 58 58 57 57 57 54 53
68 71 57 58 43 43 57 60 63 65 67 70 71 71 73 75 75 76 76 75 75 75 73 73 73 71 69 68 66 65 64 66 65 64 62 61 61 61 59 58 58 57 57 57 56 54 53 52 50
64 62 63 62 58 47 46 59 70 68 70 70 72 74 74 74 75 75 75 75 75 74 72 71 71 69 67 66 63 62 65 64 64 63 62 61 60 59 58 57 56 56 56 54 51 51 52 49 49
70 66 65 52 52 54 51 55 72 72 73 73 73 75 76 76 77 77 75 74 73 71 71 70 68 67 66 64 60 63 64 64 62 62 61 60 58 58 57 56 55 54 52 52 49 47 46 47 45

GFSSGP_sfc_temp_042.txt.gz
Temp
77 85 88 85 70 71 66 72 81 71 71 80 83 76 70 72 67 58 78 81 82 80 77 76 73 74 74 74 74 75 75 75 75 74 74 74 74 74 74 74 74 75 76 76 75 75 74 73 72
89 91 90 81 65 61 67 71 67 71 75 80 81 79 73 64 75 73 76 81 83 81 80 77 72 73 74 74 74 74 75 75 74 74 74 74 74 74 74 74 74 75 75 75 75 74 73 72 71
83 90 79 73 68 63 66 67 67 76 80 79 76 79 74 65 74 75 77 77 84 81 81 74 72 72 74 74 74 74 74 74 74 74 75 75 74 74 74 73 73 74 75 75 74 73 72 70 70
87 85 81 67 65 74 74 72 76 77 79 81 79 70 75 79 76 80 77 77 79 76 74 71 71 72 73 73 73 73 73 73 73 74 74 74 74 74 73 73 73 73 74 74 73 72 71 69 69
89 82 69 67 70 77 81 80 79 76 76 78 79 68 68 73 77 80 79 77 75 72 72 72 70 72 73 73 73 72 72 72 73 73 73 73 73 72 72 71 72 72 72 72 72 71 70 69 69
77 79 65 64 70 79 82 82 78 74 67 61 77 74 72 78 74 73 74 70 70 69 70 72 72 72 72 72 72 71 71 71 72 72 72 72 72 72 71 71 71 71 71 71 70 70 69 69 69
74 73 67 69 70 73 77 76 67 64 68 67 81 68 71 75 77 74 69 68 67 68 69 72 73 71 70 70 70 70 70 70 70 70 70 70 70 70 71 70 71 71 70 70 70 69 69 69 69
80 76 69 72 71 64 61 64 68 64 66 85 85 70 68 72 71 70 70 67 66 68 69 71 72 73 71 71 69 69 69 69 70 70 70 69 70 70 70 69 70 70 70 69 69 69 69 69 69
87 70 66 70 70 58 63 59 70 82 79 80 81 77 77 75 72 68 64 65 65 67 70 75 74 73 72 71 70 69 69 69 69 69 69 68 72 70 72 68 68 69 68 69 69 69 69 69 68
77 68 70 76 68 59 60 58 65 77 77 75 76 77 76 73 71 69 65 65 63 65 71 77 74 74 73 76 71 71 71 71 72 72 69 71 71 71 73 68 68 68 68 68 69 70 70 71 69
77 69 78 78 75 68 60 61 73 76 68 70 70 72 72 72 71 69 71 69 68 76 75 76 73 72 74 72 72 72 72 72 73 72 72 73 73 71 68 66 67 65 67 69 69 70 69 69 67
72 79 79 80 77 75 73 76 71 73 67 64 67 74 71 72 74 74 73 73 76 76 76 75 74 73 72 75 75 74 76 73 71 72 72 70 69 70 70 69 70 69 69 67 67 66 66 66 67
74 77 81 81 81 80 79 71 71 70 77 70 69 73 74 77 79 79 76 81 79 76 75 75 74 73 74 74 73 72 70 69 68 68 68 66 68 68 69 69 68 67 66 65 64 63 64 64 66
79 79 78 79 79 79 74 70 72 77 83 77 75 74 76 78 80 79 81 79 79 77 75 74 74 73 74 71 70 68 68 68 68 68 67 68 68 68 68 66 65 64 64 63 63 61 61 62 63
79 72 74 76 77 73 74 67 69 77 80 76 76 77 77 80 82 79 79 78 78 77 76 74 73 73 70 69 68 68 68 68 66 65 66 66 66 63 63 62 62 62 63 62 61 61 61 60 63
72 72 62 72 75 77 72 59 72 79 77 74 75 76 77 79 80 81 80 80 80 78 75 75 75 71 68 67 67 66 65 64 63 63 63 65 65 65 63 62 61 61 61 60 59 58 57 57 57
68 58 61 65 78 76 70 63 75 80 78 75 76 76 77 78 80 80 81 81 81 78 76 71 69 66 65 64 62 59 60 59 61 61 63 63 64 64 62 61 60 60 60 58 58 56 54 53 54
56 59 64 64 73 75 69 68 75 78 77 75 76 77 77 77 79 81 81 81 82 77 73 70 67 64 63 62 61 61 59 59 61 62 62 63 64 65 63 61 60 60 59 57 56 54 54 53 53
68 66 64 71 76 71 69 70 73 77 77 75 76 76 77 77 80 79 78 79 78 73 68 68 65 65 63 63 61 61 60 61 62 63 63 64 65 65 62 61 60 59 57 56 56 54 52 51 52
69 63 64 71 74 71 70 69 73 76 76 77 76 75 75 76 78 77 77 77 75 72 71 67 66 66 66 69 68 66 64 63 64 65 64 66 65 65 63 60 59 58 56 56 55 53 50 51 51
67 60 61 61 70 73 70 66 69 75 77 79 79 79 79 77 75 75 76 75 75 71 68 69 67 67 68 70 70 68 66 65 64 64 63 64 65 65 64 62 59 57 56 53 53 52 51 47 49
60 67 67 66 63 56 65 52 65 70 72 75 77 77 77 79 77 77 75 74 74 71 69 70 70 71 72 71 69 66 66 63 65 64 65 63 64 64 65 62 59 57 55 54 53 56 51 49 46
60 67 65 68 65 58 56 52 57 68 66 72 75 77 78 79 78 76 75 73 73 70 70 70 72 73 72 71 69 66 66 64 65 64 62 63 61 62 62 61 58 56 55 53 52 51 50 49 47
70 66 68 68 63 47 52 51 55 60 62 64 74 75 76 77 78 78 73 73 72 71 71 72 73 72 72 70 69 67 65 64 62 62 60 61 61 60 60 59 55 54 53 52 50 50 49 48 47
70 64 49 36 38 46 65 60 63 62 71 74 72 74 75 76 75 75 74 73 72 71 71 72 73 71 70 68 68 67 65 64 61 61 61 59 58 57 55 55 53 52 52 52 50 49 48 48 46
61 63 44 37 35 48 63 55 62 72 76 77 77 76 75 74 74 74 74 73 72 71 70 70 72 70 70 68 67 66 64 61 61 61 60 57 56 54 55 54 53 52 52 50 49 48 47 47 45
61 59 67 56 50 45 55 63 69 72 71 73 73 73 71 72 73 73 73 72 71 70 68 68 70 70 68 66 64 62 62 61 59 58 59 56 55 58 53 52 51 51 50 50 49 47 46 45 44
67 71 56 57 41 40 53 58 55 63 67 70 70 70 71 72 73 73 73 71 71 70 69 68 69 68 67 65 62 62 61 59 59 59 57 56 54 54 52 51 50 50 50 49 46 45 45 44 42
63 60 62 62 57 43 41 52 68 68 70 68 70 72 71 71 72 72 73 73 72 71 70 69 69 67 65 63 61 59 58 58 59 58 56 55 54 53 52 51 50 50 49 47 45 44 44 43 42
69 64 64 48 49 52 47 50 72 71 72 72 72 74 73 74 74 74 74 72 72 70 69 67 67 65 64 62 59 58 58 59 58 57 56 54 52 52 52 51 50 50 47 46 44 43 43 41 40

GFSSGP_sfc_temp_045.txt.gz
Temp
66 69 68 67 54 50 48 55 63 61 64 70 74 67 63 65 61 54 71 72 73 73 74 74 73 74 74 74 74 74 75 75 75 74 74 74 74 74 74 74 74 75 76 76 75 75 74 74 73
72 78 70 62 49 41 48 63 59 61 69 73 73 70 65 61 70 68 69 72 73 73 73 73 73 73 74 74 74 74 75 74 74 74 74 74 74 74 74 74 74 74 75 75 75 74 74 72 72
73 78 61 54 48 47 49 61 63 69 72 70 68 71 66 61 72 72 73 74 73 73 74 73 72 72 73 74 74 73 73 73 74 74 74 74 74 74 74 73 73 74 74 75 74 73 72 71 70
72 68 63 51 49 59 62 64 66 68 71 73 69 62 69 70 70 71 71 72 73 72 72 71 71 72 73 73 73 73 73 73 73 73 74 74 74 73 73 72 72 73 74 74 73 72 71 70 70
70 64 54 51 55 65 69 70 69 63 65 65 68 61 60 67 70 70 71 72 70 70 71 72 70 71 73 73 73 72 72 72 72 72 72 73 73 72 72 71 71 72 72 72 72 71 70 70 70
61 61 49 49 59 68 65 61 63 62 64 66 66 63 61 68 66 67 68 67 68 69 70 72 72 71 71 72 71 71 71 71 71 71 72 72 72 71 71 71 71 71 71 71 70 70 70 70 70
58 54 50 54 60 62 61 64 58 59 62 65 69 60 63 64 65 66 65 66 66 67 68 69 69 71 69 69 69 69 70 70 70 70 70 70 70 70 70 70 70 70 70 70 70 69 69 69 69
65 57 52 58 60 52 61 60 62 58 61 73 72 59 56 62 65 65 65 65 65 66 66 67 68 69 68 69 69 69 69 69 69 69 69 69 69 69 69 69 69 70 70 70 70 69 69 69 69
67 52 54 56 55 57 62 60 61 64 59 71 70 67 65 65 65 64 63 64 65 66 67 67 68 69 67 68 69 69 69 69 69 69 69 66 67 68 68 68 69 69 69 69 69 70 69 68 68
61 50 56 64 60 58 59 63 61 62 62 62 63 64 64 64 63 62 60 59 61 63 65 67 69 68 69 72 67 66 69 67 66 67 66 66 66 66 69 67 68 69 68 69 69 69 69 68 65
63 59 67 70 67 62 58 60 68 64 61 58 63 64 61 63 63 62 60 62 62 65 68 68 70 68 69 68 67 67 66 65 66 67 66 66 67 66 64 62 64 62 66 64 66 65 64 64 62
59 68 70 71 67 63 59 63 65 63 66 65 62 65 65 65 65 63 62 61 63 64 68 71 71 70 69 69 68 68 67 65 65 65 66 65 65 63 64 64 66 63 62 61 60 59 61 61 63
64 70 72 73 68 67 67 59 64 62 64 68 68 67 65 65 64 67 66 67 67 69 70 69 69 69 69 66 65 66 64 65 65 64 65 64 63 62 63 61 60 60 60 60 59 58 59 59 60
70 70 68 71 70 71 65 60 67 65 64 66 66 63 64 66 68 67 69 71 70 70 69 67 67 67 67 65 65 65 64 64 64 63 63 64 63 61 61 60 60 60 60 59 57 57 56 56 57
71 63 67 67 66 63 67 56 59 67 66 63 63 66 67 67 67 67 70 71 70 70 69 66 65 66 65 64 64 63 64 63 63 61 62 62 62 59 59 58 57 58 58 57 56 56 55 54 56
62 61 54 63 67 67 67 52 61 66 66 63 65 67 69 70 71 73 72 72 71 70 69 68 69 64 63 61 59 59 58 60 60 59 59 61 62 60 58 57 56 56 56 55 54 53 52 51 51
56 51 56 59 69 64 62 56 63 67 68 65 65 66 67 68 70 73 73 73 72 72 69 64 63 61 60 59 58 57 57 56 57 57 58 61 60 60 59 56 55 55 54 53 54 52 51 49 49
51 54 51 56 64 65 59 58 62 67 68 66 64 65 66 68 69 73 73 73 72 70 65 63 62 59 58 57 57 56 55 55 55 55 56 59 60 60 57 56 55 55 54 52 52 51 50 49 48
61 58 56 61 66 60 60 58 61 66 66 64 65 66 65 67 71 73 72 73 69 65 63 62 60 59 58 56 54 53 52 53 54 56 58 59 59 59 56 55 54 54 52 52 51 49 49 48 47
61 59 58 63 66 62 59 59 63 66 65 67 65 64 65 65 69 70 68 69 66 64 62 61 61 60 59 58 57 57 54 55 56 57 57 59 59 59 58 55 53 53 52 51 50 49 47 46 46
58 54 54 54 59 61 58 54 59 65 67 69 69 69 70 68 68 69 68 65 63 63 61 61 62 61 61 61 60 58 56 55 54 55 55 57 60 60 58 56 54 53 51 49 48 48 47 44 45
53 65 62 60 54 45 57 41 53 60 65 68 68 67 67 65 68 70 67 62 64 62 62 63 63 62 63 65 61 57 55 55 56 56 56 57 59 59 59 57 54 52 51 50 48 51 46 44 42
57 63 62 60 56 53 51 43 51 58 59 64 63 65 68 69 68 68 67 64 65 63 62 63 64 63 64 66 63 60 56 56 56 57 57 57 59 60 58 54 51 51 49 48 47 46 45 44 42
66 60 60 53 50 40 52 49 46 55 60 63 68 69 66 64 68 69 69 68 65 64 63 63 64 65 64 63 61 59 58 58 58 59 58 58 57 55 53 53 50 49 48 47 45 45 44 43 42
61 53 39 35 33 34 55 50 49 61 66 63 66 69 62 65 62 64 65 65 65 64 63 62 62 64 64 61 60 59 57 56 55 56 57 55 51 49 51 50 48 47 47 47 46 44 43 43 40
57 53 38 32 31 35 56 47 52 64 66 68 69 64 64 63 63 63 65 64 64 64 62 65 67 68 65 61 59 58 57 54 54 55 54 53 52 52 50 49 48 48 48 46 45 44 42 42 40
54 47 58 44 39 32 44 54 59 63 63 63 63 63 60 61 62 62 63 64 64 61 61 64 65 63 60 59 56 55 55 54 53 54 55 53 53 54 51 50 47 47 47 46 43 41 41 40 39
59 62 45 44 34 32 42 45 45 55 60 61 60 59 60 62 62 62 62 61 61 61 61 61 61 60 58 56 56 55 54 54 55 53 54 53 52 52 50 48 47 46 45 44 42 40 41 40 38
55 52 54 52 43 33 29 40 55 58 60 59 59 61 61 61 61 61 61 63 63 61 61 61 59 60 59 57 54 53 52 55 56 55 53 52 51 51 49 48 47 46 44 43 41 40 41 40 38
62 56 52 35 41 40 33 38 59 60 61 61 61 64 63 64 63 62 62 63 62 61 62 59 58 61 59 57 55 55 56 56 56 54 51 52 50 49 48 48 47 47 44 42 42 41 40 39 38

GFSSGP_sfc_temp_048.txt.gz
Temp
63 66 65 65 52 47 44 51 59 60 60 66 69 65 61 62 60 54 69 72 72 73 73 74 73 74 74 74 74 74 74 75 74 74 74 74 74 74 74 74 74 75 76 76 76 75 75 75 74
68 73 66 57 46 39 45 56 58 61 67 68 69 66 62 61 68 65 67 72 73 74 74 73 73 73 74 74 74 74 75 74 74 74 74 74 74 74 74 74 74 74 75 76 76 75 75 74 72
70 73 60 52 42 43 45 58 61 65 69 68 65 66 64 63 70 68 70 72 73 73 73 72 72 73 73 73 74 73 73 73 73 74 74 74 74 74 74 73 73 74 75 75 75 75 74 72 71
68 63 59 50 48 53 58 61 63 64 67 68 65 59 65 67 67 71 72 72 72 71 72 71 71 72 73 73 73 73 73 72 73 73 74 74 74 73 73 72 73 73 74 74 74 73 72 70 71
64 58 49 46 52 58 58 60 62 59 63 64 64 57 59 65 68 70 70 71 70 70 71 71 70 71 72 73 73 72 72 72 72 72 73 73 73 73 72 71 72 72 73 73 72 72 71 70 70
58 56 46 47 55 59 60 60 62 59 61 64 62 60 57 67 66 66 67 67 68 67 69 71 71 71 71 72 71 71 71 71 71 71 72 72 72 71 71 71 71 71 71 71 70 70 70 70 70
55 51 47 52 56 58 58 61 58 58 57 63 63 56 58 63 65 66 65 66 66 66 65 65 67 70 69 69 69 69 70 70 70 70 70 70 70 70 70 70 71 71 70 70 70 69 69 70 69
59 55 48 51 53 52 59 60 61 64 60 69 67 55 54 62 64 65 65 64 64 65 65 65 66 67 67 68 68 68 68 69 69 69 69 69 69 69 70 69 70 70 70 70 70 69 69 69 68
64 52 47 51 54 55 59 57 62 67 67 66 61 61 62 62 65 64 62 62 62 63 64 65 65 66 66 67 69 69 69 69 68 69 68 67 66 66 66 67 69 69 69 70 69 69 68 67 66
58 50 54 62 59 58 58 57 58 59 60 60 57 60 63 62 61 61 61 61 62 62 63 65 66 66 67 70 66 66 69 66 65 66 65 65 64 65 67 67 68 69 68 68 68 67 66 65 62
58 55 62 64 64 59 56 57 64 61 56 58 55 57 61 61 60 61 62 63 63 65 65 65 66 66 65 67 64 63 63 63 64 65 63 63 65 63 61 61 62 61 65 63 63 62 61 61 59
56 65 67 66 63 59 57 62 63 61 62 64 61 60 60 61 60 62 63 63 63 63 65 67 67 65 63 66 64 64 65 63 63 64 65 62 62 62 61 60 60 60 59 58 58 57 58 58 59
60 64 68 68 63 61 65 60 62 58 61 64 64 62 61 62 62 64 64 65 64 64 67 68 68 66 65 64 63 63 63 63 63 62 63 63 61 59 60 60 59 58 58 57 56 56 56 55 57
65 66 67 64 64 64 62 61 61 60 62 62 64 62 62 61 62 62 62 63 64 67 67 68 67 64 65 63 63 62 63 62 61 61 61 62 61 60 59 57 57 56 56 55 54 53 52 52 53
65 60 63 63 62 60 62 55 54 63 65 63 61 63 63 66 63 62 64 65 66 69 68 67 63 63 62 61 63 61 61 61 59 60 60 60 60 58 57 56 55 55 55 54 53 52 52 51 53
59 57 51 60 63 62 58 51 60 63 62 60 60 61 64 66 65 66 67 68 69 68 67 65 67 62 61 59 59 59 58 58 58 58 58 59 59 58 56 55 54 54 53 52 51 50 50 49 48
53 47 52 56 65 64 60 52 62 60 62 58 59 61 63 64 66 68 69 69 69 68 64 62 62 61 60 58 57 56 57 56 56 56 57 58 58 57 56 55 53 52 52 51 52 49 48 47 47
47 51 50 53 60 59 59 54 59 61 61 60 59 60 64 63 64 68 69 69 69 68 65 62 61 60 57 56 56 54 54 54 54 55 56 58 57 58 54 53 52 52 51 50 49 48 48 47 46
59 56 54 57 63 57 57 55 58 61 63 60 59 60 61 64 68 69 69 69 68 63 62 61 59 57 57 55 53 52 52 53 53 54 57 57 57 56 54 52 51 51 51 49 50 48 47 46 44
57 53 53 59 62 60 54 55 57 62 62 63 63 61 63 63 66 67 67 67 63 61 61 60 59 58 57 57 54 55 53 53 54 54 55 56 56 55 55 52 51 51 50 49 48 46 44 44 44
54 52 53 54 56 57 54 50 54 61 63 65 66 67 67 66 65 65 65 63 61 60 59 60 59 59 58 58 57 54 54 52 52 52 53 55 56 57 55 53 51 51 49 48 46 45 44 42 42
51 60 59 56 50 43 52 40 49 57 60 63 65 63 65 65 68 65 65 61 60 60 60 60 60 59 59 58 57 55 53 53 52 52 53 54 56 56 56 54 51 49 48 47 47 47 43 42 40
53 58 59 57 50 46 47 43 48 54 55 59 63 63 65 65 67 63 63 62 62 60 59 60 60 60 61 60 59 56 52 53 53 52 53 53 54 55 54 51 49 48 47 47 46 43 42 41 40
62 56 53 50 47 38 48 45 45 51 57 61 64 64 63 61 63 64 63 63 61 60 59 60 60 60 60 60 59 57 55 54 53 52 52 52 51 50 52 51 48 47 47 46 45 42 42 41 39
57 48 36 33 32 34 50 45 47 57 61 63 62 59 60 62 60 60 59 60 59 59 60 60 60 60 61 60 60 57 56 54 55 54 53 50 50 51 51 50 48 48 47 45 43 41 40 39 38
54 49 36 33 30 36 49 42 51 59 61 62 64 61 60 59 62 63 61 61 60 60 60 61 61 61 60 59 57 55 55 54 52 54 54 53 51 49 50 48 49 48 46 43 42 40 40 39 38
52 47 54 40 36 31 42 49 57 59 60 60 57 59 57 56 60 61 63 61 61 61 61 60 61 61 60 59 58 55 53 53 51 54 54 52 51 50 47 47 48 46 43 43 41 39 39 38 37
56 58 44 42 33 32 39 41 44 52 56 57 55 56 56 57 57 58 59 59 60 59 57 58 61 60 60 58 58 56 55 55 55 54 52 51 51 50 49 48 48 45 43 44 41 40 39 38 37
51 49 50 47 40 34 29 38 51 54 57 57 57 57 57 57 58 59 59 60 60 60 58 57 59 60 58 57 55 54 53 54 54 53 52 50 50 49 49 47 46 45 43 43 42 40 39 38 37
54 49 50 35 39 37 31 38 55 57 58 58 58 59 58 60 60 60 60 60 59 60 60 58 56 56 55 54 52 54 55 55 53 52 51 51 50 49 48 47 46 46 43 42 41 41 40 38 37

GFSSGP_sfc_temp_051.txt.gz
Temp
62 63 63 63 51 45 41 49 57 58 58 64 67 65 61 59 59 53 66 69 71 72 74 73 73 74 74 74 74 74 74 75 74 74 74 74 74 74 74 74 75 75 76 76 76 76 75 74 73
65 67 63 54 44 38 44 52 56 58 63 65 66 65 60 59 65 64 66 70 73 74 74 73 72 73 73 73 74 74 75 74 74 74 74 74 74 74 74 74 74 75 76 77 76 75 75 73 72
67 68 57 49 41 40 44 53 57 62 65 62 61 63 61 59 66 66 70 72 73 73 74 72 72 72 73 73 73 74 73 73 73 74 74 74 74 74 74 73 73 74 75 76 76 74 73 72 70
66 61 57 50 45 50 52 53 57 60 64 65 62 56 63 66 65 69 72 73 72 71 72 71 71 72 73 73 73 73 73 72 73 73 74 74 74 74 73 73 73 74 75 75 75 73 72 70 70
60 55 49 44 52 54 56 57 59 56 57 60 59 55 58 66 68 70 69 71 69 69 71 70 70 72 72 73 73 72 72 72 72 73 73 73 73 73 72 72 72 72 73 73 73 72 71 70 69
55 55 44 44 49 58 56 58 61 58 59 60 60 57 58 65 65 66 68 66 66 65 68 70 71 71 71 72 71 71 71 71 71 72 72 72 72 71 71 71 71 71 71 71 71 70 70 70 69
52 49 45 50 52 55 57 59 58 59 60 62 62 53 59 63 65 66 66 65 64 64 64 65 66 69 69 69 69 69 70 70 70 70 70 70 70 70 70 70 71 71 70 70 70 70 69 69 69
56 52 48 50 53 52 57 59 60 59 58 68 67 53 55 61 64 64 64 63 63 62 62 63 66 66 67 68 68 68 68 69 69 69 69 68 68 69 69 70 70 70 70 70 70 69 68 68 67
57 48 45 53 53 57 57 56 61 63 62 59 61 61 61 63 64 62 61 60 60 61 61 62 64 65 66 66 68 68 69 68 68 68 68 66 64 64 65 68 69 69 69 69 68 67 66 65 65
54 47 52 59 57 57 57 56 59 59 58 56 57 60 62 63 62 60 59 58 59 59 60 61 63 64 65 69 66 65 67 65 65 64 64 64 63 63 66 66 68 68 68 67 66 66 65 63 59
54 53 59 61 62 57 55 54 59 58 54 56 56 57 59 62 61 60 59 60 59 61 61 62 63 65 64 65 63 62 62 62 63 64 63 63 63 61 61 60 60 59 63 61 61 60 59 58 57
51 61 62 63 60 58 55 58 58 54 59 61 61 60 60 59 59 61 61 60 60 61 63 64 65 64 62 62 61 61 63 62 62 62 63 61 61 59 59 59 59 58 57 56 56 56 56 55 56
54 62 65 62 61 60 62 58 60 52 58 61 62 61 59 60 61 63 63 63 63 63 63 63 64 64 63 62 60 61 61 62 62 62 63 62 61 59 58 57 57 56 56 55 54 53 54 53 53
61 60 58 60 59 61 61 57 59 54 59 57 58 58 60 61 62 62 62 62 62 64 64 65 64 64 63 61 61 61 62 62 61 60 61 61 59 57 57 56 55 54 54 53 52 52 51 50 51
63 57 57 58 59 60 62 53 53 58 60 56 57 58 60 61 63 61 62 62 63 64 66 65 64 63 62 61 61 61 61 60 59 59 59 59 57 57 56 54 55 53 53 52 51 50 50 50 51
57 54 48 57 59 60 59 48 57 59 59 57 57 59 59 61 63 64 64 64 65 65 65 66 66 62 60 60 59 59 58 58 58 57 57 57 57 57 54 54 53 52 51 51 50 49 48 47 47
51 44 47 52 61 57 55 52 58 61 60 57 58 59 60 60 62 63 64 64 65 64 64 63 61 59 58 57 56 56 57 56 56 56 56 57 57 56 55 53 51 51 50 49 51 47 48 46 45
44 49 47 51 60 59 53 54 55 58 61 60 56 58 60 59 61 64 65 66 66 63 62 61 60 58 57 56 55 54 54 54 54 54 55 56 56 56 53 51 50 50 49 48 48 47 46 45 45
51 51 50 53 60 56 54 54 57 57 58 56 55 57 59 60 64 65 66 66 63 60 59 59 58 56 57 56 54 52 52 52 52 53 55 56 56 55 52 50 50 50 49 48 48 46 46 44 43
53 52 52 56 60 57 52 53 54 56 57 59 59 57 59 61 62 64 63 63 63 60 59 58 59 57 58 58 53 54 52 52 52 53 54 55 55 54 53 51 50 49 48 47 46 45 43 42 42
51 48 50 52 54 52 50 48 51 56 58 61 62 62 62 61 62 63 63 62 61 59 59 59 59 58 58 57 55 52 52 51 51 51 52 53 54 54 53 51 50 48 47 46 45 44 44 41 42
47 56 56 53 48 43 50 39 48 52 56 59 61 60 61 62 64 64 63 62 61 61 61 60 59 58 58 58 56 53 52 50 52 51 51 52 54 54 53 51 49 47 46 45 45 45 42 43 40
51 56 53 53 48 44 45 42 46 51 52 56 60 61 62 63 64 63 63 63 63 61 58 58 58 58 59 58 57 54 51 52 51 51 52 51 51 51 52 50 48 46 46 44 44 43 42 41 38
59 53 51 48 45 36 44 43 42 48 54 59 61 63 62 60 64 64 65 64 62 58 58 57 58 58 59 58 56 54 53 51 51 50 49 49 48 48 48 49 49 49 48 44 43 42 41 39 37
54 46 35 32 32 34 47 42 45 54 57 59 59 62 60 60 61 61 61 60 59 59 58 59 58 58 58 58 56 55 53 53 52 52 51 47 46 46 48 48 47 48 47 46 43 41 39 39 37
48 47 35 32 29 34 46 39 48 57 58 59 59 58 58 59 61 59 60 60 59 59 60 60 58 59 58 58 57 56 54 54 52 51 50 49 49 48 47 47 47 48 47 46 43 40 38 38 37
50 44 50 38 35 30 38 46 54 57 56 57 53 57 56 54 58 58 59 60 59 59 60 60 59 59 59 58 57 53 53 51 50 50 51 49 49 49 47 47 46 46 46 44 40 38 38 37 36
54 56 41 39 33 30 37 38 42 51 54 56 51 53 54 53 55 57 59 59 59 59 60 59 59 59 58 55 54 53 52 52 54 53 50 49 47 44 46 46 46 46 44 43 40 38 38 38 37
48 46 46 45 37 32 29 37 49 52 55 56 56 55 54 53 54 56 57 58 59 59 59 58 58 57 54 54 53 51 53 53 53 50 50 48 46 47 46 47 46 45 43 41 39 39 39 39 38
51 49 47 34 37 34 30 37 53 54 56 55 57 58 55 55 55 57 58 57 57 57 57 57 57 57 56 54 53 52 54 52 50 50 49 48 46 48 48 47 46 45 42 41 41 41 39 37 36

GFSSGP_sfc_temp_054.txt.gz
Temp
60 61 62 61 50 45 38 46 51 56 57 63 65 61 60 60 59 51 67 67 71 72 73 73 73 73 74 74 74 74 74 74 74 74 74 74 74 74 75 75 75 76 76 76 76 76 75 75 73
62 65 61 53 43 39 42 48 50 54 59 62 63 62 61 59 65 64 66 70 73 73 73 72 72 73 73 73 74 74 74 74 74 74 74 74 74 74 74 75 75 75 76 76 76 75 74 73 72
65 65 56 47 40 39 43 50 51 58 60 60 58 60 58 59 66 66 69 71 73 72 73 72 72 72 73 73 74 74 73 73 73 74 74 74 74 74 74 74 74 75 75 76 75 74 73 71 70
63 60 54 45 39 51 50 53 55 57 61 62 58 55 63 67 65 68 71 72 71 71 71 70 71 72 73 73 73 73 73 72 73 73 74 74 74 74 74 73 74 75 75 75 74 73 71 70 69
57 52 43 40 44 53 54 56 56 55 57 57 58 53 58 64 68 68 68 68 66 67 70 70 70 72 73 73 73 72 72 72 73 73 73 74 74 73 72 72 72 73 73 73 73 72 70 69 69
54 50 41 38 46 58 56 57 59 57 57 58 57 55 59 65 66 65 65 64 65 65 65 69 70 70 71 72 72 71 71 71 72 72 72 73 72 72 72 71 71 71 72 72 71 70 70 69 69
51 46 40 42 50 55 56 59 58 57 57 57 63 53 59 63 65 65 64 64 64 64 63 63 65 66 69 69 69 69 70 70 70 71 71 70 70 70 71 71 71 71 71 70 70 69 69 68 67
53 49 40 45 50 50 55 59 59 58 55 63 64 53 55 62 64 64 63 62 63 63 61 62 63 65 66 68 68 68 68 69 69 69 69 68 68 69 69 69 70 70 70 70 69 68 67 67 66
53 45 41 45 53 54 56 56 60 62 59 59 61 60 61 63 63 61 60 59 60 61 61 63 61 63 65 66 68 68 69 68 68 68 68 65 63 64 65 68 69 69 69 68 67 66 65 64 64
51 43 50 57 59 57 57 56 57 56 54 56 58 61 62 62 61 58 58 57 57 58 60 63 64 65 65 68 64 64 67 64 64 64 63 63 62 61 65 66 67 68 67 66 66 65 64 61 57
50 49 56 59 61 58 55 55 58 56 52 56 56 59 61 60 60 59 59 57 57 59 61 62 65 64 65 64 63 63 63 60 61 62 62 62 62 60 60 59 60 59 62 59 59 59 57 56 55
50 57 60 61 59 55 54 58 58 54 57 60 61 62 61 59 59 59 59 59 59 60 62 61 62 62 63 63 61 61 62 61 60 61 62 61 59 58 59 59 58 57 55 55 54 54 54 53 54
52 58 62 62 58 57 61 56 56 53 57 61 62 61 60 61 60 62 62 62 59 58 61 61 61 61 61 61 61 61 60 61 60 61 62 61 59 57 57 56 56 55 54 54 52 52 52 51 51
58 58 56 57 58 59 59 56 56 56 61 59 60 58 58 59 60 62 61 60 60 61 62 62 62 61 61 60 59 59 60 61 61 61 61 61 59 57 56 55 54 53 52 52 51 50 49 49 50
59 54 56 57 56 56 59 49 49 57 59 57 58 57 57 61 62 60 61 61 62 63 64 63 62 61 60 60 60 59 60 60 59 59 59 59 57 56 54 53 52 51 51 51 52 49 49 49 50
53 51 47 53 57 56 55 45 48 56 55 55 56 57 57 60 62 62 62 62 61 60 61 62 64 60 59 59 58 58 59 58 58 57 56 56 57 56 53 53 51 51 51 51 49 48 48 47 47
49 43 46 51 57 54 53 46 52 56 56 54 54 58 57 59 59 62 61 59 60 60 60 60 59 58 58 57 56 57 57 57 56 56 56 56 56 55 54 55 52 50 50 48 50 47 47 46 45
41 44 44 48 54 54 49 51 52 56 57 55 54 55 56 57 59 62 61 60 61 60 60 59 58 57 56 55 54 54 54 54 54 54 54 55 55 54 52 51 50 50 48 47 47 47 45 45 44
49 47 46 52 57 54 52 51 51 54 56 55 54 54 56 57 62 63 62 61 60 59 59 59 57 56 56 56 54 52 52 52 52 54 55 55 54 53 52 50 49 48 48 47 47 45 45 43 43
50 48 47 53 56 52 48 50 52 54 56 58 56 56 57 57 59 61 61 60 59 59 59 58 58 56 57 57 53 54 52 52 52 53 53 54 54 53 52 50 48 48 47 46 46 45 43 42 42
49 47 47 49 53 51 47 47 49 54 56 58 59 59 60 59 58 60 60 60 60 58 58 59 58 57 57 56 54 51 52 51 51 50 51 52 53 53 52 50 48 47 46 45 44 44 44 41 41
45 53 51 50 47 41 47 38 44 49 53 56 58 57 59 59 61 61 61 60 61 61 59 59 58 57 57 56 55 53 52 50 51 51 51 52 52 52 51 49 48 46 45 44 44 45 42 41 40
51 54 51 49 45 42 42 39 44 47 49 53 56 59 59 60 61 61 62 62 62 60 58 59 58 57 57 56 56 54 52 52 51 51 51 50 50 50 50 48 46 45 44 43 43 43 42 40 40
56 52 49 46 43 36 42 40 41 45 50 53 58 60 60 59 60 62 63 61 61 56 56 56 57 57 57 57 56 54 53 52 51 49 50 48 47 47 47 47 45 46 45 44 45 44 43 41 39
51 44 35 32 31 33 44 40 44 51 54 56 56 60 61 61 59 59 58 59 57 56 56 57 57 57 57 57 56 55 54 54 52 51 51 47 45 44 45 46 47 47 46 45 43 44 43 41 39
46 46 34 31 29 34 43 38 47 54 56 56 57 57 59 58 61 60 60 59 58 57 57 57 57 59 57 58 57 55 56 54 52 51 50 48 47 45 47 44 45 46 47 46 45 43 42 41 38
47 42 48 37 33 29 37 44 52 52 52 55 54 51 52 53 56 59 60 59 58 57 57 57 58 59 59 58 57 55 54 52 51 49 48 47 46 48 44 46 46 45 44 45 44 42 41 39 37
50 53 41 37 32 30 35 37 40 50 52 54 52 51 52 52 52 55 57 57 58 58 58 58 59 59 59 57 57 56 53 52 50 49 47 48 47 45 45 43 44 44 45 44 43 41 40 37 37
46 44 43 43 36 31 28 36 47 51 52 53 52 53 52 52 52 53 55 57 57 57 58 58 59 58 57 56 55 52 50 50 50 50 48 47 46 46 45 45 44 45 44 43 41 40 39 37 37
49 47 45 34 36 33 30 34 51 52 52 52 55 55 52 53 53 53 54 55 55 57 57 58 58 58 56 54 51 50 50 50 50 47 48 47 47 47 46 46 45 45 44 42 41 39 40 38 37

GFSSGP_sfc_temp_057.txt.gz
Temp
70 72 75 74 64 61 56 59 62 64 66 65 68 68 67 63 62 60 71 72 77 75 78 78 73 73 74 74 74 74 74 74 74 74 74 74 75 75 75 75 75 76 76 77 76 76 75 75 73
72 73 73 67 60 54 58 60 61 64 66 67 66 66 66 64 68 65 67 73 74 75 77 79 72 73 73 73 73 74 74 74 74 74 74 74 75 75 75 75 75 75 76 77 77 75 75 73 72
74 73 70 63 55 54 57 61 62 64 65 66 62 62 60 61 68 69 70 74 73 75 77 77 72 72 73 73 73 73 73 73 73 74 74 75 75 75 75 74 74 75 76 76 75 74 73 71 70
73 73 66 60 53 59 60 64 61 62 66 67 65 59 65 67 67 70 74 75 73 74 74 71 71 72 73 73 73 73 73 73 73 73 74 75 75 75 74 74 74 75 75 75 74 73 71 70 69
70 67 59 55 56 61 63 63 62 62 63 64 66 59 63 65 66 68 68 72 71 67 72 71 70 71 73 73 73 73 72 72 73 73 73 74 74 74 73 73 73 73 73 73 73 71 70 69 69
67 64 56 54 56 63 65 63 63 62 63 63 63 62 61 66 66 64 66 66 67 65 66 68 71 70 69 72 72 71 71 72 72 72 73 73 72 72 72 72 72 72 71 71 71 70 69 69 68
64 61 55 55 57 60 63 64 62 62 62 64 67 60 62 63 64 65 64 65 64 64 64 62 62 63 64 68 69 70 70 71 71 71 71 70 70 70 71 71 71 71 71 70 70 69 68 68 67
65 64 55 57 57 59 63 62 64 63 62 67 66 60 58 62 63 64 65 64 64 64 63 62 60 61 63 66 67 68 68 69 69 69 69 68 69 69 70 70 70 70 70 70 69 68 67 66 65
66 61 55 57 58 63 63 61 63 66 62 62 64 64 64 63 64 62 61 61 61 62 63 62 61 62 64 67 69 69 69 68 68 69 67 68 74 74 74 69 69 69 68 68 67 66 65 64 64
65 58 59 64 66 64 62 62 62 63 60 59 59 62 62 62 63 60 59 58 59 61 61 62 63 64 65 67 66 66 69 69 69 69 70 73 71 73 73 70 67 67 67 66 66 65 64 67 70
61 60 63 66 68 68 64 61 64 62 59 62 59 58 60 60 61 60 59 60 59 61 63 65 66 67 67 67 66 70 70 70 70 68 70 70 70 70 70 70 70 69 66 70 69 67 68 66 68
60 64 65 68 67 62 62 64 61 62 62 64 65 62 61 60 59 60 59 59 61 62 65 64 64 65 66 69 69 69 70 70 70 68 69 68 68 67 68 68 67 65 66 65 66 66 64 64 63
61 65 66 67 65 63 64 61 60 58 61 65 64 62 61 60 60 61 61 60 60 63 65 66 67 67 68 67 68 68 68 70 67 67 68 67 66 66 68 65 66 65 66 65 65 65 64 64 64
65 64 64 63 62 63 62 60 61 58 62 61 61 61 62 62 62 61 61 61 63 67 67 68 68 68 69 68 68 67 68 68 68 68 68 67 66 65 65 65 66 65 66 66 66 66 65 64 64
66 61 62 62 63 62 65 59 60 61 61 59 59 60 61 62 63 63 65 64 66 68 69 68 68 68 68 68 68 68 69 68 68 69 68 68 67 66 64 64 64 64 63 62 63 63 64 64 65
61 60 56 61 64 61 63 56 58 60 60 60 59 60 61 63 64 65 66 66 68 69 68 69 69 67 68 67 68 68 69 69 69 68 67 66 65 64 62 62 62 62 63 61 60 64 63 63 64
57 53 54 58 63 62 62 58 59 58 59 59 59 61 62 62 64 66 67 66 68 69 69 68 68 67 67 67 67 66 66 66 67 66 65 64 64 63 62 63 61 61 62 63 63 62 62 62 62
52 52 54 55 62 61 59 60 57 57 58 59 61 60 62 62 64 66 66 68 70 70 69 69 68 67 66 65 64 65 65 66 65 66 64 64 64 63 64 64 57 63 61 61 62 61 60 61 62
56 54 54 58 63 60 59 60 58 57 58 58 59 60 61 64 68 67 67 68 68 69 67 68 66 65 64 63 61 60 60 62 63 63 64 63 65 64 63 61 58 62 62 61 60 59 58 59 59
57 55 55 59 61 59 57 59 60 56 57 60 61 61 63 65 66 66 66 66 67 67 67 66 66 65 66 68 66 66 64 63 64 63 63 64 64 64 63 59 61 62 61 59 59 59 57 58 58
56 55 54 55 58 59 58 56 56 57 60 62 63 65 66 66 65 65 65 65 66 66 65 66 67 66 66 67 65 63 62 62 61 61 62 63 63 63 61 60 61 60 61 59 58 58 57 56 56
52 59 57 55 55 50 57 48 54 57 57 59 62 63 64 64 66 68 66 66 66 66 66 68 67 66 65 64 64 62 64 62 62 61 62 63 59 58 60 61 60 59 60 58 57 57 57 56 54
56 59 57 56 53 52 50 50 56 55 57 59 62 64 65 67 67 67 68 69 68 68 64 66 66 66 66 64 65 62 62 64 60 59 60 60 61 61 61 60 58 58 58 56 56 54 54 55 53
59 56 54 52 50 44 49 50 53 57 59 61 64 66 65 67 67 68 70 70 69 67 65 65 65 65 65 64 63 62 62 60 57 57 56 58 60 59 59 59 58 57 56 55 52 50 48 47 53
57 53 44 41 41 41 49 47 54 60 62 64 65 66 66 67 67 67 68 67 68 65 65 65 66 65 64 63 62 60 59 60 60 59 55 59 57 57 57 57 55 56 55 53 48 46 46 46 47
54 54 44 37 38 43 48 45 57 62 64 63 63 63 64 65 67 68 69 69 68 66 66 65 65 66 64 62 62 59 59 61 61 58 55 56 57 59 57 55 55 54 53 48 44 44 44 45 50
53 50 54 42 39 39 46 52 61 61 62 63 63 63 64 64 66 67 69 68 68 66 65 64 66 66 65 63 62 59 58 59 58 55 55 59 59 56 52 52 53 52 50 46 44 45 44 45 48
57 57 47 46 37 35 43 45 51 58 60 61 63 63 64 62 61 64 66 66 67 66 66 65 66 65 66 64 62 60 59 60 59 57 58 56 55 53 50 52 52 48 46 49 49 46 44 44 49
52 51 48 50 45 40 37 46 56 59 61 61 62 63 63 63 63 63 65 66 66 66 65 64 65 66 65 64 62 61 60 60 57 56 54 53 49 49 50 49 47 48 46 46 44 44 44 47 48
56 54 52 44 42 40 39 44 59 59 59 58 61 63 64 64 64 64 64 64 64 64 65 64 65 65 64 63 61 60 59 56 55 52 50 48 47 49 50 49 46 45 43 44 43 45 48 48 47

GFSSGP_sfc_temp_060.txt.gz
Temp
76 87 91 85 71 72 66 69 76 74 73 79 77 77 75 78 72 65 82 82 79 81 83 81 73 73 74 74 74 74 74 75 74 74 74 75 75 75 75 75 75 76 77 77 76 76 75 74 73
88 85 87 84 67 63 66 73 71 75 77 76 74 74 72 71 75 74 75 80 83 82 81 81 72 73 73 73 74 74 75 74 74 74 75 75 75 75 75 75 75 76 77 77 76 76 74 73 72
85 85 80 75 69 63 66 72 73 76 75 74 72 73 72 70 74 75 82 81 82 82 80 78 72 72 73 73 74 74 74 73 74 74 75 75 75 75 75 74 75 76 77 76 76 74 73 71 70
86 85 81 68 65 69 71 75 74 75 75 76 75 70 71 73 71 75 81 81 78 79 79 72 71 72 73 73 73 73 73 73 73 74 75 75 75 75 74 74 74 75 75 75 74 73 71 70 69
88 82 70 66 66 72 75 76 75 72 72 74 75 69 68 68 68 73 76 78 70 67 74 73 70 72 73 74 73 73 73 73 73 73 74 74 74 74 73 73 73 74 74 74 73 72 70 69 69
78 79 66 64 66 72 75 75 72 71 72 71 72 72 67 72 67 68 68 66 64 62 63 68 69 70 69 70 71 71 72 72 72 73 73 73 73 72 72 72 72 72 72 71 71 70 70 69 68
74 72 66 66 66 68 72 74 70 70 70 72 76 69 67 64 65 66 66 66 64 62 62 61 61 64 65 66 68 69 70 71 71 71 71 71 71 71 71 71 71 71 71 70 70 69 68 68 67
79 75 66 68 66 66 74 72 71 70 72 76 77 69 64 62 65 66 65 64 62 63 63 61 59 60 61 63 66 68 68 69 69 69 69 69 69 70 70 70 70 70 70 69 69 68 67 66 66
80 69 66 66 66 70 74 69 69 73 73 72 73 74 75 64 66 66 62 62 62 61 61 62 62 62 61 63 66 68 68 68 68 69 68 70 76 78 77 71 69 69 68 68 67 66 65 64 64
74 69 67 74 75 73 75 72 69 70 71 70 66 64 64 63 65 64 61 60 59 59 60 63 65 63 62 66 68 70 71 74 72 73 75 78 76 79 78 71 67 67 67 67 66 66 66 72 79
74 69 73 75 79 80 77 72 76 71 70 73 68 60 61 63 64 62 61 61 61 61 62 63 63 64 68 70 68 70 73 72 72 72 76 76 77 77 77 74 75 73 71 75 73 74 78 74 76
68 76 76 76 77 76 73 75 71 73 71 74 74 65 62 61 61 61 60 61 60 60 61 62 66 68 68 69 68 69 73 73 74 75 76 76 77 76 76 77 76 75 77 74 75 74 71 71 71
70 74 76 78 75 74 72 71 71 70 72 74 70 63 62 62 65 67 65 63 63 62 64 66 65 65 68 71 75 75 74 75 75 76 75 77 76 74 76 76 76 76 75 74 73 72 73 72 72
74 75 75 73 72 71 70 70 71 71 72 69 64 63 64 63 67 68 62 60 62 66 64 65 68 71 75 75 74 75 75 76 76 77 76 74 75 74 75 73 74 74 76 75 74 73 73 73 72
74 69 73 72 73 71 74 68 70 73 70 63 63 64 66 65 70 72 65 68 72 70 72 72 74 75 75 75 75 77 76 77 77 77 75 74 75 73 74 74 73 73 73 72 72 72 72 73 74
70 69 65 72 72 70 71 63 71 73 71 67 64 67 65 66 70 75 74 74 76 77 75 75 76 75 75 75 76 78 78 77 78 77 77 74 74 74 72 70 70 72 71 72 71 72 72 72 73
68 62 63 65 73 71 71 66 71 71 71 72 70 70 69 69 73 74 74 75 77 76 75 75 75 75 75 75 77 76 76 77 79 78 77 75 74 71 70 72 71 69 71 68 70 71 71 70 72
60 61 65 64 70 70 69 70 72 70 71 72 73 72 69 71 72 74 75 76 78 77 76 77 76 75 75 75 75 76 76 77 78 77 77 74 72 70 71 71 70 70 71 70 70 68 70 71 72
66 63 62 67 70 67 67 69 73 72 68 71 73 73 72 72 75 76 75 77 77 77 76 76 76 75 75 74 74 74 73 75 76 77 74 72 71 70 70 71 69 70 70 68 68 68 66 67 69
65 64 63 66 69 66 68 68 73 72 69 72 73 70 73 74 75 75 74 75 75 77 76 76 77 77 76 77 77 76 75 76 77 76 73 73 71 70 70 71 69 66 70 67 67 66 66 67 67
64 62 62 62 66 70 68 66 67 68 69 69 70 74 76 76 76 75 73 73 74 75 76 77 78 77 77 78 78 77 76 75 73 73 68 70 70 71 71 68 67 66 69 67 66 66 65 64 64
60 68 66 63 63 57 67 54 64 69 68 69 72 73 75 77 79 79 76 75 75 75 77 77 78 78 77 77 77 73 74 72 74 73 70 71 70 70 71 66 65 65 68 68 66 67 66 64 61
63 67 65 65 63 60 60 58 65 67 66 70 72 74 75 77 79 78 79 78 78 77 76 76 77 77 77 76 75 74 72 76 76 71 69 67 67 66 66 66 62 63 68 67 66 64 63 59 54
68 64 63 63 61 51 59 58 62 67 69 72 76 77 78 78 78 79 81 81 80 79 77 75 75 76 77 75 73 73 72 73 69 68 67 67 67 66 66 64 62 64 67 65 64 62 57 56 49
66 62 50 46 48 48 59 56 63 70 73 73 73 77 79 80 79 79 79 80 80 79 77 75 76 76 76 74 73 72 72 70 66 66 68 66 64 62 59 60 60 66 66 64 61 55 54 49 47
63 63 52 41 44 50 57 53 64 72 75 75 75 75 75 77 79 80 80 80 80 79 77 75 74 75 76 73 72 72 71 69 65 64 65 67 60 56 57 58 64 66 63 55 55 48 55 54 48
61 57 64 52 49 48 57 61 70 72 72 73 74 75 75 76 79 80 82 81 80 79 77 75 73 75 76 73 72 69 67 66 62 64 64 63 58 56 58 63 63 54 53 57 49 48 50 48 48
64 68 54 57 42 41 52 54 60 65 68 71 73 75 76 76 75 77 79 81 81 81 79 77 76 76 77 76 71 66 65 65 65 63 64 61 56 59 61 59 51 54 52 51 48 46 46 46 46
60 59 59 60 56 46 45 54 69 68 70 70 72 74 75 76 75 75 77 78 79 80 78 76 75 76 77 76 72 65 64 65 64 62 60 58 57 58 58 52 51 48 48 47 46 47 44 43 49
67 63 62 52 49 52 50 52 73 73 72 72 72 73 75 75 77 77 76 76 76 76 76 76 75 75 76 75 71 66 64 63 62 60 58 56 54 51 50 48 48 48 46 45 43 43 45 50 53

GFSSGP_sfc_temp_063.txt.gz
Temp
76 87 95 90 72 74 67 72 82 78 79 84 85 80 81 84 71 56 69 89 88 86 84 82 74 74 74 74 74 74 74 75 75 74 74 75 75 75 75 76 76 76 77 77 76 76 75 74 73
95 92 91 83 69 64 68 78 74 79 82 85 83 81 80 78 81 72 70 87 87 83 80 85 72 73 74 74 74 74 75 75 74 74 75 75 75 75 75 75 75 76 76 76 76 75 74 73 72
90 92 82 76 71 65 67 73 79 81 82 82 81 82 78 78 81 82 85 85 87 79 77 81 72 72 73 73 74 74 74 74 74 74 75 75 75 75 75 75 75 75 76 76 75 74 72 71 70
90 89 85 70 67 73 74 79 80 80 83 83 83 76 81 80 76 77 84 85 85 80 75 72 71 72 73 73 73 73 73 73 73 74 75 75 75 75 75 74 74 75 75 75 74 72 71 70 69
90 85 72 70 71 76 79 81 81 78 79 81 81 75 78 76 74 72 73 78 71 68 65 71 69 71 73 73 73 73 73 73 73 74 74 74 74 74 74 73 73 74 74 73 72 71 70 69 69
81 84 69 67 68 75 79 81 76 77 78 78 78 76 75 74 71 67 68 65 68 66 66 67 68 67 69 71 72 71 72 72 72 73 73 73 72 72 72 72 72 72 72 71 71 70 69 69 68
77 76 70 71 70 72 76 81 76 75 75 77 82 74 72 68 65 64 63 65 65 64 65 63 63 64 65 67 67 69 70 71 71 71 71 71 71 71 71 71 71 71 71 70 70 69 68 68 67
82 78 70 72 68 69 76 78 78 77 74 81 83 73 72 62 65 63 62 61 61 62 61 61 62 61 60 60 65 67 69 69 69 69 69 69 69 70 70 70 70 70 70 69 69 67 67 66 66
87 72 68 69 70 71 78 75 77 78 76 79 80 79 67 65 65 62 60 60 60 60 60 60 60 61 62 62 63 66 69 68 68 69 69 70 73 75 75 70 69 69 68 68 67 67 65 65 65
79 72 72 78 79 76 80 79 78 73 76 76 73 71 66 64 65 62 60 59 59 58 58 60 61 61 63 66 65 68 70 71 74 74 73 76 73 75 74 69 67 67 67 67 67 66 66 68 78
80 72 78 78 81 83 81 80 81 73 69 71 73 66 63 64 65 63 59 60 60 61 62 63 63 63 65 64 64 67 69 71 73 74 76 73 74 72 73 72 73 72 70 74 73 71 76 76 77
72 79 80 81 82 80 78 83 78 80 77 79 77 69 63 62 63 62 60 59 58 59 59 60 61 61 63 66 67 69 70 72 74 75 75 74 73 74 74 76 76 74 76 74 76 75 73 73 74
75 78 81 82 82 81 81 78 78 77 80 77 70 66 62 63 63 64 62 61 60 59 59 59 61 60 64 66 66 67 70 74 76 75 75 75 76 74 76 76 76 76 77 76 75 73 74 72 73
79 78 79 81 80 79 75 78 77 78 80 71 66 64 63 64 65 66 61 59 60 60 60 63 64 65 67 68 73 74 76 77 76 75 75 76 77 75 76 75 76 76 76 76 76 75 74 74 73
78 72 77 79 80 78 79 72 55 78 77 71 69 68 68 67 69 66 62 59 62 63 62 62 65 69 69 72 75 77 77 78 76 77 77 76 76 75 76 75 75 75 77 76 75 74 74 74 75
73 73 66 72 78 79 76 51 57 80 75 70 72 73 72 74 76 71 67 70 70 69 68 70 74 73 74 76 78 78 78 77 77 78 77 75 76 75 75 75 74 74 74 74 73 73 73 74 74
71 63 62 65 79 75 75 61 64 81 78 74 74 74 73 74 78 77 72 76 75 74 74 72 76 76 77 77 77 77 77 77 78 79 79 76 76 75 75 74 73 72 73 73 72 73 73 71 72
63 65 68 67 70 74 71 72 71 77 78 77 76 75 75 74 77 78 77 79 79 78 77 76 76 76 76 76 77 78 78 78 80 79 80 77 74 73 73 74 72 71 73 71 72 71 72 72 72
69 68 67 71 75 70 70 70 75 77 77 77 76 77 75 76 80 80 78 78 79 78 76 76 76 76 77 77 76 76 75 77 78 80 80 78 74 72 71 74 72 70 72 71 71 70 68 69 70
68 66 65 71 73 71 70 69 73 78 76 78 78 78 76 78 78 78 78 76 78 77 77 77 78 78 78 80 79 79 79 79 80 80 79 76 72 72 71 72 72 69 71 70 68 68 67 69 69
67 65 62 63 69 73 70 68 71 76 78 79 80 80 77 78 78 77 77 76 77 77 77 79 80 80 80 80 81 80 80 79 78 78 78 73 72 72 71 72 70 69 70 68 66 67 67 66 67
62 72 69 67 65 57 67 52 63 72 73 75 76 76 77 80 80 80 78 77 77 78 79 80 81 82 81 80 80 77 76 75 77 77 78 72 72 71 72 71 70 69 69 66 65 68 68 67 64
66 71 68 68 65 63 65 60 59 72 71 74 77 76 80 82 82 81 81 80 80 79 79 80 80 81 82 80 79 78 76 77 79 78 76 69 70 71 70 68 64 65 67 65 62 65 66 67 65
74 68 68 67 65 51 60 61 58 66 72 76 80 80 81 82 83 84 85 84 83 82 80 79 79 80 81 81 78 77 76 76 77 77 72 70 69 69 69 68 64 64 63 61 60 65 65 61 57
69 63 51 48 45 48 62 60 62 69 76 77 77 81 83 83 82 83 84 84 83 81 80 80 79 79 80 79 78 76 76 76 74 75 71 68 68 65 66 65 63 61 58 58 60 64 61 52 53
65 64 53 40 44 44 63 55 63 77 79 80 80 81 83 83 84 83 84 84 84 83 82 80 79 78 79 77 77 77 76 76 76 67 62 65 65 66 67 66 62 56 56 57 59 58 50 53 49
65 59 68 56 57 51 59 65 73 76 76 77 78 79 81 82 84 85 86 85 84 84 82 81 80 80 80 79 78 76 76 74 74 71 70 63 66 63 60 58 56 54 54 54 53 48 49 47 45
67 72 56 59 43 42 55 59 59 68 71 75 76 78 80 81 82 84 86 85 85 86 84 83 81 81 80 80 76 73 71 69 70 68 67 65 66 62 58 55 54 51 52 49 50 48 45 44 46
64 62 63 60 54 47 46 56 71 71 73 73 76 78 80 80 81 81 83 86 87 86 85 82 81 80 80 81 76 71 68 66 64 65 63 64 64 63 58 56 51 49 47 49 49 47 44 43 43
70 65 65 53 53 56 54 56 76 76 77 77 77 78 81 81 82 83 81 82 83 84 85 83 81 80 81 81 79 68 67 64 62 61 61 61 57 54 53 51 48 48 48 46 45 43 44 43 44

GFSSGP_sfc_temp_066.txt.gz
Temp
75 82 85 83 67 68 62 68 78 76 78 74 75 70 65 79 75 64 71 68 68 65 77 77 74 74 74 74 74 74 75 75 75 75 74 75 75 75 75 76 76 76 77 76 76 75 75 74 73
87 88 87 79 63 58 63 75 73 78 82 78 75 73 75 76 80 73 73 71 68 66 76 78 72 74 74 74 74 74 75 75 75 75 75 75 75 75 75 75 75 75 76 76 75 75 74 73 72
80 90 77 71 66 60 64 74 77 81 84 82 80 82 80 75 77 75 80 79 78 76 80 77 73 73 73 73 73 74 74 74 74 74 75 75 75 75 75 75 75 75 76 75 75 74 72 71 70
85 85 80 66 63 71 73 77 80 79 80 68 69 70 78 73 72 73 75 80 76 74 76 70 72 72 73 73 74 73 73 73 73 74 75 75 75 75 74 74 74 75 75 74 73 72 71 70 69
88 81 68 66 68 74 78 81 81 66 65 61 61 65 57 63 72 72 70 69 66 68 68 67 66 70 73 73 73 73 73 73 73 73 74 74 74 74 73 73 73 73 73 73 72 71 70 69 69
76 79 64 63 68 74 79 82 79 65 67 64 59 61 60 68 65 64 68 67 66 64 64 64 66 64 69 71 71 71 72 72 72 72 73 73 73 73 73 72 72 72 71 71 70 69 69 68 68
73 71 65 67 68 72 74 81 77 76 75 67 64 59 61 60 62 63 64 65 66 66 64 62 61 62 64 65 67 70 70 71 71 71 70 70 71 71 71 71 71 70 70 70 69 68 68 68 68
80 75 67 69 68 67 74 78 80 77 75 82 72 66 57 60 62 62 61 62 62 65 64 62 61 61 60 62 65 67 68 68 69 69 69 69 69 69 70 70 70 70 70 69 68 67 67 67 67
85 68 64 68 68 68 74 72 81 81 78 69 65 66 63 61 64 61 59 59 59 59 61 62 60 60 60 60 63 64 69 68 68 69 68 68 69 69 70 68 68 69 68 68 67 67 66 66 66
76 67 69 77 78 75 79 78 79 75 63 61 61 65 63 63 63 60 58 57 57 57 59 60 60 60 62 63 63 63 68 68 69 70 69 70 68 69 69 67 67 67 67 67 67 66 66 67 64
77 68 76 78 81 81 78 79 82 77 58 59 56 64 63 63 61 60 58 58 57 58 59 59 59 60 62 63 65 67 68 67 69 69 70 69 68 67 65 65 65 64 66 65 65 64 65 67 65
72 78 78 80 82 80 77 81 77 74 65 68 66 66 63 62 60 59 58 58 58 58 59 59 60 60 60 61 62 63 64 67 68 69 69 68 67 67 66 65 66 65 65 63 65 64 65 65 65
75 77 79 81 81 80 81 76 77 65 71 73 69 65 62 62 61 61 60 59 59 57 58 58 60 59 60 60 62 63 64 68 68 70 70 69 68 67 67 66 66 66 67 66 65 64 64 64 64
78 78 78 80 79 80 76 75 69 61 54 69 68 65 66 65 64 60 59 58 58 58 57 58 59 60 61 60 61 62 66 68 69 69 69 70 68 67 67 67 66 66 67 67 66 64 63 63 63
78 71 75 76 78 77 79 70 60 62 61 67 66 66 67 67 67 60 61 59 58 57 58 58 60 61 61 63 66 67 68 70 69 69 70 70 70 68 68 66 66 66 67 66 65 65 64 63 65
71 71 63 74 77 77 76 61 62 64 64 67 69 69 68 69 68 62 61 60 60 61 60 61 64 64 63 67 69 70 71 70 69 69 68 69 70 69 68 66 66 66 65 65 63 62 62 61 61
68 59 64 68 77 75 72 59 59 63 66 63 71 71 71 70 67 65 65 65 64 64 63 63 65 64 64 68 71 70 69 68 70 69 69 68 69 68 67 66 65 65 64 63 64 62 61 60 60
61 62 65 65 71 73 70 56 57 61 66 65 73 71 71 71 68 68 69 69 70 68 66 67 67 67 68 70 69 69 69 69 69 69 71 69 68 68 67 66 64 64 63 62 62 61 62 60 60
69 66 64 68 74 70 68 69 64 64 71 71 73 72 71 73 74 71 72 71 69 69 68 69 68 70 70 69 68 68 67 69 69 72 71 70 69 68 66 64 65 63 62 61 61 61 60 59 59
67 64 64 70 73 70 69 68 68 70 75 77 75 73 73 74 74 73 73 71 69 70 70 71 72 72 72 72 72 70 70 70 71 70 72 71 68 68 68 66 66 63 62 61 61 60 57 59 58
66 63 62 62 69 72 68 64 68 75 77 78 78 79 75 75 74 73 72 72 71 70 70 72 72 72 73 74 74 73 72 70 70 71 69 70 68 68 68 66 65 63 63 61 61 60 60 58 58
61 71 68 67 63 55 66 48 62 69 72 74 76 76 76 77 77 75 74 71 71 71 72 74 74 74 74 74 74 71 70 68 69 68 71 70 69 67 69 66 64 62 61 60 60 62 60 59 56
65 71 67 67 63 61 61 54 62 69 68 71 74 75 75 75 76 75 74 74 74 74 72 73 75 76 75 75 73 72 68 69 70 69 68 68 66 65 67 65 63 60 59 57 59 59 58 58 56
74 68 66 66 61 49 60 57 56 63 66 73 75 75 76 76 77 79 78 77 76 76 74 73 74 75 76 75 73 70 69 68 67 67 66 65 65 65 65 65 61 60 57 57 56 56 55 52 49
69 62 49 45 45 46 63 58 61 65 71 75 77 76 76 78 78 78 78 77 76 74 74 74 74 75 75 74 73 71 70 67 68 68 68 64 63 62 61 61 58 58 58 57 56 54 52 49 46
63 61 50 38 34 43 54 53 62 72 78 79 80 80 81 79 79 79 80 78 77 76 75 74 75 74 76 74 73 72 72 71 70 69 65 64 63 61 61 61 60 59 56 54 53 50 47 47 48
63 57 66 48 48 42 47 61 71 75 75 77 77 79 78 79 80 80 81 79 78 77 75 74 75 76 76 74 73 71 72 71 70 69 65 62 62 62 61 60 57 54 54 53 49 47 46 46 45
67 70 55 56 37 40 53 57 58 66 70 74 75 75 77 80 80 80 82 80 81 79 77 75 76 77 76 75 73 73 71 70 70 66 64 63 61 59 57 55 54 53 50 48 47 47 45 44 44
63 60 61 62 57 45 42 50 62 66 72 72 74 76 77 77 78 79 80 81 82 81 80 77 77 78 77 76 74 72 70 66 63 61 61 61 60 59 57 55 51 49 47 47 46 45 43 42 43
69 63 63 51 50 53 47 51 67 68 75 75 75 77 78 79 79 79 79 80 80 80 81 78 78 77 77 76 70 69 65 62 61 59 58 58 55 55 53 51 49 48 47 47 44 43 44 43 42

GFSSGP_sfc_temp_072.txt.gz
Temp
62 65 64 64 51 44 40 50 55 59 62 65 68 66 59 60 58 51 67 66 68 69 72 74 73 74 74 74 74 74 75 75 75 75 75 75 75 75 75 75 75 76 76 76 76 75 75 74 73
67 72 65 56 44 37 42 53 54 59 64 68 68 66 61 57 65 63 65 70 70 68 67 70 70 72 73 73 74 74 75 75 75 75 75 75 75 75 75 74 74 75 76 76 76 75 74 73 72
70 73 58 50 40 38 42 53 59 62 66 65 63 64 60 61 66 67 69 69 68 67 67 68 70 71 72 72 72 74 74 74 74 75 75 75 75 75 74 74 74 75 76 76 75 74 73 71 70
67 62 58 47 44 52 54 64 67 61 62 62 61 57 59 63 62 66 68 71 68 69 67 69 70 70 70 72 71 73 74 74 74 74 74 75 75 74 74 73 74 74 75 75 74 72 71 70 70
63 55 46 41 47 53 63 67 67 62 60 61 61 55 59 63 65 64 66 67 66 65 65 68 67 68 66 67 66 72 73 73 73 74 74 74 74 74 73 72 73 73 73 73 72 71 70 70 69
56 54 43 40 49 58 63 67 66 64 63 62 62 58 58 63 61 63 65 63 63 63 64 66 67 67 66 65 67 70 72 72 73 73 73 73 73 72 72 72 71 71 71 71 70 70 70 69 69
53 49 43 44 52 57 64 69 66 64 62 60 64 55 60 61 60 62 62 63 62 62 63 63 64 65 66 65 65 68 69 71 72 72 72 72 71 71 71 71 71 70 70 70 70 69 69 69 68
58 53 44 49 52 53 66 68 68 64 55 64 63 56 56 57 60 62 61 61 60 60 61 61 62 62 62 62 63 63 66 69 70 71 70 69 69 69 69 69 69 69 69 69 69 69 68 68 67
61 47 45 49 52 57 66 64 66 64 60 60 61 59 59 60 60 60 59 59 59 59 59 61 61 61 61 62 63 63 64 68 68 68 68 67 68 67 67 68 68 69 69 69 68 68 66 65 66
55 45 51 60 62 62 64 60 59 55 51 54 58 60 59 59 59 58 57 57 57 57 58 59 60 61 62 63 61 61 63 63 64 64 63 65 65 66 67 67 67 68 68 68 68 67 65 63 59
55 53 63 65 67 63 62 56 56 53 48 54 56 57 59 60 59 58 57 57 57 57 58 58 59 61 61 62 63 62 62 62 62 63 64 65 65 65 63 64 62 62 65 63 63 60 59 59 58
54 63 65 68 70 65 60 55 56 49 57 60 62 60 59 58 59 58 56 56 57 57 58 59 60 59 60 62 62 63 63 63 63 63 64 63 61 59 59 61 59 60 60 59 58 58 58 58 59
58 63 66 68 67 65 66 58 56 53 59 63 62 60 58 57 59 59 58 58 57 56 58 59 59 59 60 60 61 62 62 65 65 64 63 63 61 59 59 59 59 60 59 59 59 58 58 58 59
63 63 63 65 65 65 62 56 57 57 60 62 60 58 57 58 59 58 57 56 57 58 58 59 59 60 61 61 62 62 64 64 66 65 63 62 61 60 60 60 60 60 59 60 59 60 59 58 59
64 59 61 63 63 63 63 52 53 57 60 59 58 58 58 59 59 57 58 57 58 58 59 58 59 60 61 62 63 64 67 65 66 65 64 63 61 59 60 59 58 59 59 60 59 58 58 57 59
58 54 48 59 62 67 62 52 55 57 59 57 57 58 58 59 57 58 59 59 59 58 58 60 61 60 60 62 65 64 65 65 66 65 63 63 62 61 60 61 59 60 60 59 58 57 56 55 56
48 43 48 54 67 63 60 51 55 57 59 57 57 59 58 58 59 60 60 60 59 59 58 60 60 60 60 62 60 62 63 63 65 64 63 62 63 63 61 61 60 59 59 57 58 56 56 54 54
43 46 45 49 59 56 52 52 54 55 57 57 56 58 58 56 58 61 60 60 60 59 60 60 60 60 62 62 61 61 62 62 63 62 62 63 63 62 61 60 59 58 58 57 57 57 56 55 54
53 51 49 56 64 61 57 51 54 53 57 54 55 55 56 55 58 58 56 56 57 59 60 60 60 61 61 62 60 61 61 57 58 59 62 61 61 62 60 60 58 58 59 58 57 56 55 54 53
54 51 50 58 64 59 55 53 53 55 57 58 58 56 56 56 55 56 55 55 55 56 57 58 59 59 59 61 61 62 59 57 62 60 61 63 61 61 60 59 59 57 57 56 55 55 53 54 53
54 51 52 53 58 56 52 48 50 58 58 59 60 62 58 57 54 56 56 55 55 56 56 58 60 60 61 61 60 58 58 58 58 57 59 61 62 62 62 60 59 58 56 56 54 54 54 52 53
49 60 59 56 51 43 51 39 48 54 57 59 59 58 59 59 59 58 58 56 55 56 58 60 62 62 62 62 63 60 63 60 63 60 60 60 62 62 63 62 59 57 56 55 55 55 54 54 53
54 61 60 58 50 45 46 41 47 54 54 56 59 60 61 61 59 58 59 59 59 59 59 61 62 63 64 64 64 62 61 62 59 58 59 60 61 62 63 62 60 58 58 57 56 54 54 54 52
65 59 56 51 47 37 45 43 42 47 55 58 62 62 63 61 61 61 62 62 61 61 61 61 61 63 64 64 64 63 63 58 58 60 59 57 60 62 62 62 62 60 57 56 56 55 55 53 52
60 50 38 35 33 33 50 44 48 57 60 62 62 63 63 62 61 61 60 60 61 61 61 62 62 62 65 65 64 63 63 58 61 60 61 60 60 60 61 61 59 57 57 55 55 54 54 52 51
54 51 38 33 30 35 46 41 49 61 66 65 66 65 65 63 63 62 62 62 62 62 63 63 63 64 65 65 65 65 64 65 62 63 63 62 62 62 63 61 59 56 56 54 53 53 50 49 49
54 46 55 41 39 33 40 48 56 59 59 62 62 64 64 64 64 64 65 65 64 64 64 64 65 65 66 66 66 66 64 64 64 63 61 61 60 61 58 58 57 56 55 54 52 50 48 48 47
57 60 44 44 32 29 39 41 44 53 57 59 59 58 63 65 65 66 66 66 67 67 66 66 66 67 67 67 67 66 66 63 64 60 57 58 57 56 57 55 54 54 53 52 51 48 47 47 46
52 51 50 50 43 33 30 38 51 54 59 60 60 61 61 64 63 66 67 68 68 69 68 67 67 67 66 68 67 66 66 66 62 59 58 58 58 58 58 56 54 54 53 51 49 47 46 46 45
57 55 52 39 39 41 35 40 56 57 62 61 60 63 62 63 63 65 68 68 68 68 69 68 68 68 66 62 62 61 60 60 60 60 59 59 58 57 56 55 54 52 50 49 47 45 45 44 44

GFSSGP_sfc_temp_075.txt.gz
Temp
62 62 62 62 50 44 38 45 52 56 57 62 66 62 59 58 58 51 64 66 67 70 71 72 72 73 74 74 74 74 75 76 76 75 75 75 75 75 75 75 75 76 76 76 76 76 75 74 72
64 67 63 53 43 36 41 49 52 57 62 66 65 62 60 56 63 63 63 68 70 69 67 70 69 71 74 74 74 74 75 75 75 75 75 75 75 75 75 75 75 75 76 76 75 74 74 73 72
67 68 56 47 38 37 41 51 57 61 65 61 59 62 60 59 65 65 66 68 68 67 67 68 67 68 71 71 72 72 74 74 75 74 75 75 75 75 75 74 74 75 75 75 75 74 72 71 70
65 61 55 45 41 48 50 57 62 59 61 61 59 57 59 62 61 65 66 68 66 65 67 68 68 68 69 72 73 72 72 72 73 74 74 75 75 74 74 74 74 75 75 74 74 72 71 69 69
59 53 44 39 43 50 56 61 64 59 59 60 58 55 56 61 63 63 66 67 66 65 66 66 68 69 69 69 70 72 72 71 72 74 74 74 74 74 73 73 73 73 73 73 72 71 70 69 68
54 51 41 38 45 54 59 63 65 61 61 61 59 55 56 60 60 62 64 62 63 63 65 65 69 68 67 67 68 69 70 70 71 73 73 73 73 72 72 72 72 71 71 71 70 70 69 68 68
51 46 40 40 47 52 57 62 63 62 60 57 62 54 56 57 58 62 62 62 61 63 64 64 65 65 66 67 67 68 67 69 70 72 72 71 71 71 71 71 70 70 70 70 70 69 68 68 67
54 51 40 43 47 49 59 63 61 59 56 61 61 56 55 57 61 61 61 60 60 61 61 61 62 63 62 63 66 68 68 68 70 70 70 69 69 69 70 69 70 70 70 70 69 68 68 68 66
56 46 40 46 47 54 60 59 60 60 58 57 59 58 58 60 61 60 59 58 58 59 60 61 61 61 61 62 65 65 67 67 68 70 68 67 67 67 65 68 68 69 69 68 68 67 66 66 66
53 44 48 56 57 60 62 57 56 53 50 54 56 59 59 59 58 58 57 56 57 57 58 60 60 61 62 64 62 62 64 64 66 68 65 65 64 64 65 67 68 68 68 68 67 66 65 64 63
52 50 55 62 62 59 57 54 56 53 49 55 54 56 56 58 58 57 57 57 56 57 58 59 60 61 61 61 63 62 62 62 61 63 64 65 64 64 63 63 63 62 64 61 61 61 61 58 58
50 59 59 62 64 57 56 56 55 52 57 58 58 58 59 58 58 57 56 56 56 57 57 59 60 59 59 62 62 63 61 61 61 62 65 63 61 60 59 59 59 57 56 57 58 57 56 57 56
54 59 62 64 63 60 59 56 58 54 58 61 59 58 59 58 59 59 58 57 57 57 57 59 59 57 58 60 61 61 61 62 61 62 64 64 62 60 59 57 57 56 57 57 56 56 57 56 56
59 60 60 61 62 61 59 54 53 58 58 58 57 58 59 59 59 57 56 56 56 57 58 59 58 58 59 59 61 62 62 63 63 62 63 62 61 60 58 57 57 56 57 57 56 57 56 56 56
60 56 56 58 59 59 59 49 51 57 57 55 55 56 58 56 58 58 58 56 58 58 59 58 58 59 60 61 62 63 64 64 65 63 62 61 60 58 57 56 56 57 57 57 56 57 56 55 58
53 51 45 54 58 61 60 48 56 56 54 53 54 55 56 56 57 58 57 58 59 59 58 59 60 60 60 62 63 64 63 65 65 63 62 60 60 59 57 57 57 57 57 56 56 55 54 54 55
45 40 45 51 59 58 54 51 55 54 55 54 55 54 55 55 56 56 57 59 59 59 59 59 60 59 59 60 62 61 62 64 64 63 63 61 60 60 59 58 57 57 57 57 57 55 55 53 53
40 43 41 46 55 56 51 52 52 52 53 54 53 54 54 55 54 58 58 59 59 59 59 59 59 59 59 59 59 60 61 61 62 63 62 60 60 60 58 57 57 58 57 56 56 56 54 54 53
50 47 45 50 58 54 53 50 53 50 52 51 52 53 53 55 55 57 59 59 59 59 59 59 58 58 59 58 58 58 58 59 60 62 61 60 61 60 59 57 56 57 58 58 57 55 55 52 51
50 46 46 52 58 54 52 53 52 51 53 55 54 52 53 54 56 54 53 57 57 57 59 59 58 59 61 62 62 62 61 59 60 58 59 61 59 59 59 58 58 57 57 55 54 54 52 52 51
49 46 47 49 53 53 51 48 49 54 54 56 57 56 55 54 54 53 53 53 57 55 58 58 58 58 60 64 61 60 60 59 57 55 56 58 60 59 59 58 57 55 55 55 53 54 54 51 52
45 55 54 51 46 40 48 37 46 50 52 54 57 55 54 54 55 55 53 51 52 55 55 57 58 58 59 59 59 59 57 56 57 57 57 58 59 59 59 58 57 56 55 53 55 54 53 52 50
50 57 54 52 46 43 43 39 45 49 50 53 58 58 56 56 55 54 54 54 54 55 55 56 57 60 61 60 58 57 56 57 56 56 57 56 58 59 60 59 57 57 56 57 56 54 52 53 53
60 54 52 48 45 35 43 42 40 46 52 57 59 60 59 56 56 57 58 57 55 53 54 56 57 58 60 60 58 58 56 55 55 55 56 55 57 58 59 59 59 59 58 55 55 55 53 52 52
54 46 35 33 32 32 47 41 44 53 56 59 59 59 60 59 57 56 56 56 56 54 55 56 57 58 60 60 60 59 59 56 57 58 59 57 56 57 59 59 59 59 59 57 56 55 54 52 51
49 47 35 32 30 34 43 38 47 58 60 61 62 63 63 59 59 58 58 58 58 57 57 58 58 59 61 61 61 61 61 61 60 61 61 59 58 59 60 59 60 60 58 57 56 55 54 52 52
49 43 54 38 36 32 38 46 54 58 58 58 58 59 57 59 59 59 60 59 59 59 58 58 60 61 61 61 62 62 61 61 62 60 58 58 56 59 58 60 60 58 55 56 55 53 52 51 50
55 56 43 40 31 29 36 38 42 52 55 57 55 56 59 61 60 61 61 61 61 61 61 61 61 61 62 63 63 63 63 61 61 58 57 57 57 57 56 56 55 54 54 53 53 51 50 50 49
49 47 47 46 39 32 29 36 49 52 56 58 56 57 59 60 60 62 62 63 63 63 62 61 62 62 62 63 63 61 59 59 59 58 56 56 56 57 57 57 56 54 53 52 52 50 49 48 47
55 50 49 37 36 37 33 37 55 55 56 56 58 58 59 62 63 64 64 64 63 64 64 63 63 63 62 62 62 61 62 62 61 59 58 58 58 58 58 58 59 54 53 52 51 48 48 47 46

GFSSGP_sfc_temp_078.txt.gz
Temp
61 61 61 60 49 43 37 44 48 52 54 59 62 60 58 55 58 50 64 65 67 70 73 72 72 73 74 75 74 75 75 75 75 75 75 75 75 75 75 75 75 76 77 76 76 75 75 74 73
62 66 61 51 42 36 41 46 49 55 60 62 62 60 58 57 61 61 62 66 69 69 69 69 71 73 73 74 74 74 75 75 75 75 75 75 75 75 75 75 75 75 76 76 76 75 74 72 71
64 66 55 45 36 38 40 50 56 58 63 61 57 60 59 58 63 64 66 66 66 67 68 68 69 69 69 70 68 73 74 74 74 74 75 75 75 75 75 74 74 75 76 75 75 74 73 71 70
62 59 52 44 37 46 48 54 58 57 59 59 58 56 59 61 60 64 64 66 66 66 67 67 69 70 71 71 69 68 72 73 73 74 74 75 75 75 74 74 74 75 75 75 74 73 71 69 69
57 52 43 37 41 48 53 57 56 56 56 58 57 54 56 60 61 61 63 64 66 65 65 67 67 68 70 70 70 69 70 72 73 74 74 74 74 74 74 73 73 73 74 73 72 70 69 68 68
53 50 40 37 42 51 55 59 60 59 59 58 57 54 56 59 58 61 62 63 64 64 65 66 69 69 69 71 71 70 71 72 72 72 73 73 73 73 73 73 72 72 71 71 70 69 69 68 68
50 45 39 38 44 50 54 60 59 60 58 58 61 52 55 58 60 62 62 62 62 62 64 64 66 66 67 67 68 69 70 71 71 72 72 72 71 71 72 71 71 71 70 70 69 68 68 68 67
52 49 39 41 45 48 55 59 58 58 57 59 60 54 53 56 61 62 61 60 61 61 62 63 63 61 61 64 67 68 70 70 70 70 70 70 69 70 70 70 70 70 70 70 69 68 67 67 66
53 44 38 44 46 52 57 56 57 57 55 55 59 54 58 60 61 59 58 59 59 60 60 61 61 61 61 62 65 67 69 68 67 69 69 67 67 67 66 68 69 70 69 68 68 67 66 66 65
50 43 46 53 53 57 59 56 57 53 50 54 55 58 59 59 59 58 57 57 57 58 59 60 60 61 62 63 64 66 66 66 65 67 66 65 65 66 66 67 68 68 67 67 67 67 66 64 61
48 47 52 57 58 55 53 53 56 52 50 54 55 54 57 57 58 58 57 58 57 58 59 59 59 61 62 61 63 64 63 63 63 64 64 64 64 64 63 64 64 62 63 63 64 63 60 59 58
48 56 57 59 59 55 53 53 53 52 58 57 57 57 58 57 57 58 57 57 57 57 58 59 60 59 60 62 63 62 62 62 61 62 63 63 63 62 60 61 58 56 56 57 57 57 56 56 56
51 56 59 60 60 58 58 56 55 52 58 59 57 56 59 58 58 59 59 58 58 57 57 58 59 59 59 58 60 61 62 62 62 62 64 64 62 60 60 59 58 56 57 57 55 57 57 56 56
57 56 58 57 59 58 57 53 52 58 57 56 55 55 58 59 59 58 57 56 57 57 58 58 58 58 59 58 61 61 62 61 61 61 62 63 63 61 60 59 58 57 58 55 56 56 56 55 55
57 53 54 54 56 57 57 50 49 58 55 53 54 58 59 59 60 57 58 57 58 58 59 58 58 58 59 60 61 62 62 62 61 61 60 61 61 61 60 58 57 57 57 57 55 55 55 53 55
50 48 43 50 56 57 57 46 57 56 53 50 53 57 58 59 59 60 60 59 59 59 58 59 60 58 59 61 62 62 61 61 61 61 60 60 60 59 60 59 57 57 57 57 55 55 54 54 53
43 39 42 49 55 54 52 49 55 51 53 51 52 53 56 56 59 59 59 59 59 59 59 58 59 58 59 60 61 60 61 61 61 60 60 60 60 59 59 58 57 56 56 55 55 54 54 53 53
40 40 38 43 48 50 47 49 55 51 51 51 51 52 53 55 57 59 58 59 59 60 60 59 58 59 59 59 59 59 59 60 61 61 61 61 58 58 57 57 56 55 55 55 55 55 54 54 53
47 44 42 46 52 51 50 48 54 50 50 49 50 52 52 54 55 59 59 57 58 59 59 59 58 58 58 57 57 57 58 59 60 61 61 58 60 59 58 56 55 56 56 55 55 55 55 52 52
48 44 45 49 55 52 48 50 54 50 51 51 51 51 52 53 55 57 58 57 57 58 59 59 58 58 59 60 59 58 58 58 61 61 61 62 59 58 58 56 56 56 55 54 54 54 51 52 51
47 45 45 45 49 50 47 45 49 53 52 53 54 53 53 54 56 55 56 57 57 57 58 59 59 59 60 61 58 58 58 57 57 56 57 57 58 58 58 57 56 56 55 55 53 53 53 51 50
42 51 51 48 43 37 45 35 45 50 52 52 53 52 52 53 55 56 56 56 57 57 60 60 60 59 61 62 60 58 59 58 59 56 57 57 58 58 60 59 58 57 55 53 54 54 52 52 49
48 53 50 48 43 39 42 36 43 46 50 53 55 54 53 54 54 53 54 55 57 58 56 55 57 57 59 60 62 59 56 58 57 57 56 56 57 58 59 58 56 55 55 55 53 52 52 52 51
57 50 48 45 41 32 42 39 39 44 51 54 57 57 54 53 54 55 55 54 53 55 54 53 55 56 58 58 56 58 55 56 55 55 56 57 56 57 57 58 57 57 56 54 55 53 52 52 51
50 43 33 30 30 31 44 39 46 52 55 56 57 58 56 55 53 54 53 52 52 51 52 53 54 55 57 57 58 56 57 55 56 56 57 53 55 54 56 56 55 56 57 56 55 54 53 52 53
47 45 33 30 29 34 41 37 45 55 57 58 59 60 56 53 55 55 55 55 53 53 53 54 54 55 56 57 58 59 56 58 57 56 55 54 54 55 56 57 57 58 58 57 56 56 55 54 53
47 42 49 37 34 32 37 44 52 56 55 56 56 56 55 53 54 55 56 57 56 54 54 54 55 57 57 57 58 59 57 56 56 56 55 55 55 56 55 56 57 56 56 56 55 56 55 54 54
51 53 40 37 29 28 34 37 41 51 55 55 55 53 55 55 54 56 56 57 58 58 57 56 57 57 58 58 58 59 57 56 56 56 55 55 56 56 56 56 56 55 54 55 55 55 54 52 52
45 47 45 45 38 33 30 35 48 52 53 53 55 56 55 55 54 56 57 58 59 59 57 56 57 57 57 59 59 56 56 56 57 58 59 58 58 57 58 59 58 56 55 55 54 54 52 51 51
52 47 48 37 35 34 33 40 53 54 53 52 55 58 55 56 55 57 58 59 58 58 58 57 58 58 58 58 59 59 60 60 60 61 62 61 59 58 58 57 57 57 56 54 53 52 50 50 48

GFSSGP_sfc_temp_081.txt.gz
Temp
70 72 75 74 64 61 56 58 61 62 64 70 68 66 66 66 66 62 70 71 71 73 77 77 73 74 74 74 75 75 76 76 76 75 75 75 75 75 75 75 75 76 77 77 77 76 75 74 73
72 73 73 66 60 56 59 59 60 66 71 69 67 66 65 67 68 68 68 71 72 70 73 77 72 73 74 74 74 75 75 76 75 75 75 75 75 75 75 75 75 76 76 76 76 75 74 73 72
74 73 71 61 54 56 58 61 66 67 70 69 67 67 67 67 68 69 71 70 72 70 69 73 71 72 73 73 73 74 74 72 74 75 75 75 75 75 75 75 75 75 76 76 75 74 73 71 70
73 73 65 60 55 58 60 66 66 66 67 67 67 65 66 69 68 69 69 70 70 71 69 69 69 71 72 73 73 73 72 71 73 74 75 75 75 75 75 74 74 75 76 75 75 72 71 69 69
70 67 59 55 55 59 61 65 66 65 66 66 66 66 65 66 67 67 68 67 69 69 67 68 69 70 71 73 72 71 70 69 72 74 74 74 75 74 74 74 74 74 74 74 73 71 69 69 68
67 64 57 54 54 60 64 68 66 65 67 65 64 64 66 65 65 67 66 64 65 67 67 67 68 69 70 72 71 69 70 70 71 72 73 74 74 73 73 73 73 72 72 72 70 69 69 68 68
64 61 56 54 55 58 63 69 68 68 67 67 67 65 67 63 64 66 64 65 63 65 66 67 68 71 69 69 69 68 69 70 70 72 72 72 72 72 72 72 72 72 71 70 69 68 68 68 67
65 64 53 54 56 58 66 68 68 67 68 66 69 66 65 62 65 65 64 63 62 63 65 65 65 64 65 68 67 68 68 69 68 70 71 70 70 71 71 70 70 71 70 69 69 68 67 67 66
65 59 54 55 55 62 66 66 67 65 65 64 66 64 63 63 63 62 61 61 61 61 61 64 63 63 64 66 66 68 69 69 69 69 69 68 71 72 71 70 69 70 69 68 68 67 66 66 65
64 57 57 62 63 63 65 65 68 65 63 64 62 62 64 63 61 60 60 60 60 59 60 61 63 62 63 65 68 70 68 69 68 67 67 67 69 70 70 69 68 69 68 68 67 66 65 68 71
60 59 61 64 66 67 66 64 67 63 64 67 63 63 61 61 61 62 62 62 61 60 60 60 61 62 63 66 66 67 66 66 64 64 65 65 67 69 70 67 68 70 69 72 70 69 71 70 70
58 62 64 67 66 65 63 67 64 62 70 66 68 65 62 60 61 63 62 62 61 59 59 60 60 60 60 62 64 64 65 63 63 63 65 66 68 67 68 65 65 67 70 71 70 70 68 68 68
58 62 65 66 65 65 65 65 65 62 68 64 62 62 61 62 63 64 62 63 62 59 59 59 60 61 63 62 62 62 62 62 62 63 68 68 66 64 64 63 64 64 65 67 67 67 67 67 68
64 63 65 65 65 65 63 63 60 71 66 61 59 59 63 63 64 64 61 59 59 59 59 59 59 60 63 61 61 61 61 61 61 63 67 66 65 63 63 62 63 63 67 66 65 66 68 68 69
63 59 62 64 66 65 65 59 58 69 62 60 59 61 62 64 65 65 64 59 60 59 60 58 59 61 62 61 61 61 61 61 61 63 64 66 65 64 63 63 61 63 66 62 65 65 67 67 68
58 57 53 61 61 64 65 58 66 64 61 59 59 61 62 63 65 65 64 61 61 60 59 59 60 60 61 61 61 61 62 62 61 63 65 64 65 65 65 65 64 64 63 64 64 65 66 66 66
52 50 50 56 63 63 61 59 65 61 60 59 56 59 61 61 63 64 62 62 61 61 59 58 59 60 61 60 61 61 60 61 61 64 64 64 65 65 65 66 64 63 61 63 64 64 65 64 65
48 48 50 52 59 59 58 59 65 63 60 60 60 58 57 58 61 63 62 62 62 61 61 59 58 60 61 60 60 60 60 60 61 65 66 65 66 66 66 66 60 61 61 65 65 64 64 65 65
54 52 51 56 59 57 57 58 63 66 58 58 59 59 59 58 64 64 61 61 60 60 60 59 57 58 59 58 58 58 58 59 59 62 63 65 66 66 65 66 64 62 65 64 63 64 62 62 63
54 51 51 55 59 57 58 57 64 64 64 62 61 60 61 62 59 60 60 59 59 59 60 59 59 59 60 59 59 60 59 59 60 60 61 65 66 65 66 65 65 65 66 64 63 63 63 65 63
51 50 51 51 54 59 55 54 59 64 61 60 61 64 64 63 60 58 58 57 58 58 60 59 60 60 60 60 58 58 58 58 58 59 60 65 65 67 67 66 66 65 65 65 63 64 64 64 63
47 55 53 52 49 45 56 44 55 62 63 61 61 60 62 63 63 62 59 57 58 60 60 61 60 60 61 59 59 58 60 58 61 60 64 67 66 66 67 66 66 65 65 65 64 64 64 64 61
51 57 54 53 50 48 51 47 52 56 59 65 68 62 63 64 64 63 60 61 60 61 60 60 61 61 62 61 61 59 59 62 65 64 65 65 65 66 67 66 65 65 65 65 64 63 62 63 63
58 54 53 50 48 39 48 48 50 57 60 64 67 67 63 63 64 65 64 62 59 61 60 60 60 62 63 63 63 61 62 63 62 62 65 65 66 65 66 66 66 65 65 64 63 63 63 62 62
55 49 40 37 37 38 50 46 53 59 62 65 68 70 65 63 63 63 60 57 57 58 58 58 59 60 62 62 62 63 63 64 64 65 66 65 64 64 65 65 65 64 65 65 65 64 62 62 62
50 50 41 34 36 42 47 43 53 63 66 66 66 68 66 62 63 63 63 61 59 56 57 57 59 61 62 62 62 62 64 64 65 64 65 64 66 66 66 65 66 65 66 65 65 64 64 63 61
48 44 54 42 40 39 46 51 59 64 62 65 66 65 65 63 62 63 63 63 62 59 57 57 61 62 62 62 63 63 63 64 64 64 65 64 65 65 64 65 65 65 65 65 65 63 63 62 61
55 56 42 45 35 34 42 44 51 57 61 63 62 65 65 64 62 63 63 63 63 63 61 60 61 62 63 63 63 63 63 64 65 64 63 63 64 64 64 63 65 65 65 65 64 62 63 60 58
50 48 49 50 45 39 37 44 57 60 63 60 61 64 64 63 62 63 64 65 64 64 63 61 62 62 62 63 63 63 64 64 64 63 63 64 65 65 64 64 65 65 64 63 60 59 57 56 56
56 51 51 43 40 43 44 47 61 61 63 60 63 64 65 65 64 64 64 64 64 64 63 63 63 63 63 62 62 61 62 63 63 62 64 65 65 65 64 65 64 65 62 60 56 57 55 54 53

GFSSGP_sfc_temp_084.txt.gz
Temp
75 87 92 86 73 74 70 69 76 72 73 79 79 76 76 79 75 69 79 80 78 76 84 80 73 74 74 75 75 75 75 76 76 75 75 75 75 76 76 76 76 77 77 77 76 76 76 75 74
88 85 87 84 70 67 70 73 71 76 79 79 77 76 75 76 81 79 78 79 80 75 78 81 72 73 74 74 75 75 76 76 75 75 75 75 76 76 76 75 75 76 77 77 76 75 75 73 72
86 86 82 77 73 67 71 73 75 77 79 78 77 79 78 77 79 80 79 77 80 77 73 82 72 73 74 74 75 75 75 75 75 75 76 76 76 76 75 75 75 75 76 76 76 75 73 71 70
85 85 82 70 68 72 72 76 76 76 77 79 80 75 78 79 79 79 77 78 79 80 72 74 71 72 73 75 74 74 71 73 73 73 74 75 75 75 75 74 75 75 76 76 75 73 71 70 69
87 84 72 69 69 73 75 77 77 75 76 75 77 77 76 77 79 77 76 75 76 75 71 73 70 71 73 73 71 72 72 72 72 71 71 74 75 75 74 74 74 75 74 74 72 71 70 69 69
78 80 68 67 70 73 76 78 76 75 76 75 73 76 78 77 76 75 73 71 73 74 70 69 71 70 71 72 71 70 70 71 72 71 71 74 74 73 73 74 74 73 73 71 70 69 69 68 68
75 73 69 69 69 70 75 80 75 75 76 78 78 75 79 75 76 74 71 71 69 71 71 68 71 73 68 69 69 69 69 69 69 69 70 72 72 72 72 72 72 72 71 70 69 68 68 68 67
79 76 68 70 68 69 77 77 78 77 77 79 81 75 77 75 74 75 74 71 67 67 68 68 69 71 71 71 67 68 69 69 70 69 69 69 70 71 71 71 71 70 70 69 68 68 67 67 66
80 69 67 70 68 72 78 73 79 78 76 78 79 80 78 74 74 71 67 66 66 64 66 67 66 70 68 71 68 68 68 68 68 69 69 68 71 74 73 73 69 69 69 68 68 67 66 66 65
73 69 70 76 77 72 75 75 78 76 79 78 77 79 75 74 73 72 71 72 69 68 62 64 64 65 69 71 69 68 69 68 68 67 69 68 68 71 76 71 68 68 68 67 67 66 65 68 75
74 68 76 75 77 78 77 76 80 76 74 79 78 81 77 74 74 72 73 74 72 67 63 62 62 63 63 65 67 71 73 69 68 66 66 68 66 69 73 73 73 71 70 75 72 70 77 77 77
68 73 76 77 78 76 75 80 76 78 77 84 81 80 78 74 73 72 73 73 74 67 64 64 62 62 62 66 66 69 73 68 68 63 64 64 64 67 71 75 74 73 76 74 75 76 77 76 77
68 73 76 77 77 76 77 73 75 77 82 84 79 75 75 74 74 74 75 74 73 67 64 64 63 62 61 62 68 68 68 65 64 63 63 63 62 64 68 72 73 74 75 75 76 77 76 75 75
74 73 75 76 76 75 71 74 76 78 83 79 75 77 77 74 75 75 73 72 71 70 64 63 63 63 67 65 63 63 63 62 62 62 62 62 62 65 67 70 69 73 73 75 76 75 75 76 76
72 66 72 73 75 73 76 69 71 79 78 76 76 75 76 75 76 75 75 71 69 69 65 62 62 63 65 66 62 62 61 62 61 60 61 64 66 68 69 69 69 69 71 71 74 74 74 76 77
66 68 62 73 72 73 72 64 77 81 76 76 77 75 74 75 75 77 75 73 72 68 63 63 63 62 65 62 62 62 61 61 60 61 62 67 68 69 69 69 66 69 70 69 70 72 74 75 75
64 58 63 66 74 73 70 68 77 77 75 74 76 75 74 75 75 76 72 72 72 68 63 62 62 62 63 61 62 61 62 61 61 63 67 69 68 68 68 68 68 69 67 68 72 73 74 71 74
57 59 63 62 70 69 68 68 75 80 75 75 76 74 75 74 73 75 69 71 71 68 63 62 61 60 63 61 61 61 61 60 61 66 68 68 69 67 71 72 69 73 71 71 72 71 72 73 73
65 61 62 69 69 64 66 67 73 78 77 75 75 74 74 73 76 76 68 66 67 67 61 59 58 62 63 59 59 59 58 59 60 63 65 66 71 71 72 73 72 73 71 72 71 72 69 70 71
61 59 60 67 68 64 66 67 73 76 78 78 78 76 75 74 73 73 68 67 66 66 62 59 59 59 60 62 61 60 60 60 61 63 65 66 66 68 72 72 71 70 69 68 69 70 69 71 70
58 57 59 60 66 68 64 62 68 75 77 77 77 79 79 77 74 71 68 67 67 67 63 60 60 60 61 61 60 59 60 60 59 62 62 66 68 70 71 70 71 68 73 71 70 69 70 69 70
53 64 62 59 58 53 63 53 67 71 73 75 77 76 77 77 77 73 70 67 67 67 66 63 61 62 62 62 60 58 58 58 61 64 64 65 69 70 73 73 72 72 73 72 71 72 71 70 68
56 64 62 60 58 57 58 54 64 70 67 72 77 78 78 78 78 75 72 70 70 68 66 64 62 62 62 62 60 59 58 62 64 63 62 63 67 70 72 73 72 72 73 72 71 71 69 71 69
63 60 59 59 57 46 55 56 59 67 68 73 77 80 79 78 78 78 75 71 71 68 65 65 62 62 61 62 62 61 61 60 60 61 61 66 71 73 72 74 72 72 72 71 71 71 70 69 70
60 56 47 44 44 44 59 55 59 69 73 74 76 79 80 79 78 77 74 71 70 66 64 64 63 62 62 61 62 64 63 62 60 65 64 65 72 73 72 72 71 72 71 71 71 70 70 70 69
55 56 49 39 43 49 58 50 60 73 77 78 79 79 79 78 77 77 76 74 70 68 67 63 63 62 63 63 64 66 68 65 65 64 64 71 72 73 72 71 71 72 72 71 71 71 71 70 69
57 51 62 51 52 44 54 60 67 72 73 75 77 78 78 78 78 77 77 74 71 69 68 63 63 65 66 65 66 67 68 69 70 69 69 71 73 73 72 72 71 71 72 72 72 70 70 70 69
61 64 49 51 38 38 51 54 57 63 69 73 74 75 77 79 78 78 77 75 73 71 69 66 67 68 71 69 68 69 69 69 71 71 70 71 72 72 72 71 71 72 72 72 71 71 71 69 70
54 52 55 56 52 44 43 54 68 67 71 71 73 76 75 76 77 77 78 77 76 74 71 68 69 71 72 71 71 69 69 69 70 70 70 71 71 71 71 71 71 71 71 72 71 70 70 69 68
60 56 56 47 47 51 49 52 70 70 72 72 74 75 75 75 76 77 77 77 75 74 73 70 71 72 72 71 71 70 70 70 69 69 70 71 70 71 71 71 72 71 72 72 71 69 69 65 63

GFSSGP_sfc_temp_087.txt.gz
Temp
78 89 95 90 75 77 74 76 83 78 79 85 85 81 81 85 79 70 86 86 84 84 87 83 74 75 75 76 75 75 75 76 76 76 75 75 75 75 76 76 76 76 77 77 77 76 76 75 74
94 93 91 86 72 71 76 83 76 81 84 85 84 82 80 79 89 87 86 85 86 82 83 85 73 74 75 75 75 75 76 76 75 75 76 76 76 76 76 76 75 76 76 77 77 76 75 73 72
88 93 83 79 75 71 74 80 80 83 84 84 82 86 84 81 87 87 85 83 86 84 84 83 73 73 74 74 75 75 75 75 75 75 76 76 76 76 75 75 75 75 76 76 76 75 73 71 71
89 88 85 72 72 80 78 82 82 81 84 85 86 79 86 87 87 88 84 84 84 86 84 76 71 72 73 74 75 75 74 74 73 74 75 75 75 75 74 74 74 75 76 76 75 73 71 70 70
90 86 74 73 75 81 82 84 82 80 81 81 84 80 81 85 88 86 84 82 81 83 82 79 71 72 73 74 73 71 71 70 67 67 72 74 74 74 74 74 74 74 75 74 73 71 70 69 69
81 84 71 70 77 81 82 85 81 81 82 82 79 81 83 87 85 84 80 79 79 80 80 76 72 70 72 72 71 71 70 69 69 68 72 73 73 72 73 73 73 73 73 72 70 70 69 69 69
77 78 72 74 76 78 80 86 80 79 80 82 86 78 84 83 86 81 80 79 76 78 78 78 75 73 69 70 70 70 69 69 70 69 72 73 71 70 72 73 72 72 71 70 69 69 68 68 68
83 79 72 75 74 75 84 83 85 81 81 88 87 78 80 85 83 82 81 80 76 76 76 76 76 74 73 75 68 68 69 69 70 70 69 68 69 70 71 72 71 70 70 69 69 68 67 67 67
86 71 69 73 76 77 85 79 85 87 82 86 86 86 86 83 83 81 78 76 75 73 75 74 75 74 73 74 73 69 69 68 70 68 66 62 67 72 75 73 69 69 69 68 68 67 66 65 66
77 71 72 83 83 78 81 81 83 83 82 83 84 88 88 83 81 80 79 78 75 74 74 73 70 73 73 74 74 73 73 71 71 68 68 66 66 70 75 70 68 68 68 67 67 66 65 69 74
78 70 79 82 83 84 82 82 86 81 78 83 82 86 88 84 82 81 82 82 80 77 74 71 66 65 71 71 71 72 70 69 67 67 66 65 66 66 71 68 71 70 69 71 71 69 75 75 75
73 78 80 81 85 82 79 84 81 83 82 88 88 88 86 86 82 82 81 81 82 72 70 70 65 63 64 64 67 71 69 69 66 65 65 64 64 65 68 71 72 72 72 72 71 75 76 76 76
75 77 80 83 82 81 82 78 79 81 86 88 89 88 84 84 84 83 83 83 82 76 67 68 67 63 64 63 65 65 69 69 66 65 65 64 64 64 66 71 74 74 75 74 74 77 77 76 76
78 78 78 80 81 81 77 78 80 82 87 85 86 86 87 84 83 83 81 81 79 79 69 68 68 66 66 63 62 66 67 67 66 65 64 64 62 63 66 69 72 75 76 75 76 75 76 76 76
76 70 74 76 79 78 80 72 74 84 86 84 84 86 85 85 84 82 82 79 79 78 72 67 67 66 67 66 64 64 65 63 63 61 61 62 62 62 63 66 70 72 75 75 73 73 76 76 77
68 69 62 74 79 81 79 65 79 87 85 82 83 85 84 83 83 84 83 81 80 79 72 67 66 65 65 64 63 62 61 61 61 61 61 60 61 62 61 65 69 72 73 73 71 71 72 74 75
65 57 62 68 81 77 74 69 81 85 81 80 82 84 83 82 82 84 83 81 80 78 72 66 63 63 63 62 62 60 60 59 60 59 60 60 62 62 63 67 68 68 70 69 71 71 69 70 74
56 58 63 65 76 78 72 72 79 84 81 81 82 84 83 82 82 83 82 79 80 78 70 65 62 62 63 61 61 60 59 59 59 60 61 62 63 64 67 67 64 66 66 68 70 69 73 73 74
65 64 65 71 78 71 70 71 76 81 82 82 81 82 83 82 85 84 80 78 77 75 66 64 61 60 61 59 58 58 58 59 60 61 61 62 66 68 67 67 67 68 69 69 70 71 69 69 74
62 61 62 68 74 71 69 69 75 79 81 82 83 83 83 83 83 81 78 74 73 72 69 63 62 62 61 61 60 59 59 60 61 62 66 70 67 68 71 71 70 71 71 68 69 70 69 71 71
59 59 60 61 70 73 68 65 70 77 81 82 84 85 86 84 81 79 76 72 69 70 68 65 63 65 64 61 60 60 60 59 59 59 63 67 68 70 71 72 71 69 68 67 69 71 69 69 70
53 65 63 62 62 56 70 55 67 75 78 80 81 82 83 85 84 81 77 74 71 71 70 69 66 63 65 62 60 59 58 57 61 61 65 65 67 67 67 67 68 67 69 69 69 73 72 72 69
58 66 62 63 62 60 61 58 64 73 72 76 80 82 83 85 84 82 78 77 76 75 69 67 65 64 64 64 60 59 58 60 62 63 64 67 66 67 69 68 69 72 73 71 71 72 71 72 72
64 61 62 62 60 48 58 59 61 68 73 76 81 83 84 85 85 84 82 79 77 75 71 66 64 63 63 62 61 59 58 60 60 61 61 63 64 63 66 71 73 73 72 72 73 72 71 70 71
59 55 46 45 45 45 63 60 63 74 77 78 79 81 84 85 84 83 81 78 77 73 71 65 64 62 62 62 63 61 60 60 62 61 61 61 61 62 65 69 72 72 72 73 72 70 70 70 70
56 54 45 39 44 51 65 55 63 76 80 82 83 83 83 83 84 83 82 79 77 74 70 65 65 64 63 62 63 64 63 63 64 63 63 62 63 64 68 70 72 73 73 72 72 72 71 70 70
58 51 60 52 55 48 56 63 72 76 76 78 79 81 82 84 84 83 83 80 78 75 71 68 65 65 64 64 63 63 64 66 66 64 64 64 65 68 68 74 70 72 72 72 72 71 71 71 70
58 66 50 53 40 39 52 56 60 67 71 76 77 78 81 85 85 83 83 80 80 76 74 71 69 68 66 66 65 66 68 67 68 68 65 68 67 71 72 73 72 71 72 73 71 71 72 71 70
55 54 57 56 52 44 44 55 72 71 74 74 76 78 80 82 85 84 83 83 80 78 76 73 72 71 70 67 66 66 66 69 70 69 69 70 69 72 72 73 72 71 72 72 71 70 71 70 70
63 59 58 47 47 54 52 53 75 74 75 76 77 78 79 80 84 85 84 83 79 77 77 74 72 72 74 72 69 67 66 67 68 70 71 71 71 72 72 72 73 72 73 72 72 70 71 70 69

GFSSGP_sfc_temp_090.txt.gz
Temp
76 81 87 86 69 71 67 74 85 79 79 85 86 81 79 81 77 66 85 85 84 85 78 79 74 75 75 76 75 75 75 76 75 75 75 75 75 75 75 75 76 76 77 77 77 76 76 75 74
86 90 88 80 66 62 69 82 77 81 84 86 84 82 79 77 88 82 81 86 86 83 83 80 74 74 75 75 74 75 76 76 75 75 75 75 75 75 75 75 75 76 76 77 76 76 75 74 73
79 90 78 73 68 63 69 80 81 84 86 83 82 86 83 80 86 84 85 85 87 84 84 77 73 73 74 74 74 74 75 75 75 75 75 75 75 75 75 75 75 75 76 77 76 75 73 72 71
84 84 80 67 65 74 77 83 83 82 85 85 84 79 87 89 88 87 86 86 85 85 83 73 72 73 74 74 75 74 74 74 74 67 64 75 75 75 75 74 74 75 76 76 75 73 71 70 70
86 81 69 67 70 77 84 85 84 79 82 83 83 78 81 86 89 86 84 83 82 82 80 77 72 72 73 74 75 74 72 71 69 67 66 67 74 74 74 74 74 74 75 74 73 71 70 70 70
76 79 65 64 71 81 84 85 83 80 82 83 80 79 81 87 85 83 80 79 80 79 78 76 72 71 72 73 72 71 70 69 68 68 66 66 70 71 72 73 73 73 73 72 71 70 70 70 69
73 72 66 69 71 75 82 87 81 80 80 80 86 76 82 83 85 80 79 79 76 77 77 74 74 71 71 70 70 69 70 67 69 69 66 67 68 69 70 71 72 72 71 70 69 69 68 69 68
78 74 67 70 69 72 84 85 86 81 79 89 88 76 76 81 82 81 79 78 76 76 75 75 74 70 71 69 70 69 68 68 68 69 68 67 68 70 70 70 71 70 70 69 69 68 68 68 68
85 68 64 68 71 76 86 80 86 88 82 84 86 85 85 84 83 80 77 76 75 73 74 74 73 71 70 71 69 68 69 68 68 68 68 66 66 69 68 68 69 69 68 68 68 67 66 66 66
75 67 68 77 80 79 82 82 82 81 79 80 83 87 88 83 81 78 77 75 73 72 73 74 70 71 70 73 68 70 69 68 67 66 64 65 64 66 68 69 68 68 67 67 67 66 66 68 66
75 68 75 78 82 83 81 80 85 79 75 81 80 84 87 82 80 79 80 81 78 77 75 73 68 67 69 68 68 67 67 66 66 65 65 64 65 65 66 65 66 66 66 65 65 65 67 66 67
70 77 78 79 82 81 78 83 79 81 81 87 87 86 86 85 82 81 81 81 81 74 74 72 66 66 66 68 66 67 66 66 65 65 65 64 64 64 64 64 65 65 66 64 64 65 67 65 67
72 76 79 81 81 80 81 77 77 78 84 87 88 86 84 83 84 84 84 83 82 73 70 68 66 65 64 64 66 64 65 66 66 65 65 64 64 63 64 64 66 66 66 66 66 67 69 67 67
76 77 78 80 79 79 76 77 78 79 84 84 85 84 85 85 85 84 82 80 79 73 69 67 65 65 65 64 64 65 65 65 65 65 65 65 64 64 63 63 67 68 68 67 68 69 68 69 67
76 69 73 75 77 75 79 71 72 81 84 82 83 84 85 86 86 83 82 78 78 77 70 66 64 65 66 64 64 64 65 64 64 64 65 65 65 64 64 64 67 67 69 67 67 67 67 66 69
68 68 60 71 74 76 75 63 75 83 82 81 83 83 84 85 85 84 83 81 80 77 68 67 67 66 66 63 64 64 63 63 62 61 63 64 64 64 63 64 65 65 66 66 66 65 64 65 65
62 55 59 65 74 74 74 68 77 83 83 80 81 82 83 83 83 83 83 81 79 77 68 64 65 64 63 62 61 60 60 60 61 60 60 62 62 62 63 63 63 65 65 64 66 64 64 63 63
54 57 61 60 69 72 71 70 75 80 81 79 80 81 82 82 82 83 82 80 79 76 66 63 63 63 62 60 59 59 58 58 58 59 59 60 60 61 61 60 61 62 63 63 63 63 64 63 63
62 60 59 64 72 70 70 70 74 79 79 79 79 80 81 82 84 83 80 77 76 69 65 61 62 61 60 58 57 56 56 56 57 57 59 59 59 61 60 59 59 61 61 63 63 63 63 63 64
61 58 57 62 68 68 68 67 73 76 77 79 80 80 80 82 83 80 77 74 73 68 63 61 62 62 60 60 59 59 58 58 57 57 58 59 59 60 60 59 60 61 61 61 62 62 60 61 62
60 56 57 54 62 68 66 63 67 74 77 80 81 83 84 82 81 78 75 72 71 66 62 61 63 63 61 60 59 58 58 57 56 57 57 59 59 60 61 60 63 60 62 62 61 62 61 59 61
54 63 59 55 52 46 65 50 64 70 73 77 79 79 81 83 83 79 76 71 69 68 64 63 63 63 61 61 59 58 57 55 57 58 61 64 63 63 65 64 65 64 65 63 63 65 63 62 60
58 64 58 54 50 53 56 53 59 69 68 73 78 80 81 81 82 79 77 73 71 70 65 63 63 63 62 61 60 58 57 59 58 59 60 62 63 64 65 66 65 63 64 64 62 63 63 62 60
66 60 58 56 51 40 52 54 56 62 68 74 80 81 80 81 82 81 79 75 72 71 67 63 62 62 62 61 61 59 58 58 57 58 59 61 63 63 63 65 63 63 64 63 65 62 63 62 61
61 54 42 36 36 37 56 54 58 68 74 77 78 80 81 81 81 80 76 75 73 69 66 64 63 61 62 61 60 60 59 59 59 59 61 61 62 61 61 63 62 64 65 66 65 63 62 62 60
55 52 43 32 34 38 53 48 59 74 77 80 81 81 82 81 80 80 78 75 74 70 67 65 64 62 62 61 61 61 61 59 60 61 62 62 62 63 63 63 64 65 66 64 64 62 62 62 61
55 48 57 47 48 40 47 55 66 74 75 77 78 80 78 80 81 81 79 76 74 71 68 64 64 63 62 61 62 61 61 61 62 62 63 62 62 63 62 63 63 63 64 64 63 63 62 62 62
58 61 46 48 35 34 45 51 54 64 70 74 75 76 78 81 81 80 81 76 75 73 69 65 65 63 63 62 62 63 62 62 63 63 62 62 63 63 63 63 63 64 65 65 64 63 63 63 63
53 50 51 52 50 40 38 46 62 60 66 72 74 76 76 78 79 80 80 77 76 74 70 66 65 65 63 63 63 63 63 62 63 63 63 63 63 63 63 64 64 65 65 64 64 64 63 63 63
61 53 53 42 44 50 46 45 68 68 72 74 74 76 77 79 79 81 81 77 76 73 71 68 66 66 65 64 63 63 63 64 63 63 63 64 63 64 64 65 66 67 66 65 64 63 64 63 61

GFSSGP_sfc_temp_093.txt.gz
Temp
66 67 66 67 53 49 46 57 64 66 68 71 77 73 69 70 69 58 74 78 77 74 74 75 74 75 75 75 75 75 76 76 75 75 75 75 75 75 75 75 76 76 77 77 77 76 76 75 74
69 75 68 61 49 42 49 63 65 69 74 77 78 76 73 69 76 74 74 79 79 74 74 73 73 74 75 75 75 75 76 76 75 75 75 75 75 75 75 75 75 76 76 77 77 76 75 74 73
71 76 60 54 48 46 49 63 67 73 77 76 71 77 75 72 78 76 77 78 78 76 75 74 73 73 74 74 74 75 75 75 74 74 69 69 74 75 75 75 75 75 76 77 76 76 74 73 72
69 66 63 50 48 58 62 67 71 72 75 77 74 70 76 80 79 77 79 80 77 76 74 71 72 73 73 74 74 74 74 74 70 71 69 67 67 73 75 74 75 75 76 76 75 74 72 71 71
66 60 50 46 53 63 71 72 73 70 71 75 75 68 70 76 78 77 76 78 75 71 70 71 71 72 73 74 74 74 74 73 69 69 68 68 66 65 74 73 74 75 75 74 73 72 71 71 70
58 59 45 44 55 67 72 76 76 74 75 75 74 71 70 76 75 71 73 71 72 71 69 69 71 71 72 73 73 72 72 70 69 69 68 68 66 66 71 72 73 74 73 72 71 71 71 70 70
55 51 47 51 58 64 71 74 73 73 73 71 76 68 69 73 72 71 70 69 69 70 68 68 69 71 71 71 70 69 69 69 69 69 68 68 66 67 70 70 72 72 71 71 70 70 69 69 69
61 55 50 57 56 58 73 75 75 73 67 77 78 68 64 69 72 71 69 67 67 68 68 67 67 68 67 67 68 68 68 68 68 68 67 66 67 67 68 69 71 71 70 70 69 69 68 69 68
64 51 49 54 58 65 74 71 76 78 73 73 77 74 76 74 73 68 65 64 64 66 66 67 68 68 68 66 69 68 68 68 68 68 67 65 65 67 67 68 69 69 69 68 68 68 67 67 67
60 49 55 64 68 69 72 68 69 67 68 71 74 76 76 74 71 67 64 64 64 63 64 66 68 67 68 69 64 64 66 66 65 65 65 64 64 64 67 67 68 68 68 67 67 67 66 66 62
60 56 65 68 72 72 66 68 72 62 61 71 70 74 72 71 69 68 68 67 67 65 64 63 64 65 67 66 65 63 64 64 64 64 64 63 64 65 65 65 65 65 66 64 64 65 64 64 62
58 66 69 70 73 72 67 68 68 65 69 75 75 76 72 71 70 70 69 69 66 66 63 62 62 64 64 66 65 65 64 64 64 64 63 62 63 63 64 63 64 64 62 60 62 61 61 62 64
63 66 70 73 72 70 72 69 69 68 75 77 77 78 74 70 70 71 72 70 68 65 62 60 62 63 63 63 64 64 63 64 64 64 63 64 64 63 63 62 63 63 62 62 62 59 62 62 64
68 68 69 70 69 71 69 67 66 72 75 76 77 74 74 74 73 71 70 68 67 64 61 60 61 62 62 59 60 61 63 64 64 64 64 64 64 64 63 61 63 62 62 64 63 64 62 62 64
68 60 65 66 66 64 69 60 62 73 75 73 75 75 73 74 75 72 70 68 66 64 62 60 60 63 62 59 60 60 61 63 64 64 64 64 64 64 62 61 63 64 64 64 62 64 62 61 64
58 57 51 60 66 68 66 56 67 74 74 73 75 75 74 73 75 71 70 69 66 62 60 61 63 63 63 60 60 60 62 63 64 64 64 64 64 64 62 61 64 64 64 64 65 65 62 60 62
50 45 49 55 65 65 65 59 68 74 75 73 73 72 70 71 70 71 71 69 63 62 61 59 60 62 61 61 60 59 61 62 61 63 64 64 64 64 62 62 63 63 65 64 65 60 64 62 61
43 46 48 50 59 64 61 61 67 72 71 69 70 70 69 68 70 72 71 71 64 61 60 59 59 61 60 59 59 58 58 58 60 61 62 64 64 64 62 62 63 64 64 63 64 63 62 63 63
53 51 50 55 62 61 58 58 62 71 69 67 65 67 67 69 71 73 71 67 61 59 58 58 58 59 59 57 57 56 55 56 57 59 60 61 63 62 62 61 60 66 64 63 63 61 62 60 61
53 50 49 56 62 61 57 55 59 66 68 69 67 65 67 68 69 70 69 62 60 58 58 58 59 60 59 58 58 57 56 57 56 57 57 58 60 61 60 60 59 62 63 60 60 61 58 60 59
52 50 50 51 55 54 51 50 54 65 69 72 71 71 69 71 68 67 67 62 58 57 57 58 60 60 60 59 58 57 56 56 55 54 55 57 58 60 59 58 58 59 60 59 59 60 60 59 57
47 57 56 55 46 38 53 35 49 57 63 71 72 72 72 69 71 68 66 61 57 57 58 59 61 60 60 59 57 55 55 53 55 56 56 56 57 58 59 59 59 58 59 59 60 61 60 58 57
52 57 56 51 44 42 45 39 44 57 59 66 69 71 73 69 70 66 66 65 59 58 57 59 62 60 59 59 58 56 55 56 57 56 55 56 57 58 58 59 59 59 60 60 60 59 59 58 56
59 55 53 49 46 33 42 42 40 51 59 67 71 73 69 68 70 67 67 66 60 59 58 59 61 60 60 59 59 56 55 56 56 56 57 57 59 60 60 60 61 60 62 61 62 59 59 58 58
53 48 34 31 32 31 49 44 44 57 66 70 70 73 71 72 69 67 64 63 61 58 57 58 60 59 60 59 58 59 58 57 57 58 58 58 58 59 59 61 61 61 62 61 62 60 60 59 58
51 49 35 28 29 34 47 39 46 61 63 73 74 71 70 66 70 67 65 64 63 60 58 59 60 59 60 60 59 60 60 59 59 59 59 60 60 60 60 59 61 62 61 61 60 61 61 59 59
49 44 53 42 44 36 42 48 56 62 66 71 71 70 68 66 70 69 67 66 64 61 59 58 59 60 60 60 60 60 60 60 59 59 59 60 61 62 58 59 60 60 62 62 61 60 60 60 60
53 57 42 42 30 29 40 45 43 54 60 63 67 65 66 68 70 69 69 67 65 63 61 61 61 61 61 61 61 61 60 61 60 61 59 61 61 63 59 60 59 60 61 61 61 60 60 59 58
49 48 48 48 41 31 32 40 57 57 60 59 62 65 66 66 67 68 70 69 67 64 62 61 62 62 61 61 61 61 60 61 61 61 61 61 60 61 61 60 60 60 61 62 60 59 59 59 59
55 51 50 38 38 42 40 42 62 61 61 61 58 60 69 69 69 67 71 69 66 64 61 60 61 61 61 62 62 61 61 61 60 61 61 61 60 60 62 62 62 61 62 63 62 60 61 59 59

GFSSGP_sfc_temp_096.txt.gz
Temp
63 64 64 64 52 46 42 51 60 63 62 68 72 71 68 65 67 56 71 73 73 72 73 74 73 74 75 75 75 75 75 75 75 75 75 75 75 75 75 75 75 76 77 77 77 77 76 75 74
66 71 64 56 46 38 44 55 59 62 70 72 73 72 70 64 71 70 70 74 74 72 72 72 73 73 74 74 75 75 76 75 75 75 75 75 75 75 75 75 75 76 77 77 77 76 75 74 73
69 72 58 51 42 41 45 58 63 69 73 73 69 72 72 69 73 73 74 75 74 72 72 73 72 73 74 74 74 75 75 74 74 73 73 72 74 75 75 75 75 75 76 77 77 76 74 73 72
67 62 58 47 45 52 55 62 68 68 71 70 71 67 72 76 75 75 76 77 74 73 72 71 71 72 73 74 74 74 74 73 71 72 72 72 72 71 74 73 74 75 76 76 76 75 73 71 71
62 55 46 41 47 54 62 64 69 68 69 72 71 65 67 72 75 75 74 75 70 69 69 70 70 72 73 74 74 74 73 71 71 70 70 69 70 71 69 70 72 74 75 74 74 73 71 71 71
56 53 42 40 49 60 64 68 71 70 71 71 70 67 66 72 73 70 70 69 69 68 68 69 71 71 72 73 73 72 72 70 70 69 69 69 68 69 68 66 70 73 72 73 72 71 71 70 70
51 47 42 44 50 56 64 70 69 69 69 68 73 64 64 68 69 69 67 67 67 67 67 67 68 71 71 70 70 70 70 69 69 69 68 69 68 68 68 69 69 72 71 71 71 70 70 70 69
57 52 44 46 50 53 64 71 71 71 67 73 75 63 60 69 69 67 66 65 65 65 65 65 66 67 68 68 68 68 68 68 68 68 68 68 67 68 68 69 68 71 71 70 70 69 69 69 68
61 46 43 47 52 58 67 66 73 74 70 70 75 71 73 71 68 64 61 61 62 64 64 64 65 66 65 65 68 68 68 68 68 68 67 65 63 65 68 69 68 70 70 70 69 68 68 67 67
54 44 51 58 61 62 65 62 65 65 66 68 71 70 70 69 66 64 61 61 61 61 62 63 64 65 65 67 66 66 66 65 64 64 64 61 63 64 66 67 68 70 69 68 68 68 67 66 64
54 53 61 62 64 64 63 62 65 60 60 67 69 67 67 67 65 65 65 65 63 63 62 62 63 64 64 63 63 64 65 63 62 63 62 62 63 64 65 65 66 66 67 66 66 65 63 61 62
52 60 62 65 67 65 64 64 65 62 69 73 72 70 67 66 66 66 64 65 61 61 62 61 61 61 63 63 64 64 64 64 64 64 63 62 63 62 63 64 64 65 64 61 60 59 60 61 64
56 61 65 67 67 67 68 65 66 66 71 71 72 70 67 67 68 69 69 67 62 61 61 60 60 60 61 62 62 63 63 64 64 64 63 63 62 62 64 63 62 63 62 61 57 57 59 59 61
64 63 63 65 65 66 64 63 60 67 70 72 73 71 66 68 69 69 64 63 64 63 60 59 59 60 61 60 61 62 63 62 64 64 63 64 63 62 62 62 61 61 62 62 60 58 58 59 61
63 57 61 61 62 61 66 59 59 68 69 68 70 72 72 71 70 70 68 66 64 62 61 59 59 59 60 58 60 62 62 64 64 63 62 64 64 63 61 60 59 61 62 60 58 58 59 58 62
55 53 46 58 61 64 60 54 63 68 66 66 68 71 71 71 72 70 67 67 64 61 59 60 62 59 59 58 58 59 60 63 64 64 63 64 64 64 61 60 60 62 62 61 59 61 59 57 61
48 45 46 50 61 59 58 54 63 68 67 65 68 71 72 72 69 65 67 64 62 61 59 59 59 59 59 60 61 58 61 63 63 64 63 64 64 63 61 60 62 60 62 61 61 61 62 57 59
42 42 40 44 52 58 55 55 60 62 62 62 65 70 67 66 68 67 66 64 61 60 60 59 59 59 59 60 59 59 59 60 62 63 63 64 64 63 61 60 62 63 62 61 62 62 61 60 60
48 46 44 45 56 54 53 55 57 58 61 61 64 66 65 64 65 68 64 61 59 59 58 58 58 59 59 58 57 57 57 57 58 60 62 63 64 63 61 61 61 64 63 63 63 62 61 59 59
48 45 45 51 56 55 52 52 55 57 60 61 62 66 64 61 63 65 62 58 58 57 58 57 58 58 59 59 58 57 57 56 57 57 59 62 63 62 62 61 61 64 63 62 62 62 57 58 60
46 44 45 46 52 52 48 50 54 60 60 63 66 68 69 65 64 63 59 57 56 56 56 57 57 58 59 58 57 56 55 55 54 55 56 58 62 62 62 61 62 63 63 62 63 63 62 60 57
42 53 51 49 44 39 47 38 50 55 57 60 63 67 68 64 68 64 60 56 56 56 57 57 58 59 59 57 57 55 54 53 55 55 55 56 59 61 61 61 62 62 63 61 62 62 61 62 59
47 54 51 50 42 39 41 35 44 49 51 56 62 67 72 66 67 64 60 57 57 56 56 57 58 60 59 57 57 56 55 56 55 55 55 55 56 58 60 60 60 59 60 59 60 58 57 58 55
56 51 50 45 41 30 39 39 44 43 51 57 64 69 71 64 66 66 64 59 57 56 56 56 58 59 58 58 57 56 55 55 54 54 54 55 56 56 57 58 58 59 58 57 58 58 58 57 57
50 43 32 28 29 29 45 39 44 52 57 59 61 66 69 71 65 64 59 55 56 55 55 56 57 57 58 57 57 54 55 54 55 55 55 55 55 55 55 56 55 56 58 58 59 58 58 57 56
44 43 32 27 27 32 44 35 42 57 61 64 65 68 70 70 65 63 60 57 56 56 56 57 57 58 58 57 57 56 55 56 57 57 57 57 57 56 56 57 57 57 59 59 58 59 59 58 58
45 41 48 38 37 32 37 43 52 58 56 59 62 63 66 67 66 63 62 59 57 56 56 57 57 59 59 57 58 58 56 57 58 58 59 58 58 59 59 59 58 59 58 59 60 59 58 58 58
50 52 38 38 29 27 35 38 42 49 50 57 57 59 61 64 64 64 63 61 59 58 58 58 58 58 60 59 59 59 57 58 59 59 56 58 58 60 57 58 58 59 59 60 61 59 58 58 58
44 42 45 44 37 30 27 36 50 48 51 50 57 61 61 62 63 64 64 63 62 59 58 57 58 58 60 60 60 59 59 59 59 59 59 58 59 59 58 59 58 59 60 60 59 60 60 58 57
48 46 44 33 34 36 34 38 56 53 53 54 55 60 62 63 65 66 65 64 60 58 58 58 58 58 59 60 61 60 60 60 59 59 59 60 59 59 60 59 59 58 59 58 58 59 60 59 57

GFSSGP_sfc_temp_099.txt.gz
Temp
64 63 62 62 50 44 39 48 53 59 61 65 69 67 66 63 64 56 68 73 71 71 72 72 73 74 74 74 74 74 75 75 75 75 75 75 75 75 75 75 75 77 78 78 77 77 77 76 74
62 67 62 53 44 37 42 51 55 59 67 68 69 68 65 62 67 67 68 71 72 71 71 72 72 73 74 74 74 74 75 75 75 75 75 75 75 75 75 75 75 76 77 78 77 77 76 74 73
67 68 57 49 39 39 44 54 58 67 69 66 65 69 69 67 71 69 71 72 72 70 71 71 72 73 74 74 74 74 74 74 74 74 75 75 75 75 75 74 74 75 76 78 77 76 75 72 71
64 60 55 45 42 46 52 57 63 65 70 67 65 64 68 73 71 73 73 73 71 70 70 70 71 72 73 74 74 74 73 73 73 73 74 75 75 75 74 73 74 75 76 77 76 74 72 71 71
59 53 44 39 44 49 56 62 62 64 65 69 67 63 64 71 73 72 72 73 70 68 68 69 69 71 73 74 74 73 73 71 72 72 73 73 74 74 73 73 73 74 75 76 74 72 71 71 70
54 51 40 39 46 54 58 65 66 66 68 69 67 64 64 68 69 69 70 68 69 68 67 68 71 71 72 73 73 72 71 71 70 70 71 72 72 72 72 73 72 73 73 73 72 71 71 70 70
51 45 40 40 46 52 58 64 64 65 66 67 69 61 63 65 67 67 66 67 67 67 67 67 68 70 70 70 70 70 70 70 69 69 69 69 69 68 70 71 71 71 71 72 71 71 69 69 69
54 49 40 44 47 51 61 66 66 66 64 72 70 60 60 66 67 65 64 64 65 65 65 65 66 67 69 69 69 68 69 69 68 69 69 68 68 68 68 69 69 70 71 71 70 70 69 68 68
55 44 42 46 49 53 63 62 65 69 66 66 70 66 69 69 65 62 60 60 61 63 64 64 64 64 65 67 67 69 69 68 68 68 68 66 64 64 66 67 68 69 69 71 69 69 68 67 67
52 42 46 55 57 60 60 58 62 63 64 65 67 67 65 67 64 62 60 60 60 60 62 63 63 63 64 66 66 66 67 67 67 66 65 63 61 63 65 67 68 69 69 69 68 68 66 66 65
52 50 54 58 60 59 55 56 59 58 59 65 67 65 63 63 63 62 62 63 64 62 62 62 63 63 63 63 63 65 65 64 64 64 63 62 62 62 63 64 66 66 68 67 67 65 63 64 65
49 55 61 60 62 58 60 57 59 57 66 71 70 67 63 62 62 63 62 62 60 60 62 61 62 62 62 62 62 65 65 63 63 63 62 60 62 63 63 64 64 64 64 64 63 60 61 61 62
52 54 59 62 61 60 63 61 60 62 69 69 69 67 63 64 65 66 67 66 60 59 61 61 60 61 62 62 62 63 65 63 63 63 62 62 62 63 64 64 64 64 63 64 60 60 61 60 61
58 58 60 61 62 62 61 62 57 62 67 67 67 64 63 64 66 66 63 62 61 62 60 60 60 60 61 62 61 62 63 64 64 63 63 63 63 62 63 62 63 62 62 63 62 59 60 59 61
61 54 56 57 58 59 62 55 55 64 66 64 66 67 64 65 67 67 67 66 65 63 61 59 59 59 60 60 60 61 61 63 62 63 62 63 63 62 63 62 60 61 60 62 61 59 59 56 61
53 51 44 55 58 61 60 51 61 66 64 63 63 64 66 65 66 67 69 68 65 61 60 60 62 59 58 58 58 59 62 63 63 63 63 64 63 62 60 62 60 58 58 61 61 60 58 58 59
44 38 44 49 59 58 54 50 58 61 62 61 61 61 62 65 68 67 70 68 63 61 60 59 59 58 58 57 57 57 61 63 63 63 62 63 63 62 60 60 59 58 59 60 61 59 60 59 59
40 40 37 42 50 54 51 52 55 59 58 58 58 60 60 62 68 66 66 68 63 60 60 59 59 58 58 58 58 58 60 62 62 63 63 63 64 62 60 58 57 58 59 60 61 59 58 60 60
47 43 41 42 53 50 48 50 53 56 57 55 56 57 59 62 65 61 61 61 59 59 58 58 57 59 60 58 58 58 58 58 60 62 63 63 63 62 60 58 57 59 60 61 61 60 58 55 61
45 42 40 46 52 50 49 50 55 54 55 57 57 57 59 60 60 59 57 58 58 58 58 57 58 60 60 60 59 56 57 57 58 59 61 63 63 62 61 59 57 61 61 60 60 61 55 55 60
43 41 41 43 46 47 45 46 48 54 57 60 61 61 64 62 59 58 57 57 57 58 57 57 60 60 60 57 55 55 55 55 55 56 58 59 63 62 61 60 59 61 62 60 62 62 61 58 56
39 49 48 45 40 33 44 34 47 50 55 57 60 61 64 62 61 61 58 57 58 57 57 58 59 59 59 57 55 55 55 53 55 55 56 57 60 62 62 61 60 62 62 61 62 63 62 62 58
43 50 47 46 40 37 39 33 41 49 48 55 59 60 62 64 61 60 59 59 58 58 56 58 59 58 57 57 54 54 55 56 55 55 55 56 57 60 61 60 59 59 60 62 62 59 58 62 56
52 46 45 42 38 28 38 36 41 44 48 52 58 61 63 63 60 63 63 60 58 58 57 58 59 58 58 57 54 53 55 54 53 54 54 55 56 57 59 59 58 59 58 59 59 57 58 56 56
46 40 30 27 28 29 42 37 44 50 56 55 55 57 61 63 61 60 59 56 57 56 57 58 58 58 57 56 54 54 54 55 55 54 55 54 55 55 56 58 57 57 57 59 59 58 57 57 55
41 40 30 26 26 32 41 33 41 52 55 57 58 59 61 62 64 62 61 57 58 57 57 57 57 57 57 56 54 56 55 56 56 56 56 56 56 56 56 57 57 57 57 58 57 57 57 57 56
42 38 46 37 34 30 34 40 49 51 50 52 53 55 56 59 63 62 61 57 57 57 56 56 58 58 57 56 53 53 54 55 56 55 57 57 56 56 56 57 57 58 57 57 56 55 56 58 57
48 50 35 35 28 27 32 34 37 44 46 49 50 50 55 60 62 63 60 57 57 57 56 57 59 58 58 57 54 54 54 55 56 58 56 56 57 56 55 56 57 57 57 57 56 56 57 57 57
41 40 42 41 34 31 28 31 44 45 48 49 49 51 55 59 62 61 61 59 58 58 57 57 58 58 58 58 55 54 54 55 55 56 57 56 57 57 57 57 57 57 57 57 57 58 58 57 57
44 41 41 32 32 33 31 34 53 49 52 52 51 51 56 60 61 61 62 58 58 56 57 56 58 58 60 59 56 55 55 55 55 55 56 58 56 56 58 57 57 57 56 57 57 57 59 57 56

GFSSGP_sfc_temp_102.txt.gz
Temp
63 61 61 60 50 43 37 46 50 55 59 63 66 64 64 62 61 55 67 70 70 69 72 72 73 74 74 74 74 74 75 76 76 76 75 75 75 75 75 76 76 77 78 78 78 77 77 76 75
61 65 60 51 43 36 41 48 52 57 64 66 66 65 63 61 65 65 68 71 71 70 72 71 72 73 74 74 74 74 75 75 75 75 75 75 75 75 75 75 75 76 77 78 78 77 76 75 73
65 65 55 47 37 38 43 52 57 61 66 64 62 66 66 65 68 68 70 71 70 69 72 71 72 72 73 73 74 74 75 74 75 75 75 75 75 75 75 75 75 76 78 77 77 76 74 72 72
62 59 53 44 39 45 49 56 57 62 66 63 65 62 66 70 70 71 70 71 69 68 69 70 70 72 73 74 74 74 74 73 73 74 75 75 75 75 75 74 75 75 76 76 76 75 72 71 70
57 52 43 37 40 46 53 56 58 60 61 65 65 61 63 68 70 69 70 71 68 67 67 69 70 71 73 74 74 73 73 72 73 73 74 74 75 74 74 73 73 75 75 75 75 72 71 70 70
52 49 39 38 44 50 55 61 61 62 64 65 64 62 63 66 67 67 68 68 68 67 66 68 70 71 72 73 73 72 72 71 72 72 73 74 74 73 73 73 74 74 74 74 72 71 70 70 69
50 44 39 37 43 48 54 61 61 61 61 61 65 61 63 63 66 66 66 66 66 66 66 66 68 70 70 70 70 70 70 70 70 71 71 70 70 71 72 72 72 73 72 72 71 70 70 69 69
51 48 38 43 45 48 59 61 64 61 60 68 65 61 62 64 65 64 64 64 65 65 65 65 66 67 68 69 69 69 69 69 69 68 68 68 68 69 69 70 71 72 72 72 71 69 69 68 67
51 43 38 45 46 51 58 56 61 64 61 64 67 63 64 64 63 62 61 63 65 65 65 64 65 65 66 67 69 69 69 68 68 69 68 66 66 66 67 68 69 70 71 70 71 68 67 67 66
50 41 44 53 54 56 57 54 54 57 57 61 63 64 63 64 62 62 60 62 64 65 65 64 63 63 63 66 68 68 68 68 68 67 67 65 64 64 66 66 68 69 70 70 69 68 67 66 65
50 46 50 54 56 55 51 54 58 52 55 61 62 63 61 61 60 61 61 61 62 64 64 63 62 62 62 66 66 66 67 67 66 66 65 63 63 64 64 63 64 65 69 67 67 66 66 64 64
47 52 56 56 58 54 55 53 56 55 62 68 66 65 61 60 61 62 61 61 60 59 62 62 61 61 61 65 65 65 64 65 64 64 63 63 62 62 63 63 65 64 65 66 64 63 64 63 63
49 51 56 58 58 57 59 57 56 56 64 66 66 64 63 61 63 65 65 64 61 59 60 61 61 62 61 62 63 64 63 63 63 63 62 62 62 62 63 63 63 63 64 63 61 60 63 61 61
54 55 58 57 59 57 57 59 54 57 63 64 64 63 62 61 63 63 60 62 60 63 59 61 61 62 62 62 63 64 65 63 63 62 62 62 61 63 63 63 63 62 62 62 60 61 62 62 61
56 51 53 52 54 54 57 52 53 61 63 62 63 63 62 62 62 62 64 64 64 63 63 61 61 61 63 64 61 63 63 63 63 63 62 62 61 62 63 62 62 62 61 60 59 59 61 61 61
48 47 41 51 55 58 60 49 56 63 59 59 60 61 62 62 64 64 65 66 66 64 60 61 62 60 61 63 61 61 62 63 63 63 63 63 63 63 62 61 61 63 61 60 59 59 59 59 58
41 36 40 45 56 56 54 50 54 58 59 58 59 59 60 59 61 63 65 68 68 65 61 59 60 59 59 58 61 61 62 61 63 63 62 63 63 62 61 62 61 61 59 58 58 58 58 57 57
37 38 37 39 46 50 49 49 52 56 55 56 57 58 57 58 61 64 63 66 67 63 60 60 60 59 58 58 59 59 60 62 62 62 62 63 63 61 60 59 58 59 58 57 57 57 59 59 57
43 41 39 40 49 48 47 48 48 53 54 52 53 55 56 57 62 62 60 59 57 57 58 59 59 58 58 59 59 58 59 60 61 62 63 63 63 61 60 58 57 57 57 57 58 56 57 57 59
43 40 38 43 49 48 46 48 50 51 52 54 56 54 56 57 61 60 57 55 56 57 58 60 59 59 59 60 60 59 59 58 59 61 62 63 63 61 60 59 57 57 56 56 57 58 57 57 59
40 39 38 41 43 42 41 43 46 50 52 56 56 57 57 57 58 60 57 54 54 57 59 60 58 60 60 60 58 56 56 56 56 57 59 61 63 61 61 59 57 57 57 56 57 58 59 56 58
37 45 45 42 38 31 40 30 40 48 51 53 56 56 56 57 63 59 58 54 55 57 60 60 58 59 60 59 57 56 54 53 55 57 57 58 61 61 61 59 57 56 58 58 60 61 61 60 56
41 47 43 42 36 33 35 31 37 47 48 52 56 56 56 58 60 60 59 58 57 57 59 59 60 59 59 58 57 56 57 57 55 55 56 57 58 60 61 59 57 56 58 61 61 60 59 61 59
49 44 42 39 35 26 35 34 34 41 46 52 54 56 56 56 59 61 63 57 56 58 58 60 59 58 58 57 57 55 53 54 54 54 54 56 57 59 60 60 59 57 58 59 61 59 59 58 60
43 37 29 26 26 28 39 34 41 47 51 51 51 52 53 56 57 59 61 54 55 57 57 59 58 56 57 55 55 52 53 54 54 55 55 55 55 56 59 59 57 57 59 58 58 57 57 57 57
39 38 29 25 26 28 38 30 38 48 50 52 51 52 53 54 57 59 61 59 56 57 57 58 58 57 57 56 55 53 53 54 54 55 56 56 56 56 57 58 57 57 58 58 57 57 56 56 56
39 34 43 34 33 29 33 38 46 48 48 49 49 51 51 54 56 58 62 61 57 57 57 58 59 58 57 57 55 53 53 54 54 54 55 56 57 56 56 57 57 57 57 57 57 57 57 56 55
45 46 34 32 26 26 30 31 35 42 45 48 47 47 49 54 55 57 62 57 59 59 59 59 59 58 57 57 56 53 53 53 53 53 53 56 56 56 56 56 56 56 57 57 57 56 57 55 55
39 37 39 38 33 28 27 31 42 43 46 46 46 48 49 52 54 56 61 60 58 59 58 57 59 59 57 57 56 52 52 52 53 53 54 55 56 56 56 57 57 56 56 57 57 57 56 55 55
43 39 39 31 30 32 31 34 49 47 48 48 47 50 52 53 54 58 59 59 57 57 57 57 59 58 58 57 55 52 52 53 52 53 54 56 54 56 56 56 57 57 57 57 57 56 57 56 56

GFSSGP_sfc_temp_105.txt.gz
Temp
70 72 75 74 65 61 56 60 62 64 67 73 75 74 74 75 70 69 77 80 78 78 78 77 73 74 74 75 74 74 75 76 76 76 75 75 75 76 76 76 76 77 78 78 78 78 77 76 75
71 73 73 66 60 55 60 61 62 68 73 74 74 73 73 74 75 75 78 78 80 78 77 78 73 73 74 74 74 74 76 76 76 76 76 76 76 76 76 76 76 77 77 78 78 78 77 75 74
73 73 71 65 56 56 60 62 69 71 73 73 74 77 76 75 76 79 80 79 78 78 78 77 72 72 73 74 74 74 75 75 75 75 76 76 76 76 76 75 75 76 77 78 78 77 75 73 72
73 73 65 59 56 57 61 67 68 69 74 74 76 75 77 79 79 82 80 79 78 76 78 73 71 72 73 73 74 74 74 74 74 74 75 76 76 76 74 74 75 76 76 77 77 75 73 71 71
70 67 59 55 56 58 63 66 68 69 70 73 75 74 74 77 78 79 78 78 77 75 73 73 70 71 73 74 74 74 73 73 73 74 74 75 75 75 75 74 75 75 75 76 75 73 71 71 70
65 64 55 55 60 58 65 68 68 69 72 71 71 74 76 76 76 76 76 76 77 74 74 75 72 71 72 73 73 72 72 72 72 73 73 74 74 74 74 74 73 73 74 74 73 71 71 70 69
63 59 56 54 57 57 62 70 67 70 69 71 73 71 76 74 76 74 75 76 74 74 73 74 74 74 70 70 71 70 71 71 71 72 71 72 72 71 73 73 73 74 73 73 71 70 70 69 69
65 63 52 56 59 60 67 69 72 72 71 76 76 71 73 74 73 74 75 75 74 74 74 74 74 74 75 76 69 69 69 69 70 70 70 69 69 70 71 70 71 73 72 72 71 70 69 69 68
63 57 53 58 57 63 67 67 71 72 71 73 76 76 75 70 71 72 71 68 68 69 73 73 74 74 73 75 75 69 69 69 69 70 69 68 75 75 74 73 68 71 71 71 70 68 67 67 66
62 55 57 62 64 63 65 65 67 69 68 70 72 74 71 69 72 72 71 68 67 68 68 73 73 73 74 75 75 71 72 72 70 72 74 73 72 73 74 72 69 70 69 68 69 67 66 66 65
60 56 59 62 65 65 66 65 69 67 66 70 71 73 71 70 71 72 73 74 71 73 70 68 69 72 73 73 74 71 70 69 69 72 69 69 67 68 70 70 71 71 69 72 67 67 67 67 66
54 58 62 63 65 65 63 67 65 68 70 75 75 74 73 71 71 71 72 72 71 71 71 69 69 70 71 72 72 72 69 67 68 68 70 70 67 66 66 66 67 69 72 72 66 67 67 65 69
55 59 60 63 64 64 65 64 64 65 71 74 73 71 72 72 73 73 75 75 74 71 71 69 69 70 70 68 68 69 68 66 67 69 67 70 69 65 68 66 66 70 70 69 64 65 64 64 69
60 60 62 64 64 63 62 63 63 66 70 69 70 74 75 72 74 73 72 72 71 72 73 71 70 70 71 67 66 67 66 66 66 67 67 68 69 68 65 65 66 66 65 66 63 61 61 61 70
60 55 59 60 62 61 63 58 59 69 70 69 72 73 73 73 74 73 75 72 73 74 75 69 70 70 70 69 65 67 67 67 65 65 66 68 68 66 65 65 65 65 62 62 61 60 60 60 68
56 55 50 59 60 62 64 55 64 69 67 67 68 70 70 72 74 76 74 74 77 75 73 71 70 69 68 67 65 66 66 67 67 66 66 67 67 67 67 65 63 63 60 59 60 58 58 59 65
50 47 46 52 60 62 61 58 64 67 65 65 66 68 69 70 72 74 76 76 77 76 74 71 69 68 66 67 65 65 65 65 66 66 65 67 66 67 68 65 63 62 60 57 58 58 58 60 62
44 43 47 50 57 57 57 56 62 66 63 64 66 68 69 70 73 76 75 76 77 77 74 71 69 68 66 64 63 64 63 63 65 64 65 66 64 65 65 63 61 61 59 58 58 58 58 60 60
50 48 48 51 56 55 55 57 58 62 63 64 65 66 67 68 74 73 72 73 71 70 69 68 67 67 64 61 60 61 61 62 62 64 64 64 64 64 63 62 60 62 59 57 58 58 57 58 65
49 47 47 50 54 54 55 53 59 60 62 65 65 66 67 67 70 71 71 71 68 69 67 66 67 65 67 65 64 65 64 63 63 64 64 64 64 64 62 60 58 59 59 57 57 58 56 57 60
46 45 46 46 51 53 50 50 56 59 60 62 64 66 66 66 67 68 68 69 68 66 65 65 67 64 68 67 65 65 62 61 60 60 62 63 65 62 62 59 58 57 57 56 57 58 58 56 58
41 49 48 47 45 40 50 41 51 58 58 61 64 65 64 64 66 67 67 68 68 66 66 65 65 63 66 65 63 63 63 61 61 61 62 63 63 62 62 60 59 58 58 56 57 58 58 57 56
44 49 48 48 45 43 45 42 48 53 55 59 62 61 61 63 64 64 65 68 69 67 65 65 63 63 64 64 64 63 61 63 62 63 61 61 62 62 61 60 58 58 58 57 58 57 57 59 59
53 48 46 44 43 34 42 44 45 51 55 57 58 59 60 61 62 64 67 68 69 65 65 64 60 61 62 63 62 59 59 62 62 60 59 60 59 59 61 60 59 58 58 57 58 59 59 60 62
50 45 35 31 32 33 44 40 48 55 55 56 56 59 59 60 61 63 64 65 66 67 64 63 60 60 60 61 59 59 60 62 61 59 58 58 58 59 60 59 57 57 58 59 59 58 61 63 62
45 45 38 28 30 36 42 38 48 55 56 56 58 58 59 60 61 63 64 64 65 67 65 62 61 59 60 59 58 58 62 63 64 62 60 60 63 60 63 60 58 58 57 58 58 58 58 59 60
43 39 48 39 39 35 41 45 52 52 52 54 55 56 57 58 60 62 64 64 65 66 64 61 60 60 59 58 58 58 62 63 63 62 59 59 61 61 62 60 58 58 58 57 57 57 57 57 58
48 51 39 39 29 28 37 39 43 47 51 53 55 55 57 58 61 61 63 64 65 65 64 61 61 59 59 58 61 60 60 62 63 62 58 60 62 61 61 58 58 57 58 57 57 56 57 57 56
44 42 44 44 40 34 31 39 50 51 54 54 54 54 55 56 58 60 62 62 61 62 64 61 61 60 59 59 61 56 58 61 61 60 60 61 61 60 59 58 57 57 57 56 55 55 56 56 56
49 45 45 37 35 39 39 40 54 53 55 54 54 54 55 56 57 57 56 56 59 60 60 60 60 59 58 59 58 56 58 60 60 60 60 61 59 59 59 58 57 57 57 57 56 55 56 56 55